[[{"header":{"parameterUnit":"m.s-1","parameterCategory":1,"la1":30.6,"la2":28.766,"lo1":-90.7593,"lo2":-88.6598,"dx":0.0162,"dy":0.0183,"nx":116,"ny":114,"refTime":"2022-11-15T18:00:00:Z","depth":0,"parameterNumber":2,"parameterNumberName":"U-component_of_WINDS"},"data":[0.0,0.0,0.0,0.0,0.0,0.0,0.0,0.0,0.0,0.0,0.0,0.0,0.0,0.0,0.0,0.0,0.0,0.0,0.0,0.0,0.0,0.0,0.0,0.0,0.0,0.0,0.0,0.0,0.0,0.0,0.0,0.0,0.0,0.0,0.0,0.0,0.0,0.0,0.0,0.0,0.0,0.0,0.0,0.0,0.0,0.0,0.0,0.0,0.0,0.0,0.0,0.0,0.0,0.0,0.0,0.0,0.0,0.0,0.0,0.0,0.0,0.0,0.0,0.0,0.0,0.0,0.0,0.0,0.0,0.0,0.0,0.0,0.0,0.0,0.0,0.0,0.0,0.0,0.0,0.0,0.0,0.0,0.0,0.0,0.0,0.0,0.0,0.0,0.0,0.0,0.0,0.0,0.0,0.0,0.0,0.0,0.0,0.0,0.0,0.0,0.0,0.0,0.0,0.0,0.0,0.0,0.0,0.0,0.0,0.0,0.0,0.0,0.0,0.0,0.0,0.0,0.0,0.0,0.0,0.0,0.0,0.0,0.0,0.0,0.0,0.0,0.0,0.0,0.0,0.0,0.0,0.0,0.0,0.0,0.0,0.0,0.0,0.0,0.0,0.0,0.0,0.0,0.0,0.0,0.0,0.0,0.0,0.0,0.0,0.0,0.0,0.0,0.0,0.0,0.0,0.0,0.0,0.0,0.0,0.0,0.0,0.0,0.0,0.0,0.0,0.0,0.0,0.0,0.0,0.0,0.0,0.0,0.0,0.0,0.0,0.0,0.0,0.0,0.0,0.0,0.0,0.0,0.0,0.0,0.0,0.0,0.0,0.0,0.0,0.0,0.0,0.0,0.0,0.0,0.0,0.0,0.0,0.0,0.0,0.0,0.0,0.0,0.0,0.0,0.0,0.0,0.0,0.0,0.0,0.0,0.0,0.0,0.0,0.0,0.0,0.0,0.0,0.0,0.0,0.0,0.0,0.0,0.0,0.0,0.0,0.0,0.0,0.0,0.0,0.0,0.0,0.0,0.0,0.0,0.0,0.0,0.0,0.0,0.0,0.0,0.0,0.0,0.0,0.0,0.0,0.0,0.0,0.0,0.0,0.0,0.0,0.0,0.0,0.0,0.0,0.0,0.0,0.0,0.0,0.0,0.0,0.0,0.0,0.0,0.0,0.0,0.0,0.0,0.0,0.0,0.0,0.0,0.0,0.0,0.0,0.0,0.0,0.0,0.0,0.0,0.0,0.0,0.0,0.0,0.0,0.0,0.0,0.0,0.0,0.0,0.0,0.0,0.0,0.0,0.0,0.0,0.0,0.0,0.0,0.0,0.0,0.0,0.0,0.0,0.0,0.0,0.0,0.0,0.0,0.0,0.0,0.0,0.0,0.0,0.0,0.0,0.0,0.0,0.0,0.0,0.0,0.0,0.0,0.0,0.0,0.0,0.0,0.0,0.0,0.0,0.0,0.0,0.0,0.0,0.0,0.0,0.0,0.0,0.0,0.0,0.0,0.0,0.0,0.0,0.0,0.0,0.0,0.0,0.0,0.0,0.0,0.0,0.0,0.0,0.0,0.0,0.0,0.0,0.0,0.0,0.0,0.0,0.0,0.0,0.0,0.0,0.0,0.0,0.0,0.0,0.0,0.0,0.0,0.0,0.0,0.0,0.0,0.0,0.0,0.0,0.0,0.0,0.0,0.0,0.0,0.0,0.0,0.0,0.0,0.0,0.0,0.0,0.0,0.0,0.0,0.0,0.0,0.0,0.0,0.0,0.0,0.0,0.0,0.0,0.0,0.0,0.0,0.0,0.0,0.0,0.0,0.0,0.0,0.0,0.0,0.0,0.0,0.0,0.0,0.0,0.0,0.0,0.0,0.0,0.0,0.0,0.0,0.0,0.0,0.0,0.0,0.0,0.0,0.0,0.0,0.0,0.0,0.0,0.0,0.0,0.0,0.0,0.0,0.0,0.0,0.0,0.0,0.0,0.0,0.0,0.0,0.0,0.0,0.0,0.0,0.0,0.0,0.0,0.0,0.0,0.0,0.0,0.0,0.0,0.0,0.0,0.0,0.0,0.0,0.0,0.0,0.0,0.0,0.0,0.0,0.0,0.0,0.0,0.0,0.0,0.0,0.0,0.0,0.0,0.0,0.0,0.0,0.0,0.0,0.0,0.0,0.0,0.0,0.0,0.0,0.0,0.0,0.0,0.0,0.0,0.0,0.0,0.0,0.0,0.0,0.0,0.0,0.0,0.0,0.0,0.0,0.0,0.0,0.0,0.0,0.0,0.0,0.0,0.0,0.0,0.0,0.0,0.0,0.0,0.0,0.0,0.0,0.0,0.0,0.0,0.0,0.0,0.0,0.0,0.0,0.0,0.0,0.0,0.0,0.0,0.0,0.0,0.0,0.0,0.0,0.0,0.0,0.0,0.0,0.0,0.0,0.0,0.0,0.0,0.0,0.0,0.0,0.0,0.0,0.0,0.0,0.0,0.0,0.0,0.0,0.0,0.0,0.0,0.0,0.0,0.0,0.0,0.0,0.0,0.0,0.0,0.0,0.0,0.0,0.0,0.0,0.0,0.0,0.0,0.0,0.0,0.0,0.0,0.0,0.0,0.0,0.0,0.0,0.0,0.0,0.0,0.0,0.0,0.0,0.0,0.0,0.0,0.0,0.0,0.0,0.0,0.0,0.0,0.0,0.0,0.0,0.0,0.0,0.0,0.0,0.0,0.0,0.0,0.0,0.0,0.0,0.0,0.0,0.0,0.0,0.0,0.0,0.0,0.0,0.0,0.0,0.0,0.0,0.0,0.0,0.0,0.0,0.0,0.0,0.0,0.0,0.0,0.0,0.0,0.0,0.0,0.0,0.0,0.0,0.0,0.0,0.0,0.0,0.0,0.0,0.0,0.0,0.0,0.0,0.0,0.0,0.0,0.0,0.0,0.0,0.0,0.0,0.0,0.0,0.0,0.0,0.0,0.0,0.0,0.0,0.0,0.0,0.0,0.0,0.0,0.0,0.0,0.0,0.0,0.0,0.0,0.0,0.0,0.0,0.0,0.0,0.0,0.0,0.0,0.0,0.0,0.0,0.0,0.0,0.0,0.0,0.0,0.0,0.0,0.0,0.0,0.0,0.0,0.0,0.0,0.0,0.0,0.0,0.0,0.0,0.0,0.0,0.0,0.0,0.0,0.0,0.0,0.0,0.0,0.0,0.0,0.0,0.0,0.0,0.0,0.0,0.0,0.0,0.0,0.0,0.0,0.0,0.0,0.0,0.0,0.0,0.0,0.0,0.0,0.0,0.0,0.0,0.0,0.0,0.0,0.0,0.0,0.0,0.0,0.0,0.0,0.0,0.0,0.0,0.0,0.0,0.0,0.0,0.0,0.0,0.0,0.0,0.0,0.0,0.0,0.0,0.0,0.0,0.0,0.0,0.0,0.0,0.0,0.0,0.0,0.0,0.0,0.0,0.0,0.0,0.0,0.0,0.0,0.0,0.0,0.0,0.0,0.0,0.0,0.0,0.0,0.0,0.0,0.0,0.0,0.0,0.0,0.0,0.0,0.0,0.0,0.0,0.0,0.0,0.0,0.0,0.0,0.0,0.0,0.0,0.0,0.0,0.0,0.0,0.0,0.0,0.0,0.0,0.0,0.0,0.0,0.0,0.0,0.0,0.0,0.0,0.0,0.0,0.0,0.0,0.0,0.0,0.0,0.0,0.0,0.0,0.0,0.0,0.0,0.0,0.0,0.0,0.0,0.0,0.0,0.0,0.0,0.0,0.0,0.0,0.0,0.0,0.0,0.0,0.0,0.0,0.0,0.0,0.0,0.0,0.0,0.0,0.0,0.0,0.0,0.0,0.0,0.0,0.0,0.0,0.0,0.0,0.0,0.0,0.0,0.0,0.0,0.0,0.0,0.0,0.0,0.0,0.0,0.0,0.0,0.0,0.0,0.0,0.0,0.0,0.0,0.0,0.0,0.0,0.0,0.0,0.0,0.0,0.0,0.0,0.0,0.0,0.0,0.0,0.0,0.0,0.0,0.0,0.0,0.0,0.0,0.0,0.0,0.0,0.0,0.0,0.0,0.0,0.0,0.0,0.0,0.0,0.0,0.0,0.0,0.0,0.0,0.0,0.0,0.0,0.0,0.0,0.0,0.0,0.0,0.0,0.0,0.0,0.0,0.0,0.0,0.0,0.0,0.0,0.0,0.0,0.0,0.0,0.0,0.0,0.0,0.0,0.0,0.0,0.0,0.0,0.0,0.0,0.0,0.0,0.0,0.0,0.0,0.0,0.0,0.0,0.0,0.0,0.0,0.0,0.0,0.0,0.0,0.0,0.0,0.0,0.0,0.0,0.0,0.0,0.0,0.0,0.0,0.0,0.0,0.0,0.0,0.0,0.0,0.0,0.0,0.0,0.0,0.0,0.0,0.0,0.0,0.0,0.0,0.0,0.0,0.0,0.0,0.0,0.0,0.0,0.0,0.0,0.0,0.0,0.0,0.0,0.0,0.0,0.0,0.0,0.0,0.0,0.0,0.0,0.0,0.0,0.0,0.0,0.0,0.0,0.0,0.0,0.0,0.0,0.0,0.0,0.0,0.0,0.0,0.0,0.0,0.0,0.0,0.0,0.0,0.0,0.0,0.0,0.0,0.0,0.0,0.0,0.0,0.0,0.0,0.0,0.0,0.0,0.0,0.0,0.0,0.0,0.0,0.0,0.0,0.0,0.0,0.0,0.0,0.0,0.0,0.0,0.0,0.0,0.0,0.0,0.0,0.0,0.0,0.0,0.0,0.0,0.0,0.0,0.0,0.0,0.0,0.0,0.0,0.0,0.0,0.0,0.0,0.0,0.0,0.0,0.0,0.0,0.0,0.0,0.0,0.0,0.0,0.0,0.0,0.0,0.0,0.0,0.0,0.0,0.0,0.0,0.0,0.0,0.0,0.0,0.0,0.0,0.0,0.0,0.0,0.0,0.0,0.0,0.0,0.0,0.0,0.0,0.0,0.0,0.0,0.0,0.0,0.0,0.0,0.0,0.0,0.0,0.0,0.0,0.0,0.0,0.0,0.0,0.0,0.0,0.0,0.0,0.0,0.0,0.0,0.0,0.0,0.0,0.0,0.0,0.0,0.0,0.0,0.0,0.0,0.0,0.0,0.0,0.0,0.0,0.0,0.0,0.0,0.0,0.0,0.0,0.0,0.0,0.0,0.0,0.0,0.0,0.0,0.0,0.0,0.0,0.0,0.0,0.0,0.0,0.0,0.0,0.0,0.0,0.0,0.0,0.0,0.0,0.0,0.0,0.0,0.0,0.0,0.0,0.0,0.0,0.0,0.0,0.0,0.0,0.0,0.0,0.0,0.0,0.0,0.0,0.0,0.0,0.0,0.0,0.0,0.0,0.0,0.0,0.0,0.0,0.0,0.0,0.0,0.0,0.0,0.0,0.0,0.0,0.0,0.0,0.0,0.0,0.0,0.0,0.0,0.0,0.0,0.0,0.0,0.0,0.0,0.0,0.0,0.0,0.0,0.0,0.0,0.0,0.0,0.0,0.0,0.0,0.0,0.0,0.0,0.0,0.0,0.0,0.0,0.0,0.0,0.0,0.0,0.0,0.0,0.0,0.0,0.0,0.0,0.0,0.0,0.0,0.0,0.0,0.0,0.0,0.0,0.0,0.0,0.0,0.0,0.0,0.0,0.0,0.0,0.0,0.0,0.0,0.0,0.0,0.0,0.0,0.0,0.0,0.0,0.0,0.0,0.0,0.0,0.0,0.0,0.0,0.0,0.0,0.0,0.0,0.0,0.0,0.0,0.0,0.0,0.0,0.0,0.0,0.0,0.0,0.0,0.0,0.0,0.0,0.0,0.0,0.0,0.0,0.0,0.0,0.0,0.0,0.0,0.0,0.0,0.0,0.0,0.0,0.0,0.0,0.0,0.0,0.0,0.0,0.0,0.0,0.0,0.0,0.0,0.0,0.0,0.0,0.0,0.0,0.0,0.0,0.0,0.0,0.0,0.0,0.0,0.0,0.0,0.0,0.0,0.0,0.0,0.0,0.0,0.0,0.0,0.0,0.0,0.0,0.0,0.0,0.0,0.0,0.0,0.0,0.0,4.5964,4.188,0.0,0.0,0.0,0.0,0.0,0.0,0.0,0.0,0.0,0.0,0.0,0.0,0.0,0.0,0.0,0.0,0.0,0.0,0.0,0.0,0.0,0.0,0.0,2.2586,2.2728,2.3469,2.3308,0.0,0.0,0.0,0.0,0.0,0.0,0.0,2.4337,2.4938,2.5741,2.6757,2.8493,3.0225,3.1887,3.1231,2.9849,2.7927,0.0,0.0,0.0,0.0,0.0,0.0,0.0,0.0,0.0,0.0,0.0,0.0,0.0,0.0,0.0,0.0,0.0,0.0,0.0,0.0,0.0,0.0,0.0,0.0,0.0,0.0,0.0,0.0,0.0,0.0,0.0,0.0,0.0,0.0,0.0,0.0,0.0,0.0,0.0,0.0,0.0,0.0,0.0,0.0,0.0,0.0,0.0,0.0,0.0,0.0,0.0,0.0,0.0,0.0,0.0,0.0,0.0,0.0,0.0,0.0,0.0,0.0,0.0,0.0,0.0,0.0,0.0,0.0,0.0,0.0,4.9527,4.7307,0.0,0.0,0.0,0.0,0.0,0.0,0.0,0.0,0.0,0.0,0.0,0.0,0.0,0.0,0.0,0.0,0.0,0.0,0.0,0.0,0.0,2.2867,2.2959,2.2864,2.3204,2.4275,2.4363,2.4479,2.4766,2.4847,0.0,0.0,0.0,0.0,2.5926,2.6338,2.7364,2.9056,3.1224,3.3768,3.6552,3.7133,3.5095,3.095,3.066,0.0,0.0,0.0,0.0,0.0,0.0,0.0,0.0,0.0,0.0,0.0,0.0,0.0,0.0,0.0,0.0,0.0,0.0,0.0,0.0,0.0,0.0,0.0,0.0,0.0,0.0,0.0,0.0,0.0,0.0,0.0,0.0,0.0,0.0,0.0,0.0,0.0,0.0,0.0,0.0,0.0,0.0,0.0,0.0,0.0,0.0,0.0,0.0,0.0,0.0,0.0,0.0,0.0,0.0,0.0,0.0,0.0,0.0,0.0,0.0,0.0,0.0,0.0,5.1179,5.1738,5.2335,5.3086,5.3381,5.3275,5.3118,5.333,5.3544,4.9687,0.0,0.0,0.0,0.0,0.0,0.0,0.0,0.0,0.0,0.0,0.0,0.0,0.0,0.0,0.0,0.0,0.0,0.0,0.0,2.3864,2.5046,2.5367,2.5706,2.6194,2.6197,2.6208,2.63,2.6641,0.0,0.0,0.0,2.7226,2.7322,2.7655,2.9489,3.2884,3.5723,3.7656,3.8656,3.782,3.7295,3.7083,3.6538,3.4855,3.2442,0.0,0.0,0.0,0.0,0.0,0.0,0.0,0.0,0.0,0.0,0.0,0.0,0.0,0.0,0.0,0.0,0.0,0.0,0.0,0.0,0.0,0.0,0.0,0.0,0.0,0.0,0.0,0.0,0.0,0.0,0.0,0.0,0.0,0.0,0.0,0.0,0.0,0.0,0.0,0.0,0.0,3.9541,4.3362,0.0,0.0,0.0,0.0,0.0,0.0,0.0,0.0,0.0,0.0,0.0,0.0,0.0,4.9084,4.9181,5.2072,5.3617,5.3844,5.629,5.7512,5.7609,5.8366,5.9037,5.9469,5.7002,0.0,5.4271,5.3639,0.0,0.0,0.0,0.0,0.0,0.0,0.0,0.0,0.0,0.0,0.0,0.0,0.0,0.0,0.0,0.0,0.0,0.0,0.0,0.0,0.0,2.6868,2.7666,2.8443,2.9529,2.9765,2.8858,2.9301,0.0,0.0,2.7845,2.8168,2.8707,2.9043,3.1841,3.7183,3.9748,4.209,4.4268,4.3758,4.3868,4.4448,4.3818,4.1024,3.676,3.6085,0.0,0.0,0.0,0.0,0.0,0.0,0.0,0.0,0.0,0.0,0.0,0.0,0.0,0.0,0.0,0.0,0.0,0.0,0.0,0.0,0.0,0.0,0.0,0.0,0.0,0.0,0.0,0.0,0.0,0.0,0.0,0.0,0.0,0.0,0.0,0.0,0.0,0.0,0.0,3.9225,4.1773,4.4988,4.4996,4.4204,0.0,0.0,0.0,0.0,0.0,0.0,0.0,0.0,0.0,5.0177,5.149,5.2473,5.3058,5.5323,5.6867,5.7642,5.9504,6.048,6.0654,6.1665,6.2296,6.249,6.0818,5.9976,5.9544,5.6306,5.4784,5.4266,0.0,0.0,0.0,0.0,4.8298,4.9292,0.0,0.0,0.0,0.0,0.0,0.0,0.0,0.0,0.0,0.0,0.0,0.0,2.7471,2.9035,3.0376,3.1308,3.2846,3.2984,3.114,3.1592,3.1004,2.8953,2.9118,2.9517,3.0059,3.1842,3.5493,4.1097,4.3248,4.5773,4.8558,4.8379,4.8648,4.9258,4.8588,4.5576,4.0948,3.9717,3.8202,3.6467,0.0,0.0,0.0,0.0,0.0,0.0,0.0,0.0,0.0,0.0,0.0,0.0,0.0,0.0,0.0,0.0,0.0,0.0,0.0,0.0,0.0,0.0,0.0,0.0,0.0,0.0,0.0,0.0,0.0,0.0,0.0,0.0,0.0,0.0,0.0,0.0,0.0,4.2813,4.4608,4.7623,4.7808,4.7311,0.0,0.0,0.0,0.0,0.0,0.0,5.0849,5.0657,5.1308,5.3028,5.4194,5.5256,5.6306,5.7663,5.8997,6.0341,6.1257,6.1941,6.2412,6.3224,6.3669,6.3797,6.2912,6.2912,6.3256,5.9045,5.7352,5.7307,5.6279,5.4905,5.3457,5.2902,5.3179,5.3888,0.0,0.0,0.0,0.0,0.0,0.0,0.0,0.0,0.0,0.0,0.0,2.9122,3.0191,3.2684,3.4536,3.5181,3.5618,3.4872,3.2556,3.2796,3.198,2.9652,3.1433,3.2122,3.1433,3.6981,4.1263,4.4068,4.6112,4.7859,4.9228,4.8588,4.8648,4.9258,4.8588,4.6713,4.3998,4.2709,4.1022,3.8915,3.5718,0.0,0.0,0.0,0.0,0.0,0.0,0.0,0.0,0.0,0.0,0.0,0.0,0.0,0.0,0.0,0.0,0.0,0.0,0.0,0.0,0.0,0.0,0.0,0.0,0.0,0.0,0.0,0.0,0.0,0.0,0.0,0.0,0.0,0.0,0.0,0.0,0.0,0.0,5.3402,5.3688,0.0,0.0,0.0,0.0,4.8182,4.9776,5.1549,5.3061,5.3189,5.4709,5.8023,5.7666,5.7875,5.8819,5.8906,5.9594,6.0854,6.1255,6.1944,6.2862,6.261,6.2822,6.3365,6.2043,6.1869,6.2477,6.2515,6.2683,6.2693,6.063,5.9487,5.8769,5.6713,5.7271,5.9019,0.0,0.0,0.0,2.151,2.1851,2.2244,2.2565,2.3488,2.4555,2.5717,2.8265,3.056,3.2235,3.5197,3.7319,3.7952,3.9667,3.9814,3.7712,3.7322,3.6214,3.4128,3.351,3.388,3.5272,4.0298,4.4007,4.6221,4.8215,5.0081,5.1791,5.1121,5.1181,5.1791,5.1121,5.0272,4.9224,4.6651,4.4377,4.2412,4.0806,3.8272,0.0,0.0,0.0,0.0,0.0,0.0,0.0,0.0,0.0,0.0,0.0,0.0,0.0,0.0,0.0,0.0,0.0,0.0,0.0,0.0,0.0,0.0,0.0,0.0,0.0,0.0,0.0,0.0,0.0,0.0,0.0,0.0,0.0,0.0,0.0,0.0,0.0,5.1267,5.1865,0.0,5.3397,5.3699,5.3612,5.3095,5.4898,5.6383,5.7184,5.7003,5.7933,6.0288,5.9908,6.0376,6.1805,6.1572,6.1659,6.2079,6.3017,6.3499,6.3559,6.4172,6.4591,6.4791,6.3856,6.3576,6.3784,6.3425,6.2818,6.195,6.0536,6.0229,6.0515,5.9511,5.9748,6.0555,0.0,0.0,0.0,2.22,2.2573,2.2992,2.33,2.4442,2.5902,2.7679,3.0402,3.3036,3.525,3.8042,4.0107,4.0986,4.2831,4.296,4.0546,4.0217,3.902,3.6605,3.6284,3.7712,4.0995,4.4287,4.707,4.9284,5.0828,5.2444,5.4216,5.3755,5.3785,5.4186,5.3516,5.3084,5.2695,5.0062,4.7927,4.6151,4.4346,4.1584,3.832,0.0,0.0,0.0,0.0,0.0,0.0,0.0,0.0,0.0,0.0,0.0,0.0,0.0,0.0,0.0,0.0,0.0,0.0,0.0,0.0,0.0,0.0,0.0,0.0,0.0,0.0,0.0,0.0,0.0,0.0,0.0,0.0,0.0,0.0,4.6404,4.9026,5.1278,5.1959,5.2905,5.4694,5.5321,5.5727,5.5956,5.7803,5.8953,5.9022,5.8762,5.9348,6.0962,6.0731,6.141,6.3129,6.3094,6.3242,6.365,6.4831,6.5319,6.5135,6.6018,6.6171,6.571,6.5495,6.5157,6.4709,6.4453,6.3951,6.3138,6.1657,6.1578,6.2239,6.1792,6.1787,6.2016,0.0,0.0,2.3531,2.3599,2.361,2.3819,2.4509,2.5728,2.7506,3.0103,3.3417,3.6498,3.9062,4.1214,4.3,4.4217,4.5005,4.4058,4.0756,4.1124,4.0047,3.6784,3.9787,4.3678,4.8218,4.9048,5.0684,5.3258,5.3922,5.494,5.6222,5.6222,5.6222,5.6192,5.5551,5.488,5.4179,5.2845,5.1546,4.9968,4.6061,4.3698,4.2191,0.0,0.0,0.0,0.0,0.0,0.0,0.0,0.0,0.0,0.0,0.0,0.0,0.0,0.0,0.0,0.0,0.0,0.0,0.0,0.0,0.0,0.0,0.0,0.0,0.0,0.0,0.0,0.0,0.0,0.0,0.0,0.0,0.0,4.5705,4.9439,5.2667,5.4089,5.4609,5.565,5.7727,5.7491,5.7025,5.6471,5.8173,5.9008,5.8451,5.8412,5.8988,6.0272,6.0301,6.1108,6.2718,6.3386,6.4353,6.5585,6.6547,6.7174,6.7503,6.7802,6.7254,6.6026,6.67,6.6221,6.5054,6.5697,6.634,6.6702,6.4381,6.379,6.4192,6.3602,6.3589,6.3654,2.3604,2.3593,2.3583,2.3604,2.361,2.3819,2.4509,2.5728,2.7207,2.8906,3.3275,3.6665,3.7815,4.1863,4.4656,4.4975,4.6961,4.7001,4.4137,4.3658,4.2462,4.0146,4.321,4.6232,4.8989,5.1073,5.2959,5.4653,5.5311,5.606,5.6838,5.6838,5.6838,5.6838,5.6658,5.6239,5.5581,5.4743,5.3892,5.2833,4.98,4.7527,4.5764,0.0,0.0,0.0,0.0,0.0,0.0,0.0,0.0,0.0,0.0,0.0,0.0,0.0,0.0,0.0,0.0,0.0,0.0,0.0,0.0,0.0,0.0,0.0,0.0,0.0,0.0,0.0,0.0,0.0,0.0,0.0,4.8846,5.1067,5.1334,5.2094,5.3368,5.5461,5.5815,5.6505,5.8048,5.8247,5.8592,5.9369,6.0133,6.0731,6.1057,6.0597,6.1134,6.2892,6.2967,6.3875,6.5771,6.5965,6.6503,6.7294,6.7088,6.7043,6.7145,6.7237,6.6819,6.5996,6.6176,6.5787,6.5024,6.5203,6.5383,6.5518,6.5081,6.5302,6.5828,6.5457,6.5083,6.4558,2.361,2.3693,2.3776,2.3637,2.3939,2.4404,2.4932,2.6387,2.8105,2.9983,3.436,3.7652,3.8571,4.2871,4.5713,4.5713,4.7649,4.7739,4.5065,4.4516,4.4796,4.5883,4.8027,5.0133,5.2163,5.4204,5.5628,5.6393,5.7077,5.7586,5.7932,5.7932,5.7782,5.75,5.75,5.7154,5.6551,5.6149,5.5641,5.488,5.3042,5.0769,4.8375,4.707,4.5075,4.299,4.2711,4.1943,4.0907,4.013,0.0,0.0,0.0,0.0,0.0,0.0,0.0,0.0,0.0,0.0,0.0,0.0,0.0,0.0,0.0,0.0,0.0,0.0,0.0,0.0,0.0,0.0,0.0,0.0,5.1557,5.4356,5.644,5.5752,5.5542,5.6901,5.7304,5.7897,5.8949,5.9444,6.0136,6.1165,6.1888,6.248,6.2869,6.2795,6.3124,6.3977,6.4545,6.5413,6.658,6.7418,6.8016,6.8421,6.8555,6.8511,6.8271,6.8525,6.8136,6.7298,6.7837,6.7522,6.6714,6.6983,6.7073,6.6953,0.0,0.0,0.0,0.0,6.5145,6.4579,2.3693,2.3899,2.3968,2.3712,2.4433,2.5185,2.565,2.735,2.9558,3.225,3.5998,3.8939,4.0367,4.4037,4.648,4.6629,4.7728,4.738,4.4905,4.4696,4.6909,5.1977,5.2977,5.4354,5.6372,5.7603,5.8205,5.8205,5.8966,5.9338,5.9338,5.9338,5.9056,5.8547,5.8474,5.8068,5.7423,5.7363,5.6958,5.6342,5.5611,5.3431,5.0506,4.9224,4.7619,4.5992,4.5414,4.4745,4.4167,4.4017,0.0,0.0,0.0,0.0,0.0,0.0,0.0,0.0,0.0,0.0,0.0,0.0,0.0,0.0,0.0,0.0,0.0,0.0,0.0,0.0,0.0,0.0,0.0,0.0,5.3918,5.6453,6.0432,5.9714,5.8683,5.8444,5.9026,5.9697,6.037,6.1044,6.1718,6.2391,6.3468,6.4156,6.4216,6.471,0.0,0.0,0.0,6.6056,6.6221,6.8136,6.9183,6.9333,7.056,7.0859,7.0336,7.0889,7.047,6.9393,7.053,7.029,6.9153,6.9828,7.0097,6.9766,6.6409,6.5232,6.5383,6.5023,6.4737,6.4524,2.4405,2.4031,2.3771,2.3978,2.4404,2.5079,2.6225,2.7649,2.9744,3.2886,3.6276,3.9119,4.1014,4.4736,4.7549,4.8618,4.8947,4.8648,4.7589,4.701,4.8356,5.2037,5.3875,5.5718,5.7679,5.8487,5.8906,5.8906,6.0103,6.0701,6.0701,6.0701,6.094,6.1313,6.0761,6.0146,5.9472,5.8949,5.8338,5.762,5.6479,5.4982,5.3282,5.1947,5.1199,5.084,5.072,5.023,4.9512,4.8487,4.735,4.6352,4.6352,4.4585,0.0,0.0,0.0,0.0,0.0,0.0,0.0,0.0,0.0,0.0,0.0,0.0,0.0,0.0,0.0,0.0,0.0,0.0,0.0,5.535,5.8308,6.0505,6.034,6.1762,6.2271,6.0701,6.1104,6.1762,6.2435,6.3093,6.3737,6.4381,6.4665,6.5039,6.5577,6.5218,6.5188,6.5592,6.5847,6.652,6.7583,6.9079,7.0336,7.1354,7.2146,0.0,7.2339,7.2458,7.2086,7.1354,7.1593,7.0995,6.9858,7.047,7.0739,7.056,6.8821,6.8179,6.809,6.6937,6.6832,6.7084,2.4775,2.4451,2.4104,2.4104,2.4777,2.5511,2.6027,2.7805,2.9698,3.1337,3.4989,3.7952,3.9269,4.2651,4.5374,4.6691,4.741,4.8356,4.9673,4.9763,5.1379,5.4987,5.6137,5.7261,5.8577,5.8949,5.9428,6.0103,6.0761,6.1419,6.2091,6.1762,6.1792,6.2061,6.1389,6.091,6.0565,6.0236,5.9714,5.9039,5.8394,5.7334,5.5974,5.4341,5.3473,5.3204,5.3204,5.2785,5.2097,5.1462,5.1031,5.0739,5.0739,4.9363,4.7448,0.0,0.0,0.0,0.0,0.0,0.0,0.0,0.0,0.0,0.0,0.0,0.0,0.0,0.0,5.2713,5.2713,0.0,5.7347,5.8048,6.037,6.2331,6.2959,6.4186,6.4276,6.2331,6.2959,6.3693,6.4006,6.4635,6.5129,6.5488,6.5817,6.6161,6.649,6.6176,6.5996,6.5996,6.664,6.7313,6.7987,6.9618,7.0935,7.1923,7.2595,7.2907,7.2907,7.2907,7.2727,7.2385,7.2385,7.2026,7.1457,7.1398,7.1188,7.0829,7.0201,6.9961,6.9871,6.9183,6.9153,6.9349,2.4919,2.4775,2.4482,2.4162,2.5149,2.5946,2.5805,2.7955,2.9794,3.0303,3.3829,3.6686,3.7695,4.0325,4.2541,4.3808,4.5503,4.7747,5.0649,5.1828,5.4042,5.7726,5.8158,5.8547,5.9099,5.9219,5.9803,6.091,6.118,6.1912,6.3108,6.2555,6.2375,6.245,6.1792,6.1493,6.1493,6.1359,6.0984,6.0459,6.007,5.9249,5.8098,5.6256,5.5239,5.4748,5.4748,5.4413,5.3977,5.3977,5.4234,5.461,5.473,5.3862,5.2217,4.9314,4.8626,0.0,0.0,0.0,0.0,0.0,0.0,0.0,0.0,5.0559,5.2013,5.2294,5.4251,5.5897,5.5777,5.7334,5.9159,6.0775,6.2195,6.3797,6.5892,6.6415,6.5892,6.4081,6.4874,6.5577,6.5577,6.6176,6.6565,6.6565,6.7089,6.7403,6.7403,6.7523,6.7328,6.6789,6.7942,6.863,6.8766,7.044,7.1637,7.2312,7.2984,7.3283,7.3283,7.3283,7.3283,7.3266,7.2997,7.2967,7.3027,7.2252,7.1653,7.1308,7.1308,7.1368,7.1427,7.1038,7.0889,7.0889,2.4771,2.4645,2.4482,2.4162,2.4969,2.5835,2.6405,2.8267,3.0446,3.2744,3.4562,3.6528,3.8913,4.0029,4.1154,4.2491,4.5434,4.7848,4.9396,5.1761,5.4324,5.7094,5.8351,5.9026,5.9099,5.9668,6.007,6.022,6.1403,6.2375,6.3108,6.3003,6.3273,6.3767,6.3153,6.2884,6.2824,6.2255,6.1942,6.1702,5.9937,5.9129,5.8816,5.7423,5.6838,5.6778,5.6778,5.6735,5.6658,5.6658,5.6359,5.6072,5.6598,5.591,5.4563,5.3007,5.1738,5.014,4.67,4.5204,4.5055,4.685,4.9093,5.1038,0.0,5.5059,5.7782,5.6675,5.9472,6.1926,6.1313,6.2795,6.4187,6.4426,6.5592,6.655,6.6849,6.7897,6.8136,6.6745,6.7224,6.7643,6.7643,6.8256,6.8675,6.8675,6.8734,6.8764,6.8764,6.9349,6.9602,6.9467,7.0201,7.0859,7.1474,7.2265,7.2997,7.3672,7.4347,7.4676,7.4676,7.4676,7.4676,7.4616,7.3432,7.3253,7.3702,7.2432,7.2206,7.2668,7.2668,7.3043,7.3343,7.1547,7.0889,7.0889,2.4671,2.4615,2.4575,2.4408,2.5066,2.5818,2.6488,2.8327,2.9997,3.1105,3.2706,3.4464,3.6327,3.7823,3.92,4.0546,4.298,4.5654,4.8528,5.1181,5.3964,5.6987,5.8008,5.8697,5.9099,5.9368,5.9742,6.0138,6.1457,6.2428,6.309,6.3105,6.343,6.3962,6.297,6.2716,6.3063,6.2794,6.2465,6.2032,6.1194,6.0386,5.9621,5.9053,5.859,5.8022,5.6107,5.5418,0.0,5.5418,5.576,5.6372,5.7363,5.6795,5.5521,5.4162,5.2845,5.1636,5.1068,5.0499,5.0529,5.2516,5.4418,5.6064,5.7141,5.9189,6.0894,6.1074,6.3079,6.4695,6.4425,6.5039,6.5847,6.661,6.6894,6.7284,6.8046,6.8645,6.8794,6.8226,6.8062,6.7688,6.6909,6.7448,6.7657,6.7298,6.8345,6.9004,6.9004,6.9961,7.05,7.0484,7.1128,7.1787,7.2475,7.3163,7.3612,7.3881,7.418,7.4317,7.4347,7.4706,7.5305,7.5929,7.5031,7.5001,7.551,7.4599,7.4599,7.5181,7.5181,7.533,7.533,7.3373,7.2894,7.324,2.4771,2.4892,2.5056,2.5169,2.5741,2.6282,2.6555,2.8237,2.9502,2.9598,3.0971,3.2527,3.4076,3.5976,3.7605,3.8763,4.1044,4.3928,4.7519,5.0223,5.3177,5.6436,5.7428,5.819,5.8816,5.9009,5.938,5.9919,6.0847,6.1634,6.2293,6.2293,6.2616,6.3154,6.2244,6.2079,6.2555,6.2555,6.2285,6.1822,6.1613,6.0968,6.007,5.9877,5.9202,5.7992,5.5598,5.476,5.467,5.4102,5.4952,5.6252,5.6645,5.6509,5.5953,5.4581,5.3264,5.2486,5.382,5.394,5.4299,5.6974,5.8381,5.9548,6.1253,6.2151,6.2899,6.3797,6.5203,6.6281,6.6281,6.658,6.7148,6.8122,6.7882,6.7897,6.8854,6.9004,6.8854,6.8495,6.8032,6.7194,6.5847,6.6999,6.7643,6.7148,6.8944,6.9991,6.9812,7.0859,7.1457,7.1457,7.2086,7.2684,7.3176,7.4031,7.445,7.445,7.4629,7.4719,7.4719,7.5198,7.5946,7.6766,7.6168,7.6138,7.6497,7.5886,7.5886,7.6288,7.6288,7.6377,7.6377,7.4988,7.4869,7.5407,2.514,2.5669,2.6239,2.6592,2.7192,2.7394,2.6699,2.8042,2.9229,2.9542,3.017,3.133,3.3313,3.5318,3.6784,3.7396,4.0475,4.3529,4.6181,4.8944,5.1882,5.5107,5.6595,5.7563,5.8102,5.8756,5.9142,5.9225,5.9283,5.9623,6.0273,6.0273,6.0616,6.118,6.1166,6.1136,6.115,6.115,6.115,6.106,6.0416,6.013,6.004,5.9368,5.7945,5.6282,5.6162,5.6132,5.5833,5.3887,5.4546,5.5863,5.3947,5.4665,5.5953,5.4581,5.3264,5.2486,5.382,5.3264,5.3354,5.7902,5.9069,5.9787,6.2435,6.3512,6.3947,6.3977,6.5562,6.6969,6.6969,6.8016,6.8914,6.8974,6.8944,6.8944,6.9004,6.9004,6.8525,6.7224,6.7029,6.649,6.5144,6.7986,6.9887,6.9887,7.1667,7.2505,7.1863,7.2475,7.2847,7.2847,7.3492,7.3851,7.3881,7.5198,7.5856,7.5856,7.6437,7.6706,7.6706,7.6719,7.6749,7.6766,7.6168,7.5916,7.5886,7.5215,7.4946,7.4946,7.4946,7.5347,7.5916,7.5856,7.6228,7.6719,2.5772,2.6017,2.645,2.723,2.7965,2.8265,2.7734,2.849,2.906,2.8959,2.9864,0.0,0.0,0.0,0.0,0.0,3.8051,4.0274,4.3119,4.6144,4.9419,5.306,5.4635,5.5894,5.6884,5.7576,5.7514,5.676,5.8797,5.9496,5.8968,5.9749,6.0483,6.1076,6.0639,6.0681,6.109,6.109,6.0821,6.0416,6.019,5.9817,5.9219,5.7244,5.6119,5.5192,0.0,5.1869,5.2115,5.1445,5.1965,5.2935,5.3126,5.3366,5.3264,5.1953,5.2504,5.3623,5.4089,5.5466,5.7363,5.9803,6.1403,6.281,6.4605,6.5173,6.5443,6.5892,6.6161,6.646,6.6924,6.6999,6.7448,6.8794,6.7897,6.7478,6.8824,6.7462,6.6654,6.7553,6.6894,6.6486,6.6884,6.7586,6.8002,6.8002,7.0231,7.1487,7.1248,7.2279,7.3086,7.3552,7.3791,7.433,7.5228,7.5677,7.5916,7.5916,7.6125,7.6407,7.6826,7.7275,7.7711,7.81,7.7442,7.7412,7.7771,7.7083,7.7083,7.749,7.749,7.7639,7.7801,7.7801,7.7951,7.8011,2.6273,2.6791,2.7337,2.7967,2.8709,0.0,0.0,0.0,0.0,0.0,0.0,0.0,0.0,0.0,0.0,0.0,0.0,3.8451,4.0956,4.3384,4.6262,4.9725,5.1314,5.2483,5.3313,5.4858,5.5156,5.4192,5.7015,5.8026,5.7287,5.8491,5.9402,6.0029,5.9836,5.9981,6.0372,6.0372,6.0266,6.001,5.8813,5.8245,5.7766,5.488,5.3324,0.0,4.9845,4.8716,4.8514,4.8992,4.992,5.0877,5.105,5.1259,5.1696,5.2719,5.3748,5.491,5.6585,5.8397,6.0282,6.2346,6.3797,6.4994,6.6101,6.6729,6.7208,6.7627,6.7926,6.7956,6.7463,6.7388,6.7687,6.8511,6.7553,6.7161,6.8449,6.7353,6.6531,6.6854,6.6811,6.6838,6.7131,6.7261,6.7314,6.7314,6.9773,7.1248,7.1248,7.2086,7.2837,7.3508,7.3985,7.454,7.5098,7.6076,7.6694,7.6933,7.6933,7.7143,7.7514,7.7981,7.813,7.81,7.813,7.813,7.81,7.813,7.84,7.8807,7.8807,7.8807,7.8807,7.8807,7.8807,7.8687,2.6787,2.7888,2.88,0.0,0.0,0.0,0.0,0.0,0.0,0.0,0.0,0.0,0.0,0.0,0.0,0.0,0.0,0.0,3.9578,4.0783,4.2654,4.5379,4.6894,4.7724,4.7847,5.0867,5.2149,5.1543,5.3953,5.5151,5.5225,5.6406,5.7266,5.7876,5.8517,5.88,5.88,5.88,5.9129,5.9412,5.6299,5.5371,5.5534,5.2205,4.9781,4.8188,4.8068,4.6841,4.5454,4.68,4.8574,4.9968,4.8286,4.9052,5.1523,5.653,5.6842,5.6509,6.0805,6.1658,6.2107,6.5218,6.6056,6.6281,6.6924,6.8046,6.8944,6.8854,7.026,7.0726,6.8227,6.872,6.9199,6.8137,6.7807,6.7737,6.7859,6.8363,6.7793,6.525,6.6707,6.739,6.6028,6.7159,6.7945,6.7896,7.0311,7.1778,7.1778,7.187,7.2228,7.2835,7.4158,7.4567,7.3931,7.6533,7.816,7.8807,7.8807,7.8807,7.8807,7.8807,7.81,7.6958,7.825,7.8071,7.7006,7.828,7.8807,7.8807,7.8807,7.8807,7.8807,7.8807,7.8807,7.8807,0.0,0.0,0.0,0.0,0.0,0.0,0.0,0.0,0.0,0.0,0.0,0.0,0.0,0.0,0.0,0.0,0.0,0.0,3.6877,3.9296,4.1324,4.2739,4.466,4.578,4.5913,4.7788,4.8562,4.8158,5.0405,5.1807,5.2365,5.3129,5.3804,5.4473,5.4623,5.4713,5.4713,5.4713,5.4503,5.4132,5.3294,5.2474,5.1415,4.8633,4.7228,4.661,4.5104,4.4566,4.4755,4.6091,4.8514,5.1295,5.3306,5.4593,5.5508,5.6419,5.8424,6.04,6.0549,6.263,6.4949,6.5787,6.6759,6.7523,6.7718,6.8002,6.7972,6.6969,6.637,6.5652,6.4575,6.3797,6.4216,6.6835,6.5171,6.4391,6.6883,6.6048,6.5317,6.5609,6.6491,6.713,6.7218,6.8038,6.8339,6.7703,6.9278,7.0273,7.0273,7.1676,7.2813,7.3449,7.432,7.54,7.6723,7.7951,7.8627,7.8807,7.8807,7.8807,7.8807,7.8807,7.8609,7.831,7.8639,7.8627,7.831,7.8639,7.8807,7.8807,7.8807,7.8807,7.8807,7.8807,7.8807,7.8807,0.0,0.0,0.0,0.0,0.0,0.0,0.0,0.0,0.0,0.0,0.0,0.0,0.0,0.0,0.0,0.0,0.0,0.0,0.0,3.7654,3.9097,3.9985,4.1437,4.2341,4.2516,4.4229,4.51,4.5109,4.7231,4.8566,4.9157,5.0066,5.0702,5.1061,5.1372,5.1492,5.1492,5.1492,5.142,0.0,0.0,4.8884,4.8174,4.5264,4.4317,4.4436,4.3299,4.3688,4.5204,4.8297,5.017,5.2055,5.6825,5.7796,5.7616,6.019,6.1477,6.2241,6.2944,6.4545,6.6131,6.6729,6.7433,6.7776,6.6929,6.7158,6.7027,6.5112,6.4562,6.3978,6.2522,6.1899,6.2481,6.5249,6.4099,6.3717,6.618,6.599,6.5434,6.5036,6.6314,6.7233,6.7214,6.8125,6.8372,6.7592,6.8613,6.9618,7.046,7.1569,7.259,7.3511,7.483,7.6229,7.7699,7.7728,7.7905,7.8282,7.8282,7.8463,7.8807,7.8807,7.846,7.7951,7.8549,7.846,7.7981,7.8549,7.8807,7.8807,7.8807,7.8807,7.8807,7.8807,7.8807,7.8807,0.0,0.0,0.0,0.0,0.0,0.0,0.0,0.0,0.0,3.0885,3.0754,3.0897,0.0,0.0,0.0,0.0,0.0,0.0,0.0,0.0,3.6713,3.752,3.8123,3.8567,3.8832,4.0731,4.194,4.2396,4.4189,4.5343,4.5891,4.7013,4.751,4.7529,4.812,4.833,4.827,4.836,4.8637,4.8772,4.6022,4.5155,4.5194,0.0,4.1673,4.2291,4.2461,4.3758,4.6202,5.1331,5.2456,5.2863,5.9415,6.0013,5.9368,6.4859,6.4769,6.3452,6.6041,6.649,6.6535,6.7714,6.8059,6.7681,6.5969,6.6117,6.5947,6.3577,6.3639,6.352,6.1541,6.1601,6.2423,6.3886,6.3917,6.4082,6.5113,6.6437,6.6373,6.3964,6.5958,6.7299,6.6774,6.7766,6.8297,6.7895,6.8582,6.9696,7.1238,7.1691,7.2381,7.3507,7.5512,7.6784,7.7291,7.6685,7.6741,7.7457,7.7549,7.7971,7.8644,7.8753,7.816,7.7125,7.831,7.813,7.7155,7.831,7.8747,7.8687,7.8687,7.8609,7.8549,7.8639,7.8687,7.8687,0.0,0.0,0.0,0.0,0.0,0.0,0.0,0.0,0.0,0.0,3.2004,3.1578,0.0,0.0,0.0,0.0,0.0,0.0,0.0,0.0,0.0,3.621,3.6799,3.7259,3.7517,3.8535,3.9469,4.0323,4.1004,4.1929,4.3101,4.3319,4.3419,4.3429,4.3549,4.3299,4.282,4.3359,4.3329,4.292,4.291,4.2301,4.1354,4.0786,0.0,0.0,4.2781,4.4416,4.6779,5.096,5.3324,5.5568,6.1613,6.3947,6.4366,6.3901,6.5293,6.6745,6.5637,6.649,6.7682,6.7857,6.8367,6.8701,6.8185,6.6312,6.4359,6.3243,6.1158,5.9873,6.0936,6.0761,6.143,6.436,6.3417,6.226,6.2044,6.3435,6.4126,6.3184,6.4838,6.6413,6.7259,6.7544,6.8266,6.9714,7.0413,7.0702,7.0522,7.2616,7.4143,7.4849,7.5891,7.6176,7.563,7.6141,7.6479,7.661,7.7291,7.7678,7.7825,7.8499,7.8669,7.846,7.8699,7.8687,7.846,7.8699,7.846,7.7981,7.7981,7.7634,7.7215,7.7753,7.7981,7.8041,0.0,0.0,0.0,0.0,0.0,0.0,0.0,3.3623,3.3616,3.3938,3.3435,3.3058,3.3028,3.3305,3.3492,0.0,0.0,0.0,0.0,0.0,0.0,0.0,3.631,3.6847,3.7284,3.749,3.7875,3.8555,0.0,3.8972,3.9807,3.9807,3.9807,3.9807,3.9807,3.9628,3.9358,3.9658,3.9598,3.9388,4.0056,3.9936,3.9418,3.9738,0.0,0.0,4.2831,4.4386,4.6281,4.9595,5.1989,5.485,6.1822,6.4934,6.5757,6.4455,6.5937,6.7553,6.5547,6.6454,6.7939,6.7913,6.8141,6.7747,6.5331,6.3649,6.1728,5.8725,5.6917,5.613,5.7038,5.7197,5.8346,6.1866,6.1917,6.1892,6.292,6.433,6.4909,6.3982,6.5235,6.6275,6.6539,6.7129,6.8028,6.9283,7.0482,7.1353,7.1737,7.3272,7.4467,7.5192,7.5154,7.5154,7.5211,7.5154,7.5345,7.5782,7.6179,7.6573,7.6983,7.7372,7.7538,7.7538,7.7538,7.7192,7.6657,7.7363,7.711,7.6302,7.7014,7.7305,7.7365,7.7664,7.8041,7.837,0.0,0.0,0.0,0.0,0.0,0.0,3.481,3.4578,3.4385,3.4773,3.475,3.4518,3.4001,3.3791,3.3702,0.0,0.0,0.0,0.0,0.0,0.0,0.0,0.0,0.0,0.0,0.0,0.0,3.7396,3.7077,0.0,0.0,0.0,0.0,0.0,3.7225,3.7135,3.7007,3.7165,3.7285,0.0,0.0,3.849,3.8691,0.0,0.0,0.0,0.0,4.4237,4.5873,4.8289,5.0463,5.3414,6.0326,6.3647,6.4889,6.4651,6.5889,6.7082,6.575,6.6503,6.7679,6.7663,6.7628,6.6553,6.2482,6.1002,5.9273,5.4896,5.3442,5.3171,5.3871,5.44,5.5991,5.987,6.0734,6.1706,6.4055,6.532,6.5713,6.4887,6.5854,6.6567,6.65,6.7354,6.8337,6.9395,7.0922,7.2224,7.3254,7.3741,7.4305,7.4905,7.4344,7.4305,7.4924,7.4324,7.4324,7.4943,7.5116,7.5535,7.616,7.6311,7.6404,7.6404,7.6428,7.5822,7.4912,7.6301,7.6153,7.5176,7.6495,7.7245,7.7604,7.7753,7.813,7.8609,0.0,0.0,0.0,0.0,0.0,0.0,3.5461,3.5674,3.5829,3.6153,3.5749,3.5391,3.5332,3.4787,3.4406,0.0,0.0,0.0,0.0,0.0,0.0,0.0,0.0,0.0,0.0,0.0,0.0,3.7396,3.7362,0.0,0.0,0.0,0.0,0.0,0.0,3.6246,3.5721,3.6327,0.0,0.0,0.0,0.0,0.0,0.0,0.0,0.0,0.0,4.4555,4.642,4.7919,5.0103,5.2845,5.6555,5.9488,6.1784,6.2839,6.4181,6.5489,6.6455,6.6856,6.6995,6.6924,6.6932,6.6236,6.3395,6.062,5.8022,5.5771,5.3106,5.2006,5.481,5.5372,5.682,6.1144,6.0903,6.0859,6.2813,6.3645,6.4252,6.4746,6.5854,6.7259,6.8917,6.9152,7.0192,7.2496,7.3348,7.3797,7.3909,7.3966,7.4033,7.4111,7.4033,7.4033,7.4111,7.4033,7.4033,7.413,7.4828,7.5249,7.5345,7.6066,7.6404,7.6413,7.6524,7.6169,7.5605,7.7104,7.6947,7.5949,7.7197,7.7365,7.6976,7.7574,7.7861,7.7981,0.0,0.0,0.0,0.0,0.0,0.0,3.6142,3.6073,3.6172,3.691,3.614,3.5511,3.5511,3.525,3.4779,3.3979,0.0,0.0,0.0,0.0,0.0,0.0,0.0,0.0,0.0,0.0,3.6028,3.6259,3.6259,0.0,0.0,0.0,0.0,0.0,0.0,3.5759,3.5519,3.5789,0.0,0.0,0.0,0.0,0.0,0.0,0.0,0.0,0.0,0.0,4.5234,4.6172,4.7728,4.9613,5.172,5.3935,5.6319,5.9291,6.2175,6.4086,6.2699,6.4246,6.6062,6.5247,6.5607,6.5128,6.1047,5.9182,5.7258,5.3515,5.1477,5.083,5.2447,5.3332,5.4878,5.8094,5.9161,6.0734,6.4122,6.5106,6.6005,6.7399,6.799,6.8439,6.8805,6.9198,7.0294,7.2383,7.2411,7.2814,7.3937,7.3994,7.3994,7.3994,7.3994,7.3994,7.3994,7.3994,7.3994,7.3994,7.4315,7.447,7.449,7.4818,7.4772,7.444,7.5369,7.454,7.2778,7.5818,7.5875,7.4253,7.6369,7.7275,7.7424,7.7694,7.8071,7.843,0.0,0.0,0.0,0.0,0.0,3.5792,3.6568,3.6395,3.6487,3.7276,3.629,3.5511,3.5511,3.5511,3.4951,3.3612,3.3492,0.0,0.0,0.0,0.0,0.0,0.0,0.0,0.0,0.0,3.5878,3.605,3.605,3.605,0.0,0.0,3.5789,3.5789,0.0,0.0,0.0,0.0,0.0,0.0,0.0,0.0,0.0,0.0,0.0,0.0,0.0,0.0,0.0,0.0,0.0,4.7249,4.8577,4.9832,5.1637,5.5666,5.9532,6.2066,6.0067,6.22,6.478,6.4053,6.3956,6.2942,5.8699,5.7322,5.5664,5.1253,5.0002,4.9889,5.0521,5.1632,5.336,5.6212,5.8418,6.0975,6.4375,6.5713,6.6894,6.8393,6.8731,6.9058,6.9536,7.0154,7.1035,7.2355,7.1878,7.214,7.3657,7.3713,7.3825,7.3994,7.3994,7.3994,7.3994,7.3994,7.3994,7.3994,7.3994,7.3797,7.346,7.3825,7.3572,7.2899,7.4108,7.339,7.1636,7.4756,7.5112,7.3942,7.6214,7.7394,7.7813,7.8041,7.828,7.8519,0.0,0.0,0.0,0.0,0.0,0.0,3.6666,3.6816,3.6995,3.7346,3.629,3.5511,3.5511,3.5511,3.4951,3.3612,3.3492,0.0,0.0,0.0,0.0,0.0,0.0,0.0,0.0,0.0,3.6784,3.7366,3.7366,3.7366,3.7366,3.6784,3.6493,3.6455,0.0,0.0,0.0,0.0,0.0,0.0,0.0,0.0,0.0,0.0,0.0,0.0,0.0,0.0,0.0,0.0,0.0,0.0,0.0,4.8008,4.8415,5.23,5.6091,5.9213,5.9911,6.1465,6.3066,6.3661,6.1959,5.9511,5.6998,5.5018,5.284,4.9681,4.9022,4.9217,4.9887,5.0999,5.3037,5.6775,5.9473,6.1509,6.274,6.4544,6.5938,6.6556,6.7157,6.8731,7.1868,7.2721,7.3086,7.3086,7.2524,7.244,7.3086,7.3114,7.3395,7.3966,7.3994,7.3994,7.3994,7.3994,7.3994,7.3994,7.3994,7.3367,7.2262,7.346,7.3339,7.2244,7.3008,7.3371,7.3531,7.4385,7.5163,7.5988,7.7293,7.7783,7.7891,7.8549,7.837,7.7921,0.0,0.0,0.0,0.0,0.0,0.0,3.6444,3.6377,3.6442,3.7098,3.6203,3.5511,3.5511,3.5078,3.4458,3.3582,3.3492,0.0,0.0,0.0,0.0,0.0,0.0,0.0,0.0,0.0,3.6784,3.7396,3.7396,3.7396,3.7396,3.7186,3.6904,3.6493,3.6276,3.6186,0.0,0.0,0.0,0.0,0.0,0.0,0.0,0.0,0.0,0.0,0.0,0.0,0.0,0.0,0.0,0.0,0.0,0.0,0.0,4.8644,5.1328,5.4064,5.4346,5.6099,5.78,5.7575,5.7547,5.6914,5.4442,5.3445,5.2264,4.9569,4.8657,4.8711,4.979,5.0999,5.3037,5.6775,5.9486,6.2268,6.5566,6.6567,6.7635,6.9527,7.0332,7.0922,7.1465,7.169,7.1971,7.244,7.1484,7.154,7.303,7.3114,7.3395,7.3966,7.3994,7.3994,7.3994,7.3994,7.3994,7.3994,7.3994,7.3367,7.2262,7.3432,7.3095,7.1606,7.3255,7.3237,7.2203,7.3922,7.4245,7.3797,7.5094,7.6212,7.706,7.7285,7.7226,7.7078,0.0,0.0,0.0,0.0,0.0,0.0,3.6059,3.5804,3.5841,3.6705,3.5584,3.4831,3.5108,3.4518,3.3851,3.3185,3.3118,0.0,0.0,0.0,0.0,0.0,0.0,0.0,0.0,3.6844,3.7285,3.8135,3.8135,3.8135,3.8135,3.7913,3.7593,3.7212,3.6964,3.6844,0.0,0.0,0.0,0.0,0.0,0.0,3.9481,0.0,0.0,0.0,0.0,0.0,0.0,0.0,0.0,0.0,0.0,0.0,0.0,0.0,4.7784,4.9599,5.1051,5.3262,5.5102,5.4962,5.4793,5.4259,5.2714,5.1801,5.0805,4.9035,4.912,4.9595,4.9943,5.1758,5.381,5.5707,5.9642,6.2998,6.4499,6.61,6.7663,6.8983,7.0529,7.1512,7.1569,7.1353,7.1465,7.215,7.1231,7.1372,7.303,7.3114,7.3395,7.3966,7.3994,7.3994,7.3994,7.3994,7.3994,7.3994,7.3994,7.3367,7.2262,7.3432,7.3123,7.1644,7.2953,7.2969,0.0,7.3076,7.3527,7.3716,7.4351,7.54,7.6593,7.6582,7.6436,7.6242,0.0,0.0,0.0,0.0,0.0,0.0,0.0,3.5131,3.5144,3.6019,3.4613,3.3732,3.4376,3.3829,3.3185,3.2542,0.0,0.0,0.0,0.0,0.0,0.0,0.0,0.0,3.7336,3.7456,3.8144,3.9481,3.9481,3.9511,3.9541,3.8901,3.855,3.8431,3.7823,3.7516,0.0,0.0,0.0,0.0,3.8721,3.8832,0.0,0.0,0.0,0.0,0.0,0.0,0.0,0.0,0.0,0.0,0.0,0.0,0.0,0.0,0.0,0.0,0.0,5.225,5.4218,5.4821,5.3248,5.1547,5.1547,5.02,0.0,4.8502,5.0256,5.1547,5.0577,5.3318,5.5383,5.4232,6.0051,6.3718,6.0762,6.401,6.6444,6.5826,6.8534,7.0838,7.1897,7.1569,7.1493,7.2074,7.1597,7.1803,7.303,7.3142,7.3423,7.3966,7.3994,7.3994,7.3994,7.3994,7.3966,7.3881,7.3966,7.3339,7.2102,7.3423,7.3339,7.2206,7.2262,7.2651,7.3195,7.2033,7.2989,7.5108,7.4566,7.5106,7.6244,7.6253,7.5876,7.5404,0.0,0.0,0.0,0.0,0.0,0.0,0.0,0.0,0.0,0.0,3.4016,3.3552,3.3709,3.3155,3.2662,0.0,0.0,0.0,0.0,0.0,0.0,0.0,0.0,0.0,3.7366,3.7913,3.8811,4.0148,4.0148,4.0427,4.0915,4.0775,4.0137,3.9161,3.9002,3.8661,0.0,0.0,0.0,0.0,3.9242,3.9251,0.0,0.0,0.0,0.0,4.1592,4.2342,0.0,0.0,0.0,0.0,0.0,0.0,0.0,0.0,4.4578,4.4891,4.6239,0.0,4.9076,4.9694,4.9413,4.8964,0.0,4.8642,4.8951,5.1155,5.2096,5.2826,5.3978,5.6479,5.8109,5.7322,6.1031,6.3774,6.3026,6.5443,6.7073,6.6472,6.9545,7.1306,7.0182,7.1203,7.1821,7.1465,7.1765,7.2299,7.3058,7.3544,7.3853,7.3994,7.3994,7.3994,7.3994,7.3994,7.3544,7.2636,7.3544,7.2842,7.0838,7.301,7.3339,7.2234,7.2692,7.3004,7.3073,7.233,7.2406,7.2925,7.2802,7.3576,7.478,7.4799,7.4694,7.4579,0.0,0.0,0.0,0.0,0.0,0.0,0.0,0.0,0.0,0.0,0.0,3.2699,3.2998,3.2452,0.0,0.0,0.0,0.0,0.0,0.0,0.0,0.0,0.0,0.0,3.7366,3.8353,3.9221,3.9939,4.0546,4.0735,4.0487,4.0795,4.0397,3.9391,3.9391,3.9191,0.0,0.0,0.0,0.0,3.9071,0.0,0.0,0.0,0.0,0.0,4.1283,4.2022,0.0,4.3001,4.3268,4.3494,0.0,0.0,0.0,0.0,4.3862,4.4188,4.5047,4.6239,4.7559,4.9033,4.8739,4.8474,4.9891,4.9344,4.94,5.2531,5.3374,5.3978,5.5271,5.7069,5.8362,5.8306,6.0694,6.3139,6.4853,6.623,6.7073,6.7016,6.8562,6.9564,6.9423,7.0557,7.1428,7.1653,7.199,7.258,7.346,7.3825,7.3994,7.3994,7.3994,7.3994,7.3994,7.3994,7.3395,7.2206,7.3423,7.301,7.1231,7.3123,7.3628,7.3002,7.2468,7.2561,7.3002,7.1821,7.199,7.3002,7.2721,7.343,7.455,7.4267,7.4153,7.4153,0.0,0.0,0.0,0.0,0.0,0.0,0.0,0.0,0.0,0.0,0.0,0.0,0.0,0.0,0.0,0.0,0.0,0.0,0.0,0.0,0.0,0.0,0.0,3.6349,3.7524,3.8763,3.9544,3.9881,4.089,4.098,4.0181,4.0542,4.0277,3.955,3.9577,3.9508,0.0,0.0,0.0,0.0,3.8781,0.0,0.0,0.0,0.0,0.0,0.0,0.0,0.0,4.2643,4.2698,4.2607,4.2077,0.0,0.0,0.0,0.0,0.0,4.4722,4.6014,4.7684,5.0268,4.9567,4.9007,5.2026,5.0874,5.0172,5.3796,5.4864,5.5454,5.6339,5.7828,5.8812,5.8502,6.016,6.2633,6.5882,6.6539,6.6932,6.7438,6.7382,6.7859,6.9264,7.0107,7.1035,7.2121,7.229,7.2833,7.3937,7.3994,7.3994,7.3994,7.3994,7.3994,7.3994,7.3994,7.3395,7.2206,7.3423,7.3367,7.2262,7.3432,7.3994,7.3909,7.2308,7.2224,7.3114,7.154,7.2083,7.3937,7.3432,7.3909,7.4845,7.4331,7.419,7.4275,0.0,0.0,0.0,0.0,0.0,0.0,0.0,0.0,0.0,0.0,0.0,0.0,0.0,0.0,0.0,0.0,0.0,0.0,0.0,0.0,0.0,0.0,0.0,0.0,3.8221,3.9011,4.0254,4.2005,4.16,4.2214,4.3688,4.2598,4.1433,4.0245,4.0308,3.9985,3.9391,3.9302,0.0,3.9391,3.9302,0.0,0.0,0.0,0.0,0.0,0.0,0.0,0.0,4.2643,4.2698,4.2556,4.1762,0.0,0.0,0.0,0.0,0.0,4.3582,4.5071,4.7163,5.0142,4.9876,4.9541,5.211,5.121,5.1477,5.7182,5.8025,5.839,6.0594,6.3729,6.4431,5.9807,6.1481,6.3774,6.4915,6.6416,6.741,6.7494,6.9274,7.0201,6.9461,7.0922,7.2009,7.2206,7.2664,7.3283,7.3966,7.3994,7.3994,7.3994,7.3994,7.3994,7.3994,7.3994,7.3395,7.2206,7.3423,7.3367,7.2262,7.3432,7.3994,7.3966,7.3713,7.3685,7.3825,7.3544,7.3657,7.3994,7.3909,7.4303,7.4873,7.4789,7.5117,7.5531,0.0,0.0,0.0,0.0,0.0,0.0,0.0,0.0,0.0,0.0,0.0,0.0,0.0,0.0,0.0,0.0,0.0,0.0,0.0,0.0,0.0,0.0,0.0,0.0,0.0,4.055,4.1767,4.1996,4.2731,4.318,4.3381,4.197,4.1418,4.1538,4.0409,3.9932,3.9968,3.9571,3.9391,3.9391,0.0,0.0,0.0,0.0,0.0,0.0,0.0,0.0,0.0,0.0,4.2313,4.2159,4.1293,0.0,0.0,0.0,0.0,0.0,4.4132,4.538,4.7431,5.2194,5.1183,5.0538,5.638,5.4218,5.3009,6.0216,5.8812,5.7575,6.1718,6.2785,6.2616,6.1409,6.4094,6.6219,6.5826,6.6764,6.7775,6.845,6.9236,6.977,6.9883,7.095,7.1962,7.2636,7.2945,7.3367,7.3966,7.3994,7.3994,7.3994,7.3994,7.3994,7.3994,7.3994,7.3395,7.2206,7.3423,7.3367,7.2262,7.3432,7.3994,7.3966,7.3311,7.3423,7.3966,7.3657,7.3909,7.4527,7.4893,7.5202,7.5398,7.5013,7.5314,7.5811,0.0,0.0,0.0,0.0,0.0,0.0,0.0,0.0,0.0,0.0,0.0,0.0,0.0,0.0,0.0,0.0,0.0,0.0,0.0,0.0,0.0,0.0,0.0,0.0,0.0,4.1888,4.2959,4.2084,4.3534,4.3722,4.2667,4.1805,4.1714,4.2217,4.062,4.0029,4.0222,3.9652,3.9391,3.9391,0.0,0.0,0.0,0.0,0.0,0.0,0.0,0.0,0.0,0.0,0.0,0.0,0.0,0.0,0.0,4.2047,4.2469,4.2947,4.4638,4.579,4.7853,5.3445,5.2026,5.1492,6.006,5.6816,5.4259,6.2155,5.957,5.7463,6.2616,6.1746,6.1043,6.3403,6.6173,6.7821,6.7147,6.755,6.8309,6.9264,6.9114,6.9339,7.0416,7.1072,7.1906,7.303,7.3226,7.3488,7.3966,7.3994,7.3994,7.3994,7.3994,7.3994,7.3994,7.3994,7.3544,7.2636,7.3544,7.3516,7.2636,7.3572,7.3994,7.3937,7.303,7.3226,7.4162,7.3713,7.4162,7.5202,7.5699,7.598,7.6064,7.5679,7.5792,7.6036,0.0,0.0,0.0,0.0,0.0,0.0,0.0,0.0,0.0,0.0,0.0,0.0,0.0,0.0,0.0,0.0,0.0,0.0,0.0,0.0,0.0,0.0,0.0,0.0,0.0,4.2137,4.2933,4.347,4.3525,4.3463,4.3271,4.3962,4.3271,4.1383,4.1364,4.0636,3.9472,3.9409,3.9391,3.9391,3.9391,0.0,0.0,0.0,0.0,0.0,0.0,0.0,0.0,0.0,0.0,0.0,0.0,0.0,4.0828,4.1463,4.2121,4.2862,4.4132,4.5761,4.8065,5.1927,5.1407,5.2039,6.016,5.7139,5.4765,6.224,6.1605,6.0903,6.4786,6.4392,6.4094,6.6005,6.6539,6.7118,6.8215,6.8889,6.9311,6.9395,6.9854,7.0416,7.1072,7.1737,7.2383,7.3058,7.36,7.3937,7.3994,7.3994,7.3994,7.3994,7.3994,7.3994,7.3994,7.3994,7.3966,7.3881,7.3966,7.3937,7.3881,7.3966,7.3994,7.3994,7.3909,7.4246,7.4817,7.4789,7.5202,7.584,7.5868,7.6261,7.6803,7.7301,7.716,7.6719,0.0,0.0,0.0,0.0,0.0,0.0,0.0,0.0,0.0,0.0,0.0,0.0,0.0,0.0,0.0,0.0,0.0,0.0,0.0,0.0,0.0,0.0,0.0,4.2364,4.2969,4.3479,4.4127,4.4959,4.5288,4.5398,4.5326,4.427,4.3677,4.3396,4.1612,4.0536,4.0056,3.9598,3.9391,3.9391,3.9391,3.9391,0.0,0.0,0.0,0.0,0.0,0.0,0.0,0.0,4.0691,4.077,4.0724,4.0688,4.0884,4.1935,4.2666,4.3509,4.5127,4.666,4.9217,5.5228,5.3894,5.3121,6.0819,5.9245,5.8193,6.5263,6.3178,6.0662,6.2492,6.4027,6.5207,6.591,6.6651,6.7326,6.7803,6.8439,6.8973,6.9367,6.9939,7.0697,7.1709,7.2046,7.2608,7.3572,7.3881,7.3994,7.3994,7.3994,7.3994,7.3994,7.3994,7.3994,7.3994,7.3994,7.3994,7.3994,7.3994,7.3994,7.3994,7.3994,7.3994,7.3994,7.3994,7.4359,7.4929,7.5342,7.5876,7.6514,7.6879,7.716,7.7329,7.7188,7.7245,7.7301,0.0,0.0,0.0,0.0,0.0,0.0,0.0,0.0,0.0,0.0,0.0,0.0,0.0,0.0,0.0,0.0,0.0,0.0,0.0,0.0,0.0,0.0,0.0,4.2912,4.4308,4.4282,4.4679,4.5615,4.628,4.6477,4.619,4.5001,4.4289,4.3937,4.2195,4.1071,4.044,3.9926,3.9729,3.969,3.9481,3.9391,0.0,0.0,0.0,0.0,0.0,0.0,0.0,0.0,4.015,4.027,4.0587,4.0828,4.1193,4.2272,4.3172,4.42,4.6083,4.7475,4.9878,5.6183,5.5187,5.4484,6.1352,6.0369,5.9783,6.6022,6.4881,6.2701,6.2577,6.442,6.5966,6.5966,6.636,6.6904,6.7719,6.8215,6.8721,6.9339,6.9939,7.081,7.2093,7.2206,7.2692,7.3909,7.3994,7.3994,7.3994,7.3994,7.3994,7.3994,7.3994,7.3994,7.3994,7.3994,7.3994,7.3994,7.3994,7.3994,7.3994,7.3994,7.3994,7.3994,7.3994,7.4471,7.5258,7.5727,7.6373,7.7132,7.7526,7.7715,7.7658,7.7245,7.7329,7.7658,0.0,0.0,0.0,0.0,0.0,0.0,0.0,0.0,0.0,0.0,0.0,0.0,0.0,0.0,0.0,0.0,0.0,0.0,3.563,3.8678,4.0488,4.0488,4.1857,4.3369,4.5033,4.4314,4.4336,4.5219,4.6141,4.6213,4.5429,4.6442,4.526,0.0,0.0,0.0,4.0397,4.0427,4.0427,4.0337,3.967,3.9421,3.9391,0.0,0.0,0.0,0.0,0.0,0.0,0.0,3.9633,3.9883,4.0491,4.1109,4.1744,4.2441,4.3469,4.4806,4.6717,4.8108,4.9906,5.3697,5.4639,5.6101,6.1633,6.006,5.8855,6.3791,6.6771,6.7905,6.6022,6.6191,6.6595,6.6595,6.5601,6.5702,6.813,6.8496,6.8721,6.9339,6.9939,7.081,7.2093,7.2206,7.2692,7.3909,7.3994,7.3994,7.3994,7.3994,7.3994,7.3994,7.3994,7.3994,7.3994,7.3994,7.3994,7.3994,7.3994,7.3994,7.3994,7.3994,7.3994,7.3994,7.3994,7.4724,7.5896,7.5924,7.6626,7.7715,7.7715,7.7715,7.7715,7.7715,7.7715,7.7715,0.0,0.0,0.0,0.0,0.0,0.0,0.0,0.0,0.0,0.0,0.0,0.0,0.0,0.0,0.0,0.0,0.0,0.0,3.6096,3.8861,4.0488,4.0488,4.1857,4.3071,4.4083,4.4973,4.5603,4.5981,4.6407,4.6739,4.6982,4.6203,0.0,4.402,0.0,0.0,0.0,0.0,4.1683,4.0397,4.0178,3.9819,3.9364,0.0,0.0,0.0,0.0,0.0,0.0,0.0,0.0,0.0,4.0389,4.1109,4.2166,4.5003,4.5143,4.5284,4.9342,5.0086,5.0817,5.5426,5.6578,5.7575,6.1409,6.2071,6.2706,6.5488,6.6669,6.6454,6.4133,6.6033,6.7371,6.5618,6.6518,6.767,6.8383,6.8861,6.9367,6.9967,7.0192,7.081,7.2093,7.2206,7.2692,7.3909,7.3994,7.3994,7.3994,7.3994,7.3994,7.3994,7.3994,7.3994,7.3994,7.3994,7.3994,7.3994,7.3994,7.3994,7.3994,7.3994,7.3994,7.3994,7.3994,7.4724,7.598,7.6823,7.7377,7.7715,7.7715,7.7715,7.7715,7.7715,7.7715,7.7715,0.0,0.0,0.0,0.0,0.0,0.0,0.0,0.0,3.4101,3.4101,3.4101,3.4101,0.0,0.0,0.0,3.4101,3.5454,0.0,3.6296,3.8674,4.0229,4.0488,4.1581,4.2706,4.3782,4.5074,4.5781,4.5969,4.668,4.6989,4.6903,4.599,0.0,4.385,0.0,4.3482,0.0,4.2541,4.2142,4.0765,4.0516,3.9999,3.9355,0.0,0.0,0.0,0.0,0.0,0.0,0.0,0.0,0.0,3.9753,4.1598,4.3722,4.4987,4.5982,4.7444,5.1154,5.1814,5.277,5.8221,5.884,5.8924,6.2015,6.3111,6.4122,6.6483,6.696,6.6595,6.5359,6.6764,6.7466,6.5543,6.685,6.8055,6.7893,6.874,6.9714,7.0538,7.0651,7.1175,7.244,7.2552,7.2973,7.3937,7.3994,7.3994,7.3994,7.3994,7.3994,7.3994,7.3994,7.3994,7.3994,7.3994,7.3994,7.3994,7.3994,7.3994,7.3994,7.3994,7.3994,7.4022,7.4527,7.5174,7.598,7.7209,7.7715,7.7715,7.7715,7.7715,7.7715,7.7715,7.7715,7.7715,0.0,0.0,0.0,0.0,0.0,0.0,0.0,3.4101,3.4101,3.4101,3.4101,3.4101,0.0,0.0,0.0,3.4198,3.5493,3.6328,3.6393,3.835,3.9782,4.0455,4.1273,4.2419,4.3926,4.465,4.5138,4.537,4.6742,4.6828,4.5723,0.0,4.4519,4.2623,0.0,4.2872,0.0,4.2341,4.2161,4.1343,4.0735,4.0058,3.9346,3.8916,0.0,0.0,0.0,0.0,0.0,0.0,0.0,0.0,3.8892,4.2115,4.5504,4.3565,4.6247,5.0296,5.2517,5.3459,5.5173,6.1015,6.0875,6.0144,6.3392,6.3628,6.3993,6.6904,6.7466,6.7607,6.8215,6.7752,6.7018,6.6182,6.6778,6.728,6.6995,6.828,6.9689,7.0903,7.0987,7.1539,7.2954,7.2951,7.3165,7.3946,7.3857,7.3838,7.3974,7.3994,7.3994,7.3994,7.3994,7.3994,7.3994,7.3994,7.3994,7.3994,7.3994,7.3994,7.3994,7.3994,7.3994,7.4078,7.5362,7.5896,7.598,7.7209,7.7715,7.7715,7.7715,7.7715,7.7715,7.7715,7.7715,7.7715,0.0,0.0,0.0,0.0,0.0,0.0,3.4101,3.4101,3.4101,3.4101,3.4101,3.4101,3.4101,3.4101,0.0,3.4923,3.5785,3.6516,3.7059,3.8609,3.9782,4.0455,4.1703,4.282,4.3734,4.4168,4.439,4.44,4.4881,4.5341,4.5741,0.0,0.0,4.3404,0.0,4.401,0.0,0.0,0.0,4.1403,4.1254,4.0457,3.9319,3.8594,3.8538,0.0,0.0,0.0,0.0,0.0,0.0,0.0,3.8892,4.0614,4.3065,4.5493,4.7307,4.9666,5.4948,5.5426,5.5201,5.8474,5.9611,6.11,6.5668,6.5864,6.5555,6.7185,6.7129,6.682,6.6978,6.6232,6.5938,6.6972,6.6715,6.6647,6.7346,6.7841,6.8572,6.9736,6.9482,7.0261,7.2858,7.1827,7.1812,7.384,7.2672,7.2513,7.3916,7.3994,7.3994,7.3994,7.3994,7.3994,7.3994,7.3994,7.3994,7.3994,7.3994,7.3994,7.3994,7.3994,7.3994,7.4078,7.5362,7.5896,7.598,7.7209,7.7715,7.7715,7.7715,7.7715,7.7715,7.7715,7.7715,7.7715,0.0,0.0,0.0,0.0,0.0,0.0,0.0,0.0,3.4625,3.4625,3.4334,3.4101,3.4101,3.4101,0.0,0.0,3.5882,3.6581,3.7254,3.8343,3.9426,4.0455,4.1857,4.2867,4.3397,4.3413,4.3585,4.3846,4.3468,4.379,0.0,0.0,0.0,4.2681,0.0,4.2956,0.0,0.0,4.3389,4.1873,4.1622,4.1055,4.0256,3.9198,3.9073,3.9264,3.7905,0.0,0.0,0.0,0.0,0.0,0.0,0.0,4.3531,4.4301,4.6408,4.9454,5.3599,5.5074,5.6423,6.0429,6.2549,6.4162,6.6173,6.6837,6.7203,6.7849,6.7737,6.7252,6.6508,6.5893,6.5245,6.4509,6.4865,6.5233,6.5267,6.6225,6.7267,6.8193,6.8273,6.898,7.0822,7.0877,7.1353,7.2604,7.2632,7.3016,7.3955,7.3994,7.3994,7.3994,7.3994,7.3994,7.3994,7.3994,7.3994,7.3994,7.3994,7.3994,7.3994,7.3994,7.3994,7.4078,7.5362,7.5896,7.598,7.7209,7.7715,7.7625,7.6967,7.6691,7.6691,7.6691,7.6691,7.6774,0.0,0.0,0.0,0.0,0.0,0.0,0.0,0.0,0.0,3.5377,3.4852,3.4489,3.4489,3.4489,3.4781,0.0,0.0,0.0,3.7455,3.8181,3.916,4.0455,4.1736,4.2597,4.3013,4.2688,4.2782,4.3325,4.2452,4.2547,0.0,0.0,0.0,4.2075,0.0,0.0,0.0,0.0,4.293,4.2372,4.1883,4.1468,4.0987,3.9776,3.9481,3.9506,3.8222,3.7821,3.7821,3.7325,0.0,0.0,0.0,0.0,4.4289,4.2334,4.5127,4.9286,5.1407,5.454,5.8418,6.3397,6.5685,6.6595,6.6135,6.7118,6.8271,6.858,6.8664,6.8099,6.6264,6.5777,6.4725,6.1996,6.3031,6.3917,6.3207,6.451,6.5866,6.6731,6.7068,6.7608,6.8617,6.9724,7.0643,7.1257,7.2414,7.3387,7.4123,7.424,7.4297,7.4331,7.4409,7.4409,7.4331,7.3916,7.386,7.4162,7.405,7.3994,7.3994,7.3994,7.3994,7.4078,7.5362,7.5896,7.598,7.7209,7.7571,7.7215,7.6067,7.5453,7.5243,7.5243,7.5243,7.5432,0.0,0.0,0.0,0.0,0.0,0.0,0.0,0.0,0.0,0.0,3.6069,3.6005,3.6005,3.6005,3.6296,3.6969,3.7092,3.7487,3.8213,0.0,0.0,4.0455,4.1305,4.2033,4.2657,4.2333,4.2214,4.2302,4.1827,4.2197,0.0,0.0,0.0,4.4058,0.0,0.0,0.0,0.0,4.293,4.2372,4.1883,4.1027,3.9908,3.8985,3.8339,3.7863,3.7323,3.7466,3.7878,3.7821,3.8562,0.0,0.0,0.0,4.2138,4.2385,4.5212,4.8852,5.1787,5.6451,6.1031,6.3335,6.3729,6.4162,6.6707,6.7045,6.7315,6.8927,6.9283,6.8444,6.5736,6.4843,6.437,6.3922,6.3739,6.3862,6.4667,6.4228,6.4394,6.595,6.5361,6.5858,6.844,6.7475,6.8001,7.1076,7.0114,7.0967,7.4594,7.5182,7.5475,7.5643,7.6001,7.602,7.5643,7.3568,7.3292,7.4761,7.4246,7.3994,7.3994,7.3994,7.3994,7.4078,7.5362,7.5896,7.598,7.7209,7.6988,7.5879,7.5663,7.4883,7.386,7.386,7.386,7.4053,0.0,0.0,0.0,0.0,0.0,0.0,0.0,0.0,0.0,0.0,0.0,3.6296,3.6296,3.6296,3.6581,3.7254,3.7286,3.7617,3.8343,3.9102,3.9782,4.0455,4.1215,4.1967,4.2743,4.2206,4.2021,4.2206,4.1235,4.2456,0.0,4.589,4.5233,0.0,0.0,0.0,0.0,4.4646,4.4516,4.2851,4.2156,4.1702,4.1332,4.0541,4.0035,3.9678,3.9222,3.904,3.8871,3.8131,3.8271,3.8646,3.8038,0.0,0.0,0.0,4.3907,4.7659,5.2854,5.5833,5.8727,6.4038,6.4105,6.3824,6.7269,6.6807,6.6148,6.801,6.7896,6.7018,6.5451,6.4442,6.3529,6.2597,6.2508,6.2716,6.3185,6.3087,6.328,6.4013,6.3914,6.4288,6.5556,6.6802,6.8148,6.9724,7.1515,7.3359,7.5188,7.5811,7.5777,7.5061,7.5788,7.5708,7.4733,7.3677,7.2859,7.2261,7.1989,7.2095,7.2493,7.2493,7.3036,7.4078,7.5362,7.5896,7.598,7.7209,7.6885,7.5516,7.4756,7.3646,7.2433,7.2433,7.2433,7.2629,0.0,0.0,0.0,0.0,0.0,0.0,0.0,0.0,0.0,0.0,0.0,3.6846,3.6846,0.0,0.0,0.0,3.7584,3.7811,3.8375,3.8901,3.9523,4.0236,4.0956,4.1661,4.2359,4.1861,4.1648,4.1763,4.059,0.0,4.6163,4.6917,4.6311,0.0,4.7369,4.7091,0.0,0.0,4.593,4.4082,4.3306,4.2752,4.2298,4.1784,4.154,4.1373,4.0872,4.0491,4.008,3.8974,3.8721,3.8721,3.7944,3.9321,0.0,0.0,0.0,4.7013,5.277,5.4569,5.6423,6.3054,6.3431,6.301,6.6135,6.5365,6.4579,6.6501,6.5975,6.512,6.4991,6.4297,6.3152,6.1477,6.1855,6.2384,6.2384,6.272,6.3033,6.3153,6.3372,6.3494,6.3494,6.5957,6.765,6.8006,7.1453,7.3959,7.4939,7.5419,7.5388,7.4725,7.5189,7.491,7.3769,7.3585,7.2307,6.9915,7.012,7.0491,7.1028,7.0866,7.1829,7.3645,7.4852,7.5691,7.6305,7.6542,7.6109,7.5116,7.3646,7.2215,7.0963,7.0963,7.0963,7.1185,0.0,0.0,0.0,0.0,0.0,0.0,0.0,0.0,0.0,0.0,0.0,3.8278,3.8278,3.8278,3.8311,3.8343,3.8343,3.8343,3.8408,3.8447,3.8764,3.9523,4.0204,0.0,4.0896,4.0996,4.0789,4.0305,0.0,0.0,4.2738,4.5844,4.7549,4.8068,4.8887,4.9804,5.0554,4.7665,4.6436,4.6392,4.597,4.4046,4.1474,4.1575,4.1587,4.1524,4.0912,4.1053,4.1407,4.0772,4.093,4.1211,4.0024,4.0962,4.2396,0.0,0.0,0.0,5.0395,5.3262,5.6114,5.888,5.992,6.0606,6.2027,6.1946,6.2233,6.4561,6.3883,6.3171,6.4165,6.4308,6.3703,6.2036,6.3009,6.3973,6.3973,6.3997,6.4213,6.4718,6.4357,6.4069,6.4069,6.4248,6.4846,6.604,6.7245,6.9492,7.3137,7.3415,7.4116,7.5491,7.4727,7.4068,7.363,7.3027,7.1548,6.917,6.9861,7.0224,7.0234,6.9747,7.0563,7.2444,7.3466,7.522,7.713,7.4787,7.3984,7.4106,7.2298,7.0741,6.9519,6.9519,6.9519,6.9719,0.0,0.0,0.0,0.0,0.0,0.0,0.0,0.0,0.0,0.0,0.0,0.0,0.0,0.0,0.0,3.9127,3.8674,0.0,0.0,3.8408,3.8571,3.8986,4.0065,4.0572,4.0281,4.0874,4.088,4.0192,0.0,4.0627,4.299,4.4177,4.6232,4.9097,5.269,5.2043,4.8397,5.0542,4.8688,4.4574,4.769,4.6614,4.3313,4.5112,4.5777,4.5537,4.3711,4.3992,4.4863,4.2666,4.1513,4.094,4.0491,4.1109,4.2233,4.3587,4.4935,4.6604,4.9537,5.1111,5.3037,5.7519,5.7243,5.6816,6.0424,5.98,5.8995,6.096,6.1512,6.174,6.211,6.2748,6.3097,6.2808,6.3516,6.4213,6.4574,6.4598,6.467,6.4862,6.4718,6.4477,6.4141,6.5422,6.6335,6.6447,6.8439,7.0689,7.3138,7.3015,7.3168,7.3909,7.3849,7.3296,7.2258,7.2027,7.072,6.8312,6.8242,6.8453,6.8897,6.837,6.9532,7.1941,7.1449,7.2905,7.5564,7.4174,7.3171,7.2407,7.1754,7.063,6.9406,6.9406,6.9406,6.9474,0.0,0.0,0.0,0.0,0.0,0.0,0.0,0.0,0.0,0.0,0.0,0.0,0.0,0.0,0.0,3.988,3.9386,3.9088,3.9088,3.917,3.9155,3.9035,4.0218,4.0511,3.9746,4.0507,4.0607,3.9932,3.958,4.0289,4.2014,4.3339,4.5394,4.8158,5.2831,5.2889,4.971,5.2935,5.1427,4.7135,4.9899,4.9385,4.7149,4.8517,4.9301,4.9498,4.8262,0.0,4.819,4.6544,4.4874,4.3374,4.2767,4.2289,4.2306,4.416,4.4991,4.5818,4.8131,4.9199,5.0661,5.478,5.4851,5.4655,5.7661,5.7756,5.7498,5.8573,5.9693,6.0625,6.1154,6.1852,6.2528,6.3181,6.4045,6.4766,6.5125,6.5319,6.5438,6.5438,6.5438,6.5246,6.4694,6.599,6.6654,6.6103,6.8239,7.0257,7.1836,7.1681,7.163,7.1786,7.205,7.1758,7.0808,7.0786,6.9984,6.8402,6.7523,6.7348,6.7815,6.7076,6.827,7.0846,6.9661,7.1169,7.4419,7.284,7.1996,7.1688,7.1052,7.0209,6.9406,6.9406,6.9406,6.9406,0.0,0.0,0.0,0.0,0.0,0.0,0.0,0.0,0.0,0.0,0.0,0.0,0.0,0.0,0.0,4.0505,4.052,4.048,4.045,4.0671,4.043,3.9697,4.0513,0.0,3.9201,3.9869,3.995,3.9391,3.9391,3.9421,3.9511,4.3359,4.5155,4.5363,4.8889,5.2105,5.4906,5.4454,5.427,5.4152,5.2666,5.2264,5.2461,5.1533,5.1828,5.2911,5.4218,5.3093,0.0,5.2377,0.0,4.8726,4.6897,4.4633,4.2778,4.3397,4.4385,4.544,0.0,0.0,0.0,5.0549,5.2686,5.4249,5.3573,5.569,5.7744,5.753,5.8491,5.9855,6.1446,6.178,6.2141,6.3129,6.462,6.5654,6.5678,6.6135,6.6472,6.6472,6.6495,6.6303,6.5751,6.5676,6.5435,6.4853,6.6229,6.77,6.9095,6.9336,6.9406,6.9406,6.9406,6.9406,6.9406,6.9406,6.9381,6.9356,6.7831,6.7108,6.7059,6.5918,6.6776,6.9117,6.8208,7.0194,7.3828,7.0675,7.0474,7.1948,7.012,6.9406,6.9406,6.9406,6.9406,6.9406,0.0,0.0,0.0,0.0,0.0,4.069,4.1215,4.1313,4.1337,0.0,0.0,0.0,0.0,0.0,0.0,4.0865,4.0774,4.0325,3.9416,3.989,3.9744,3.865,3.979,3.9848,3.8645,3.9803,4.0091,3.9391,3.9391,3.966,4.0148,4.1235,4.2087,4.283,4.5734,4.7607,4.8787,5.2287,5.1001,4.7269,5.5287,5.485,4.9975,5.5481,5.6114,5.4231,5.5468,5.5468,5.4878,0.0,5.2503,4.9327,4.7022,4.5183,4.4031,4.461,4.5047,4.5356,4.5537,0.0,0.0,0.0,0.0,0.0,5.1747,5.2485,5.3314,5.4597,5.6666,5.8608,5.9855,6.1347,6.2442,6.2603,6.3713,6.467,6.5054,6.5582,6.5919,6.5919,6.6556,6.6672,6.5774,6.6653,6.6727,6.5412,6.5974,6.7069,6.8673,6.9584,6.9853,6.9406,6.9406,6.9406,6.9406,6.9406,6.9205,6.8826,6.8012,6.7395,6.6991,6.6243,6.6736,6.8164,6.7904,6.8906,7.0652,6.9764,6.9719,7.012,6.9606,6.9406,6.9406,6.9406,6.9406,6.9406,0.0,0.0,4.0978,4.1014,4.1048,4.1176,4.161,4.1733,4.1868,0.0,0.0,0.0,0.0,0.0,0.0,0.0,4.1525,4.0992,4.0227,4.0425,4.0075,3.9072,3.9871,3.9837,3.8829,3.9606,3.9826,3.9391,3.9391,3.9519,3.9739,4.0285,4.071,4.1125,4.3046,4.4128,4.471,4.8827,4.9751,4.9061,5.5454,5.6507,5.4708,5.8612,5.9105,5.7884,5.9373,5.957,5.9133,5.9317,5.6382,5.2419,5.0972,4.8234,4.5846,4.7235,4.6717,4.5761,4.6002,4.6632,4.7459,4.8599,0.0,0.0,4.9183,5.1181,5.3158,5.3698,5.6468,5.8921,5.9326,6.0072,6.0713,6.1108,6.1714,6.2779,6.4556,6.51,6.5325,6.5325,6.5875,6.6023,6.5437,6.6282,6.6518,6.5567,6.6121,6.699,6.8199,6.91,6.9426,6.9077,6.928,6.9406,6.9406,6.918,6.8926,6.86,6.7819,6.7314,6.6987,6.6388,6.6739,6.7794,6.7794,6.8399,6.9406,6.9406,6.9406,6.9383,6.918,6.9225,6.9361,6.8951,6.8953,6.9089,0.0,0.0,4.1586,4.1692,4.1769,4.1832,4.1832,4.2,4.229,0.0,0.0,0.0,0.0,0.0,0.0,0.0,4.2553,4.2148,4.1947,4.1597,4.1075,4.0252,4.0392,4.0143,3.9409,3.9391,3.9373,3.9328,3.9328,3.9197,3.8977,4.0116,4.05,4.029,4.1047,4.1707,4.238,4.491,4.9426,5.485,5.447,5.7547,6.2263,6.1224,6.1224,6.2055,6.4223,6.4139,6.315,6.4223,6.1116,5.6745,5.6324,5.2194,4.7909,4.9973,4.8512,4.6335,4.7026,4.7138,4.7137,4.7338,4.8137,0.0,4.6692,5.0769,5.4611,5.3493,5.6395,5.9061,5.8773,5.7959,5.769,5.8731,5.8879,6.0092,6.3611,6.4353,6.4501,6.4307,6.4601,6.4786,6.4741,6.5228,6.556,6.542,6.6401,6.7223,6.7693,6.8229,6.853,6.85,6.8954,6.9205,6.9205,6.8751,6.8475,6.8399,6.7464,6.6962,6.6887,6.6338,6.6739,6.7794,6.7794,6.8399,6.9406,6.9406,6.9406,6.9361,6.8885,6.8953,6.9225,6.8337,6.8246,6.8567,4.0433,4.0814,4.1112,4.1137,4.1605,4.1972,4.1972,4.2445,4.2869,4.3073,0.0,0.0,0.0,0.0,0.0,0.0,0.0,4.312,4.1635,4.1927,4.1639,4.041,4.0389,4.0103,3.9421,3.9391,3.9247,3.8925,3.8925,3.9234,3.9858,4.0091,4.056,4.1149,4.1323,4.1536,4.1848,4.3391,4.6769,5.1477,5.6226,5.8559,5.9654,6.3757,6.3291,6.0987,6.4853,6.5106,6.3588,6.3347,6.1549,5.8865,5.5889,5.2419,4.934,4.8808,4.7154,4.5749,4.6885,4.6841,4.6708,4.7686,4.8125,0.0,4.705,4.8194,4.9557,4.9927,5.1387,5.2908,5.4106,5.4471,5.4854,5.5719,5.5635,5.6624,5.9957,6.1928,6.2538,6.1258,6.2966,6.4102,6.3634,6.5143,6.5805,6.492,6.6239,6.7097,6.7141,6.7718,6.7998,6.7948,6.807,6.812,6.812,6.802,6.7744,6.7314,6.7113,6.6761,6.6287,6.614,6.6739,6.7794,6.7794,6.8399,6.9406,6.9406,6.9406,6.9361,6.8885,6.8749,6.8772,6.82,6.8063,6.8131,4.0555,4.0837,4.1024,4.1082,4.137,4.1824,4.2507,4.2919,4.3386,0.0,0.0,0.0,0.0,0.0,0.0,0.0,0.0,0.0,4.2929,4.2557,4.2091,4.1422,4.0765,4.0155,3.9615,3.9259,3.8898,3.851,3.851,3.8781,3.9321,3.9638,4.0087,4.0614,4.1227,4.172,4.2177,4.3413,4.6629,5.1252,5.5271,5.8025,6.0104,6.3785,6.4235,6.3195,6.5376,6.5938,6.5555,6.4948,6.3926,6.2521,6.0345,5.6691,5.3009,5.2054,4.982,4.7628,4.7644,4.7419,4.7042,4.6462,4.6302,0.0,0.0,4.6348,4.7889,4.856,5.0208,5.158,5.1844,5.2236,5.2562,5.2829,5.3084,5.3818,5.5481,5.8745,6.1039,6.1256,6.2269,6.2934,6.2937,6.4519,6.5648,6.5819,6.6834,6.7201,6.6567,6.7626,6.7979,6.7417,6.7919,6.807,6.7794,6.7518,6.7263,6.6987,6.6689,6.6388,6.609,6.609,6.6739,6.7794,6.7794,6.8399,6.9406,6.9406,6.9406,6.9361,6.8885,6.8703,6.8612,6.788,6.7603,6.7557,4.0615,4.0794,4.0925,4.1019,4.1243,4.1842,4.3022,4.3495,4.4158,0.0,0.0,0.0,0.0,0.0,0.0,0.0,0.0,0.0,0.0,4.4157,4.3449,4.2842,4.1539,4.0595,4.0049,3.9382,3.8775,3.8244,3.8398,3.8486,3.8581,3.9245,3.9697,4.0024,4.1109,4.2306,4.3593,4.5155,4.8471,5.2897,5.5398,5.8278,6.1369,6.3785,6.5039,6.5573,6.591,6.6595,6.7241,6.6623,6.6022,6.5393,6.4673,6.0722,5.6324,5.5973,5.3149,4.9943,4.8921,4.846,4.7739,4.5563,4.4851,4.4364,0.0,0.0,0.0,4.7058,4.8957,5.0353,4.9493,4.9711,4.9879,4.9487,5.0353,5.1159,5.1353,5.5091,5.8534,6.0437,6.0597,6.0734,6.1285,6.3264,6.5066,6.644,6.7336,6.7308,6.6165,6.7283,6.7684,6.7012,6.7744,6.797,6.7643,6.7113,6.6836,6.6836,6.6338,6.609,6.609,6.609,6.6664,6.7643,6.7744,6.8349,6.9255,6.9356,6.9406,6.9361,6.8885,6.8635,6.8453,6.7534,6.7143,6.7004,3.9571,4.0049,4.0482,4.0477,4.1468,4.2488,4.3199,4.4287,4.5755,0.0,0.0,0.0,0.0,0.0,0.0,0.0,0.0,0.0,4.7149,0.0,4.7277,4.4482,4.3113,4.1948,4.0873,4.0283,3.9449,3.8482,3.9064,3.9178,3.8879,3.9478,4.0066,4.0631,4.1295,4.3486,4.6869,4.9735,5.2854,5.6268,6.0891,6.2071,6.1593,6.6219,6.6669,6.5112,6.6707,6.7045,6.6595,6.6022,6.5393,6.469,6.3487,6.0032,5.6493,5.7013,5.4133,5.0774,5.0633,4.9771,4.8586,4.7215,4.6087,4.4987,4.3792,0.0,4.3862,4.2901,0.0,4.4467,4.4417,0.0,0.0,4.4949,4.6478,4.809,4.9038,5.1139,5.3005,5.4188,5.5294,5.6154,5.6712,6.0829,6.3864,6.4793,6.6755,6.7355,6.6144,6.5877,6.6155,6.6965,6.6589,6.6614,6.7087,6.6488,6.6212,6.6212,6.6115,6.609,6.609,6.609,6.6463,6.7113,6.7593,6.8145,6.8726,6.9205,6.9406,6.9361,6.8885,6.8453,6.8017,6.7419,6.6935,6.6566,4.0058,4.0208,4.0636,4.1433,4.2322,4.3409,4.4835,4.6501,4.8199,0.0,0.0,0.0,0.0,0.0,0.0,0.0,0.0,5.4158,0.0,0.0,0.0,4.7987,4.4311,4.2297,4.2266,4.0621,3.9597,3.9257,3.9193,3.9253,3.9416,3.9669,4.0305,4.1239,4.1896,4.4256,4.7896,5.0635,5.44,5.8809,6.1998,6.3279,6.3549,6.6331,6.6978,6.6416,6.682,6.7522,6.7905,6.5871,6.7164,6.8871,6.474,6.2661,6.1706,6.1244,5.7281,5.329,5.44,5.3027,5.102,4.9763,4.8021,4.6412,4.5589,4.4022,4.2568,4.2098,0.0,0.0,0.0,0.0,0.0,0.0,4.4505,4.5674,4.6428,4.7507,4.9686,5.3606,5.4618,5.6097,5.8812,6.0383,6.213,6.4386,6.5407,6.5571,6.4735,6.6344,6.7173,6.7012,6.7367,6.7367,6.6987,6.6761,6.6438,6.609,6.609,6.609,6.609,6.609,6.6438,6.7037,6.7568,6.812,6.865,6.918,6.9406,6.9383,6.918,6.8817,6.836,6.8154,6.7581,6.6912,4.1035,4.0945,4.1304,4.2451,4.317,4.4326,4.651,4.9026,5.1031,0.0,0.0,0.0,5.7812,5.7262,0.0,0.0,5.8341,5.7395,0.0,0.0,5.1455,5.1984,4.6454,0.0,4.5038,4.197,4.0318,4.0305,3.9866,3.9697,3.9809,4.0136,4.0772,4.1632,4.2654,4.5155,4.8823,5.2152,5.638,6.1083,6.3656,6.5134,6.5843,6.6219,6.6932,6.7719,6.7287,6.8018,6.8749,6.618,6.799,7.0585,6.6416,6.4814,6.4458,6.42,6.002,5.5924,5.7909,5.6171,5.3514,5.25,5.0098,4.7612,4.6319,4.4168,4.2317,4.2067,4.1875,0.0,0.0,0.0,0.0,0.0,0.0,4.3853,4.4097,4.493,4.7287,5.2077,5.3845,5.5778,5.8603,5.9682,6.085,6.2388,6.3735,6.4124,6.3274,6.6086,6.7493,6.7012,6.7744,6.7869,6.7238,6.7062,6.6711,6.609,6.609,6.609,6.609,6.609,6.6338,6.6786,6.7493,6.802,6.8424,6.9105,6.9406,6.9406,6.9406,6.9202,6.8885,6.8749,6.8154,6.7419,4.2351,4.2351,4.2541,4.316,4.3818,4.5144,4.7829,5.1528,5.4281,0.0,0.0,0.0,0.0,0.0,0.0,0.0,0.0,5.9421,5.8017,0.0,5.7282,5.618,5.0156,4.7766,0.0,4.5006,4.2199,4.1548,4.152,4.094,3.9837,4.0997,4.1576,4.1688,4.3514,4.6432,5.0309,5.5763,5.992,6.3162,6.7466,6.8861,6.8186,6.6388,6.6865,6.8468,6.8439,6.8468,6.8327,6.7006,6.6651,6.7006,6.8018,6.5164,6.1908,6.4274,6.1529,5.82,6.0546,5.8512,5.5609,5.525,5.2077,4.8238,4.5084,4.389,4.3192,4.2197,4.1586,4.1379,4.1899,0.0,0.0,0.0,0.0,0.0,0.0,4.3834,4.5688,4.7507,5.1499,5.3758,5.2855,5.804,6.0312,5.7637,6.1822,6.3772,6.2144,6.4178,6.5907,6.6962,6.7037,6.7267,6.7769,6.7263,6.6711,6.609,6.609,6.609,6.609,6.609,6.609,6.619,6.7317,6.7819,6.7919,6.8954,6.9406,6.9406,6.9406,6.9406,6.9316,6.8862,6.8383,6.7971,4.4605,4.4063,4.3881,4.3947,4.4865,4.6414,4.8734,5.1268,5.3322,0.0,5.5692,0.0,0.0,6.1786,6.1695,0.0,0.0,6.3122,6.1364,6.0108,0.0,0.0,0.0,5.1582,0.0,4.7331,4.4734,4.2851,4.1997,4.1379,4.0997,4.1407,4.184,4.2328,4.4188,4.7307,5.1533,5.6704,6.138,6.5583,6.8309,6.9283,6.8973,6.7934,6.8186,6.9142,6.9545,6.9686,6.9433,6.7775,6.859,6.9894,6.746,6.5918,6.5261,6.6545,6.2913,5.9165,6.2347,6.087,5.8606,5.9186,5.5732,5.1946,5.0846,4.7464,4.4364,4.3682,4.3096,4.2687,0.0,0.0,0.0,0.0,0.0,0.0,0.0,4.2829,4.4166,4.5653,4.8253,5.0578,5.2275,5.4159,5.5635,5.6481,5.8058,5.9081,5.9282,6.2446,6.4576,6.5304,6.6786,6.7464,6.7288,6.7087,6.6711,6.609,6.609,6.609,6.609,6.609,6.609,6.614,6.7317,6.7794,6.7869,6.8977,6.9406,6.9406,6.9406,6.9406,6.9383,6.9225,6.8636,6.7791,4.5639,4.4991,4.5016,4.53,4.6659,4.8328,5.0243,5.211,5.4208,0.0,5.7528,0.0,6.3759,0.0,6.3654,0.0,6.4626,6.447,6.4517,6.1747,0.0,6.3279,5.8137,0.0,0.0,5.0888,4.8387,4.7431,4.4413,4.3149,4.357,4.2699,4.2514,4.3003,4.5059,4.7756,5.1182,5.6802,6.1312,6.4853,6.7382,6.8927,6.963,6.8805,6.9423,7.0726,7.0922,7.0978,7.0782,6.9573,7.0501,7.1735,6.895,6.7558,6.7012,6.7441,6.3917,6.0553,6.3769,6.2598,6.0652,6.1261,5.8428,5.5246,5.4284,5.1327,4.8611,4.8065,4.7517,4.6738,4.5457,0.0,0.0,0.0,0.0,0.0,0.0,4.2338,4.3134,4.4136,4.6927,4.9216,5.0414,5.1837,5.3115,5.4067,5.5239,5.6319,5.7248,6.0989,6.335,6.3898,6.6036,6.7041,6.6664,6.6887,6.6711,6.609,6.609,6.609,6.609,6.609,6.609,6.614,6.7091,6.7618,6.7869,6.8751,6.923,6.9406,6.9406,6.9293,6.9155,6.9112,6.8587,6.7699,4.561,4.5226,4.6023,4.7162,4.904,5.0822,5.2256,5.4204,5.7015,0.0,6.1434,6.2088,6.4499,6.3233,6.2878,6.4498,6.3176,6.3684,6.7157,6.301,0.0,0.0,6.0734,5.8543,6.1914,0.0,0.0,5.4695,4.8514,4.6086,4.7222,4.4678,4.3526,4.3638,4.6127,4.7937,4.9552,5.6395,6.016,6.1818,6.5218,6.8112,7.0257,6.9023,7.0445,7.3007,7.2353,7.2071,7.2023,7.2023,7.2023,7.2004,7.1956,6.9651,6.6907,6.6878,6.4459,6.2358,6.4683,6.3586,6.1798,6.1591,6.0063,5.7935,5.5409,5.5097,5.5188,5.4731,5.4149,5.2956,5.0395,0.0,0.0,0.0,0.0,0.0,0.0,0.0,4.2584,0.0,4.7224,0.0,0.0,0.0,5.2702,5.052,5.3381,5.5491,5.6143,5.9734,6.2049,6.2752,6.4785,6.5939,6.604,6.6589,6.6635,6.609,6.609,6.609,6.609,6.609,6.609,6.6115,6.6736,6.7314,6.7844,6.8374,6.8926,6.9406,6.9406,6.9085,6.867,6.8552,6.8243,6.7726,4.7428,4.7416,4.7986,4.8367,5.0685,5.2672,5.3139,5.6344,5.9013,0.0,6.1338,6.2803,6.3912,6.4871,6.5035,6.4121,6.4899,0.0,0.0,0.0,0.0,6.742,6.565,6.3824,6.2027,5.9851,0.0,5.5931,5.0636,4.8221,4.8443,4.5071,4.375,4.4284,4.6773,4.8836,5.0858,5.7716,6.3195,6.7213,6.6781,6.8646,7.1521,6.9818,7.0806,7.2898,7.1353,7.0178,6.9375,6.9375,6.9375,6.923,6.8367,6.7229,6.6026,6.5096,6.3659,6.2589,6.3574,6.3138,6.2562,6.3234,6.0987,5.8512,5.8223,5.6131,5.4379,5.4986,5.467,5.4296,5.4353,5.1884,0.0,0.0,0.0,0.0,0.0,0.0,0.0,4.2948,0.0,0.0,0.0,0.0,0.0,4.985,5.1749,5.3733,5.5491,5.7305,5.9489,6.2124,6.2772,6.3852,6.5484,6.5254,6.5455,6.609,6.609,6.609,6.609,6.609,6.609,6.6115,6.6736,6.7314,6.7844,6.8374,6.8926,6.9406,6.9406,6.8837,6.7979,6.7697,6.7481,6.73,4.7952,4.8173,4.9027,4.9609,5.3148,5.5723,5.5282,5.8136,6.0934,6.2619,6.3562,0.0,6.6085,6.695,6.7006,6.5966,6.5826,0.0,6.7147,0.0,0.0,6.8618,6.7438,6.5724,6.3645,6.2745,0.0,5.9611,5.3571,5.0902,5.1351,4.6251,4.4357,4.5324,4.7519,4.9694,5.2138,5.898,6.4656,6.8917,6.7849,6.9188,0.0,6.9981,7.0062,7.0907,6.9852,6.937,6.9212,6.9212,6.9212,6.9116,6.8497,6.7533,6.651,6.5823,6.4665,6.361,6.3636,6.3444,6.3342,6.3661,6.203,6.061,6.152,5.9929,5.8479,5.9239,5.9526,5.928,5.8179,5.5519,5.2502,0.0,0.0,0.0,0.0,0.0,0.0,0.0,4.5522,0.0,0.0,0.0,0.0,0.0,5.0569,5.2226,5.421,5.6276,5.8133,5.9765,6.1718,6.2998,6.3496,6.3676,6.4304,6.5383,6.5383,6.5634,6.609,6.609,6.609,6.6137,6.6463,6.7066,6.7819,6.8145,6.8701,6.9361,6.8951,6.8419,6.7809,6.7158,6.6848,6.6779,4.8228,4.8437,4.9777,5.1477,5.5749,5.884,5.8434,6.0231,6.3017,6.6873,6.6539,6.6725,6.8805,6.8777,6.858,6.8496,6.6602,6.6781,7.0079,6.6184,6.5763,7.0201,6.7775,6.6303,6.6303,6.5151,6.4572,0.0,5.7126,5.4035,5.5061,4.8134,4.5521,4.6729,4.8474,5.0987,5.4301,6.0034,6.4889,6.8684,6.8221,6.924,7.0832,6.9649,6.8811,6.8285,6.819,6.8846,6.9786,6.9786,6.9786,6.9786,6.9786,6.8726,6.7452,6.7452,6.629,6.4886,6.4429,6.4261,6.4108,6.3632,6.3097,6.3033,6.432,6.4189,6.3963,6.4563,6.5442,6.5077,6.176,5.8918,5.5031,4.8668,0.0,0.0,0.0,0.0,0.0,0.0,0.0,0.0,0.0,0.0,0.0,0.0,4.969,5.108,5.2912,5.5698,5.7248,5.7211,6.1014,6.2592,6.1637,6.24,6.3525,6.4927,6.4647,6.5053,6.609,6.609,6.609,6.609,6.609,6.6764,6.7794,6.7794,6.8374,6.9213,6.8323,6.7929,6.7766,6.6805,6.6408,6.6319,5.0751,5.0405,5.1786,5.5595,5.7056,5.9024,6.2919,6.4702,6.5873,6.6669,6.7016,6.7157,6.7118,6.8383,6.903,6.8524,6.8552,0.0,0.0,0.0,0.0,7.096,7.0051,6.9489,6.9489,6.8787,6.8646,0.0,6.12,5.7688,5.8234,5.0902,4.7828,4.8586,4.996,5.4203,6.0374,6.0171,6.3911,6.9727,6.6865,6.7337,6.9666,6.8403,6.7826,6.7679,6.7045,6.697,6.7172,6.7172,6.7172,6.7172,6.7172,6.6943,6.669,6.669,6.6148,6.5534,6.5462,6.5079,6.4741,6.4638,6.3895,6.3336,6.398,6.3411,6.3118,6.4376,6.5158,6.5377,6.4591,6.0779,5.6602,5.3036,0.0,0.0,0.0,0.0,0.0,0.0,0.0,0.0,0.0,0.0,0.0,0.0,0.0,5.087,5.3432,5.369,5.5214,5.8297,5.9182,6.0964,6.3873,6.3199,6.4283,6.7191,6.538,6.5053,6.609,6.609,6.609,6.609,6.609,6.6764,6.7794,6.7794,6.817,6.8678,6.8071,6.7551,6.7085,6.649,6.6261,6.6319,5.44,5.3501,5.3684,5.6395,5.874,6.1172,6.3858,6.6163,6.7709,6.8,6.9152,6.9826,6.9536,7.0304,7.0744,7.0435,7.0079,7.0135,7.0735,6.9911,6.9798,7.0679,7.0164,6.9377,6.8393,6.904,6.9208,6.8843,6.2392,5.9555,6.0004,5.2574,4.9567,5.0593,5.3782,5.7744,6.2052,6.2832,6.5572,6.9151,6.7515,6.7674,6.8824,6.7956,6.7357,6.6983,6.665,6.6496,6.6496,6.6496,6.6496,6.6496,6.6496,6.6496,6.6496,6.6496,6.6304,6.6181,6.6411,6.6286,6.6157,6.6389,6.5685,6.5075,6.583,6.4969,6.4321,6.5214,6.5614,6.5278,6.3505,6.1918,5.9709,5.6,0.0,0.0,0.0,0.0,0.0,0.0,0.0,0.0,0.0,0.0,0.0,0.0,0.0,5.0008,5.1883,5.313,5.4888,5.7342,5.8805,6.0713,6.3194,6.2672,6.3626,6.6083,6.5003,6.5053,6.609,6.609,6.609,6.609,6.609,6.6764,6.7844,6.8399,6.8625,6.8553,6.8032,6.7518,6.6981,6.65,6.6323,6.6369,5.8362,5.7378,5.6873,5.8487,6.1156,6.36,6.5134,6.7147,6.8805,6.9658,7.095,7.1906,7.2178,7.2206,7.2131,7.199,7.1316,7.095,7.0988,7.0613,7.0473,7.0697,7.036,6.9433,6.7849,6.9096,6.9292,0.0,0.0,6.1409,6.075,5.4752,5.2447,5.3543,5.7908,6.0877,6.2765,6.4717,6.6524,6.8076,6.7707,6.7687,6.7859,6.7385,6.6756,6.6183,6.6424,6.6496,6.6496,6.6496,6.6496,6.6496,6.6496,6.6496,6.6519,6.6635,6.6658,6.675,6.7235,6.7373,6.7459,6.7818,6.7254,6.6789,6.7638,6.68,6.5922,6.6226,6.6112,6.5258,6.3019,6.3019,6.2094,5.8334,5.642,0.0,0.0,0.0,0.0,0.0,0.0,0.0,0.0,0.0,0.0,0.0,0.0,0.0,5.1005,5.2871,5.4655,5.6326,5.8459,6.0417,6.2149,6.2069,6.3073,6.5179,6.4701,6.5053,6.609,6.609,6.609,6.609,6.609,6.6764,6.7869,6.8977,6.9027,6.838,6.8023,6.7498,6.6851,6.6366,6.6207,6.6218,6.2347,6.2235,6.3038,6.5931,6.4937,6.5246,6.9808,6.9349,6.9114,7.0819,7.0726,7.0922,7.2074,7.2206,7.1962,7.1353,7.2243,7.2131,7.0482,7.2364,7.3114,7.2074,7.2496,7.2411,7.17,7.1259,7.096,0.0,0.0,6.4527,6.0157,5.8908,5.8403,5.8622,6.0904,6.2952,6.4599,6.2766,6.3973,6.6988,6.5205,6.5218,6.6197,6.5958,6.5527,6.5197,6.6135,6.6496,6.6496,6.6496,6.6496,6.6496,6.6496,6.6496,6.6589,6.7004,6.712,6.7258,6.7788,6.7926,6.7947,6.7966,6.7548,6.7267,6.7764,6.7407,6.6945,6.6903,6.6108,6.5735,6.6965,6.4429,6.1672,6.0217,5.7399,0.0,0.0,0.0,5.5297,0.0,0.0,0.0,0.0,4.9715,0.0,0.0,4.8768,0.0,5.3231,5.2268,5.3231,5.6809,5.7161,5.9043,6.2701,6.2225,6.3852,6.7467,6.5455,6.5053,6.609,6.609,6.609,6.609,6.609,6.6764,6.7869,6.8977,6.8801,6.7869,6.7825,6.7166,6.6222,6.5688,6.5587,6.5609,6.5594,6.4442,6.4066,6.6061,6.6528,6.7428,6.977,7.0445,7.111,7.2215,7.2131,7.2187,7.2692,7.3058,7.3151,7.2898,7.3348,7.3151,7.2046,7.2917,7.3086,7.2262,7.2411,7.2271,7.1625,7.1737,7.1793,7.1793,0.0,6.5067,6.3403,6.0214,5.9161,5.9964,6.1225,6.3166,6.5409,6.42,6.5285,6.7687,6.5813,6.5738,6.6689,6.6628,6.6689,6.6835,6.725,6.7398,6.7398,6.7398,6.7006,6.6566,6.682,6.6912,6.7004,6.7511,6.7672,6.7811,6.8269,6.843,6.8474,6.8769,6.8688,6.8559,6.8765,6.8385,6.7977,6.7976,6.7087,6.6334,6.6287,6.6112,6.5036,6.225,6.1798,6.0588,0.0,0.0,0.0,0.0,0.0,0.0,0.0,0.0,0.0,0.0,0.0,0.0,5.1607,5.2721,5.4881,5.8384,5.8485,6.0713,6.5283,6.3429,6.3931,6.6789,6.5886,6.5685,6.609,6.609,6.609,6.6137,6.684,6.7392,6.7869,6.86,6.8475,6.7747,6.7135,6.642,6.5704,6.5522,6.5312,6.5074,6.8843,6.7607,6.6764,6.7484,6.8721,6.9676,6.9883,7.105,7.2006,7.2228,7.2277,7.2549,7.3279,7.3741,7.3853,7.3488,7.344,7.2951,7.1792,7.2072,7.1934,7.1116,7.1293,7.11,7.0429,7.0861,7.0935,7.0597,6.7651,6.548,6.4088,6.0804,6.0002,6.1302,6.2374,6.3886,6.5606,6.5213,6.5837,6.7067,6.6425,6.6475,6.7001,6.7315,6.7574,6.7796,6.792,6.8017,6.8017,6.8017,6.7536,6.7006,6.7327,6.7442,6.7534,6.8063,6.82,6.8291,6.8794,6.8908,6.8976,6.9316,6.9406,6.9406,6.9406,6.9127,6.8801,6.8625,6.7744,6.6761,6.5957,6.694,6.6818,6.358,6.4233,6.3856,6.0236,5.9583,0.0,0.0,5.883,5.7876,5.9664,5.6269,0.0,0.0,0.0,0.0,5.1331,5.3105,5.5516,5.8679,5.8604,6.0708,6.5254,6.35,6.3756,6.609,6.609,6.609,6.609,6.609,6.609,6.614,6.7317,6.7794,6.7844,6.8374,6.8274,6.7722,6.6841,6.6152,6.5608,6.5503,6.5194,6.4782,7.2262,7.2608,7.2805,7.2215,7.215,7.1934,7.1269,7.1203,7.102,7.0404,7.0319,7.1269,7.3734,7.3994,7.3516,7.2327,7.2149,7.1082,6.862,6.9645,6.9782,6.8503,6.915,6.9218,6.8555,6.8534,6.7986,6.6884,6.8617,6.6359,6.0498,6.1091,6.2024,6.3363,6.5205,6.5745,6.5177,6.4991,6.4621,6.4336,6.6361,6.6876,6.6541,6.7599,6.7673,6.7279,6.782,6.8017,6.8017,6.8017,6.7994,6.7994,6.7994,6.7994,6.8086,6.8567,6.8681,6.8794,6.927,6.9406,6.9406,6.9406,6.9406,6.9406,6.9406,6.9381,6.923,6.8726,6.7744,6.6987,6.6987,6.6513,6.5588,6.3952,6.3203,6.225,6.0543,5.9834,0.0,5.9533,5.7097,5.6294,5.851,5.6194,0.0,0.0,0.0,5.4295,5.3683,5.3188,5.4175,5.6935,5.6527,5.7851,6.1235,6.1768,6.34,6.609,6.609,6.609,6.609,6.609,6.609,6.614,6.7317,6.7794,6.7844,6.8374,6.8274,6.7744,6.7191,6.666,6.6123,6.5602,6.5136,6.4709,6.8461,6.9752,7.0636,6.8944,6.9528,7.0302,7.0536,7.0864,7.0886,7.0361,7.0583,7.0963,7.143,7.1486,7.1326,7.0931,7.0211,6.9747,6.9696,6.9391,6.9338,6.9692,6.9228,6.8669,6.8095,6.8095,6.752,6.639,6.6777,6.5351,6.2245,6.2083,6.2463,6.3323,6.3931,6.4677,6.5518,6.5424,6.5915,6.6805,6.7442,6.7793,6.8026,6.869,6.8851,6.8727,6.8901,6.8951,6.8951,6.8951,6.8951,6.8951,6.8951,6.8724,6.859,6.9044,6.918,6.9225,6.9361,6.9406,6.9406,6.9406,6.9406,6.9406,6.9406,6.9406,6.9255,6.8726,6.8045,6.7417,6.7062,6.6836,6.6036,6.4028,6.5107,6.5383,6.2948,6.2792,6.2767,6.2395,6.0211,5.9313,6.0814,5.8453,0.0,5.6251,5.5541,5.4906,5.4328,5.5942,5.7957,6.0317,6.0989,6.2345,6.453,6.3626,6.4153,6.609,6.609,6.609,6.609,6.609,6.609,6.614,6.6937,6.7263,6.7263,6.7417,6.7414,6.7122,6.5915,6.5322,6.5166,6.4994,6.4431,6.385,6.8225,6.9897,7.1136,6.8908,6.9307,6.9925,6.9846,7.0098,7.0084,6.9514,6.9687,6.9659,6.9198,6.9132,6.9457,7.0228,6.9243,6.8883,6.9535,6.8496,6.8155,6.8843,6.8051,6.7413,6.7084,6.6877,6.6344,6.541,6.5243,6.457,6.3469,6.3125,6.3307,6.39,6.4111,6.4862,6.5993,6.6333,6.7072,6.7993,6.8141,6.8516,6.8999,6.9293,6.9406,6.9406,6.9406,6.9406,6.9406,6.9406,6.9406,6.9406,6.9406,6.9202,6.9021,6.9316,6.9406,6.9406,6.9406,6.9406,6.9406,6.9406,6.9406,6.9406,6.9406,6.9406,6.9306,6.8977,6.8475,6.7945,6.7414,6.7138,6.6485,6.4856,6.6036,6.6564,6.4831,6.4551,6.43,6.3751,6.1893,6.1165,6.2521,6.0889,5.9589,5.9212,5.7957,5.7173,5.7066,5.7926,5.9232,6.1014,6.237,6.3651,6.4835,6.4279,6.4705,6.609,6.609,6.609,6.609,6.609,6.609,6.6115,6.6541,6.686,6.6987,6.6791,6.686,6.6872,6.5515,6.505,6.5202,6.5031,6.4486,6.3939,7.0508,7.2105,7.3362,7.1048,7.0723,7.0392,6.9187,6.9067,6.8814,6.81,6.802,6.7857,6.7304,6.7258,6.8024,6.9959,6.8921,6.8182,6.8257,6.7099,6.6424,6.6496,6.5943,6.563,6.5582,6.5079,6.4646,6.4213,6.4213,6.4213,6.4213,6.4213,6.4458,6.4971,6.5551,6.6064,6.6561,6.7643,6.8063,6.8071,6.8548,6.9021,6.9406,6.9406,6.9406,6.9406,6.9406,6.9406,6.9406,6.9406,6.9406,6.9406,6.9406,6.9406,6.9406,6.9406,6.9406,6.9406,6.9406,6.9406,6.9406,6.9406,6.9406,6.9406,6.9406,6.9406,6.9406,6.9406,6.8954,6.845,6.7945,6.7389,6.6836,6.6262,6.6137,6.6065,6.6011,6.5103,6.4224,6.3651,6.227,6.1964,6.3425,6.3203,6.2902,6.2701,6.1321,6.0738,6.1285,5.9382,5.8755,5.9759,6.1416,6.2501,6.2978,6.4073,6.5128,6.609,6.609,6.609,6.609,6.609,6.609,6.6094,6.6233,6.6523,6.6893,6.6435,6.6501,6.6843,6.5775,6.5638,6.6004,6.5551,6.5118,6.4767,6.7287,6.8994,7.0101,6.7372,6.7901,6.8607,6.831,6.8567,6.8607,6.8085,6.8317,6.8337,6.7855,6.7809,6.8008,6.8482,6.6824,6.6074,6.69,6.5906,6.5654,6.6448,6.5606,6.4886,6.4477,6.4357,6.4622,6.5319,6.5319,6.5319,6.5319,6.5319,6.5398,6.5553,6.645,6.7099,6.7595,6.8654,6.9057,6.9047,6.9198,6.9316,6.9406,6.9406,6.9406,6.9406,6.9406,6.9406,6.9406,6.9406,6.9406,6.9406,6.9406,6.9406,6.9406,6.9406,6.9406,6.9406,6.9406,6.9406,6.9406,6.9406,6.9406,6.9406,6.9406,6.9406,6.9406,6.9406,6.8954,6.855,6.8424,6.7643,6.6962,6.6811,6.6388,6.581,6.5003,6.43,6.35,6.2521,6.2822,6.2923,6.2446,6.3802,6.3827,6.1743,6.1974,6.2275,6.24,6.237,6.2446,6.2697,6.4279,6.5007,6.4705,6.5383,6.586,6.609,6.609,6.609,6.609,6.609,6.609,6.609,6.6133,6.6205,6.6269,6.5794,6.588,6.6226,6.5254,6.5161,6.5551,6.5443,6.5118,6.4767,6.7654,6.914,7.0116,6.7459,6.7746,6.8314,6.8314,6.8544,6.8681,6.8633,6.8862,6.884,6.836,6.8314,6.8223,6.8017,6.6747,6.6192,6.6795,6.6058,6.5895,6.6472,6.615,6.5835,6.5582,6.5523,6.5806,6.6409,6.6167,6.6281,6.6753,6.6753,6.6881,6.7113,6.7633,6.8166,6.8617,6.9165,6.9406,6.9406,6.9406,6.9406,6.9406,6.9406,6.9406,6.9406,6.9406,6.9406,6.9406,6.9406,6.9406,6.9406,6.9406,6.9406,6.9406,6.9406,6.9406,6.9406,6.9406,6.9406,6.9406,6.9406,6.9406,6.9406,6.9406,6.9406,6.9406,6.9406,6.9155,6.8901,6.865,6.8123,6.7568,6.7087,6.6287,6.5434,6.4601,6.3802,6.3249,6.3149,6.3697,6.4023,6.3902,6.4957,6.5057,6.355,6.3299,6.345,6.3927,6.3776,6.3927,6.4425,6.5534,6.5835,6.5329,6.5835,6.609,6.609,6.609,6.609,6.609,6.609,6.609,6.609,6.5875,6.5767,6.5746,6.5508,6.5551,6.5724,6.5227,6.5313,6.5681,6.5465,6.5227,6.5096,6.9426,7.0407,7.1159,6.9155,6.8817,6.8817,6.8817,6.8817,6.8953,6.9361,6.9406,6.9248,6.884,6.8817,6.8658,6.8246,6.7718,6.7445,6.7449,6.7056,6.6873,6.6969,6.727,6.7511,6.7644,6.7508,6.7449,6.7449,6.696,6.7164,6.8017,6.8017,6.8246,6.8703,6.8703,6.8953,6.9406,6.9406,6.9406,6.9406,6.9406,6.9406,6.9406,6.9406,6.9406,6.9406,6.9406,6.9406,6.9406,6.9406,6.9406,6.9406,6.9406,6.9406,6.9406,6.9406,6.9406,6.9406,6.9406,6.9406,6.9406,6.9406,6.9406,6.9406,6.9406,6.9406,6.9406,6.9406,6.9406,6.9255,6.8801,6.865,6.8249,6.7188,6.6033,6.5078,6.445,6.3626,6.3425,6.4375,6.4626,6.5078,6.5911,6.604,6.6086,6.5986,6.4781,6.4454,6.5358,6.4555,6.4479,6.5383,6.586,6.5886,6.5434,6.5886,6.609,6.609,6.609,6.609,6.609,6.609,6.609,6.6069,6.5681,6.5508,6.5486,6.5421,6.5443,6.5486,6.5421,6.5681,6.6047,6.5638,6.5508,6.5551,6.9406,6.9584,6.9719,6.9361,6.9293,6.9293,6.9293,6.9293,6.9316,6.9406,6.9406,6.9383,6.9293,6.9293,6.927,6.9202,6.8749,6.8489,6.8541,6.8473,6.8647,6.9089,6.8809,6.8834,6.9236,6.8766,6.8543,6.8543,6.8003,6.7827,6.8017,6.8017,6.8246,6.8703,6.8703,6.8953,6.9406,6.9406,6.9406,6.9406,6.9406,6.9406,6.9406,6.9406,6.9406,6.9406,6.9406,6.9406,6.9406,6.9406,6.9406,6.9406,6.9406,6.9406,6.9406,6.9406,6.9406,6.9406,6.9406,6.9406,6.9406,6.9406,6.9406,6.9406,6.9406,6.9406,6.9406,6.9406,6.9406,6.9381,6.928,6.8926,6.8249,6.7188,6.6033,6.4931,6.3952,6.4073,6.43,6.4496,6.5283,6.5735,6.5434,6.5835,6.5911,6.5459,6.5609,6.5789,6.5986,6.5835,6.5789,6.5986,6.604,6.604,6.5986,6.604,6.609,6.609,6.609,6.609,6.609,6.609,6.609,6.609,6.6026,6.5983,6.5961,6.5551,6.5616,6.594,6.5551,6.5681,6.609,6.6026,6.5983,6.6004,6.9406,6.9406,6.9406,6.9406,6.9406,6.9406,6.9406,6.9406,6.9406,6.9406,6.9406,6.9406,6.9406,6.9406,6.9406,6.9406,6.9202,6.9223,6.9563,6.9106,6.8904,6.915,6.954,6.9952,7.0435,6.993,6.9636,6.9621,6.9075,6.8792,6.8747,6.8747,6.886,6.9089,6.9089,6.9202,6.9406,6.9406,6.9406,6.9406,6.9406,6.9406,6.9406,6.9406,6.9406,6.9406,6.9406,6.9406,6.9406,6.9406,6.9406,6.9406,6.9406,6.9406,6.9406,6.9406,6.9406,6.9406,6.9406,6.9406,6.9406,6.9406,6.9406,6.9406,6.9406,6.9406,6.9406,6.9406,6.9406,6.9406,6.9406,6.9205,6.8776,6.7995,6.6937,6.5832,6.4705,6.4777,6.4927,6.4927,6.5609,6.6137,6.6208,6.6137,6.6011,6.576,6.5939,6.609,6.609,6.609,6.609,6.609,6.609,6.609,6.609,6.609,6.609,6.609,6.609,6.609,6.609,6.609,6.609,6.609,6.609,6.5961,6.5724,6.5746,6.5746,6.5724,6.5746,6.5918,6.609,6.609,6.609,6.609,6.9406,6.9406,6.9406,6.9406,6.9406,6.9406,6.9406,6.9406,6.9406,6.9406,6.9406,6.9406,6.9406,6.9406,6.9406,6.9406,6.9406,6.9604,7.0076,6.9493,6.9251,6.9499,7.0416,7.1077,7.1359,7.0975,7.0726,7.0657,7.013,6.9864,6.9805,6.9805,6.9805,6.9805,6.9805,6.9805,6.9805,6.9679,6.9604,6.9604,6.9456,6.9406,6.9406,6.9406,6.9406,6.9406,6.9406,6.9406,6.9406,6.9406,6.9406,6.9406,6.9406,6.9406,6.9406,6.9406,6.9406,6.9406,6.9406,6.9406,6.9406,6.9406,6.9406,6.9406,6.9406,6.9406,6.9406,6.9406,6.9406,6.9406,6.9406,6.9406,6.918,6.8525,6.7618,6.6686,6.5832,6.5559,6.5584,6.5835,6.6237,6.6689,6.7138,6.6764,6.6513,6.6513,6.6388,6.6312,6.6312,6.6187,6.609,6.609,6.609,6.609,6.609,6.609,6.609,6.609,6.609,6.609,6.609,6.609,6.609,6.609,6.609,6.5896,6.5573,6.594,6.5896,6.5594,6.5961,6.609,6.609,6.609,6.609,6.609,6.9406,6.9406,6.9406,6.9406,6.9406,6.9406,6.9406,6.9406,6.9406,6.9406,6.9406,6.9406,6.9406,6.9406,6.9406,6.9406,6.9406,6.9406,6.9456,6.991,7.0615,7.1619,7.2219,7.2356,7.1955,7.1834,7.1793,7.1766,7.1238,7.0985,7.0958,7.0958,7.0958,7.0958,7.0958,7.0958,7.0932,7.0428,7.0227,7.0177,6.9629,6.9406,6.9406,6.9406,6.9406,6.9406,6.9406,6.9406,6.9406,6.9406,6.9406,6.9406,6.9406,6.9406,6.9406,6.9406,6.9406,6.9406,6.9406,6.9406,6.9406,6.9406,6.9406,6.9406,6.9406,6.9406,6.9406,6.9406,6.9406,6.9406,6.9406,6.9406,6.9055,6.802,6.7389,6.6962,6.6887,6.6388,6.6438,6.7493,6.7643,6.7693,6.7744,6.7693,6.7668,6.7668,6.7191,6.6937,6.6937,6.6413,6.609,6.609,6.609,6.609,6.609,6.609,6.609,6.609,6.609,6.609,6.609,6.609,6.609,6.609,6.609,6.6069,6.6047,6.609,6.6069,6.6047,6.609,6.609,6.609,6.609,6.609,6.609,6.9406,6.9406,6.9406,6.9406,6.9406,6.9406,6.9406,6.9406,6.9406,6.9406,6.9406,6.9406,6.9406,6.9406,6.9406,6.9406,6.9406,6.9406,6.9406,6.9953,7.078,7.1861,7.2415,7.2622,7.2456,7.2396,7.2215,7.1912,7.1686,7.141,7.1106,7.1106,7.1106,7.1106,7.1106,7.1106,7.1081,7.0551,7.03,7.025,6.9629,6.9406,6.9406,6.9406,6.9406,6.9406,6.9406,6.9406,6.9406,6.9406,6.9406,6.9406,6.9406,6.9406,6.9406,6.9406,6.9406,6.9406,6.9406,6.9406,6.9406,6.9406,6.9406,6.9406,6.9406,6.9406,6.9406,6.9406,6.9406,6.9406,6.9406,6.9406,6.9255,6.8876,6.8625,6.8374,6.8045,6.7772,6.7797,6.8224,6.7995,6.7919,6.8249,6.7995,6.7794,6.7794,6.7593,6.7514,6.7514,6.694,6.6488,6.609,6.609,6.609,6.609,6.609,6.609,6.609,6.609,6.609,6.609,6.609,6.609,6.609,6.609,6.609,6.609,6.609,6.609,6.609,6.609,6.609,6.609,6.609,6.609,6.609,6.9905,6.9654,6.9456,6.9654,6.9529,6.9406,6.9406,6.9406,6.9406,6.9406,6.9406,6.9406,6.9406,6.9406,6.9406,6.9406,6.9406,6.9406,6.9406,6.9953,7.078,7.1861,7.224,7.2516,7.2717,7.2717,7.2516,7.2139,7.2139,7.1962,7.161,7.161,7.161,7.161,7.161,7.161,7.156,7.0855,7.0529,7.0478,6.9705,6.9406,6.9406,6.9406,6.9406,6.9406,6.9406,6.9506,6.9654,6.9456,6.9529,6.9654,6.9456,6.9406,6.9406,6.9406,6.9406,6.9406,6.9406,6.9406,6.9406,6.9406,6.9406,6.9406,6.9406,6.9406,6.9406,6.9406,6.9406,6.9406,6.9406,6.9406,6.9406,6.9406,6.9406,6.9255,6.8901,6.8851,6.8851,6.8851,6.8525,6.845,6.8826,6.8525,6.8299,6.8299,6.8145,6.797,6.7819,6.7464,6.6965,6.6413,6.6388,6.6287,6.609,6.609,6.609,6.609,6.609,6.609,6.609,6.609,6.609,6.609,6.609,6.609,6.609,6.609,6.609,6.609,6.609,6.609,6.609,6.609,6.609,6.609,7.0981,7.0181,6.9604,7.0202,6.9828,6.9406,6.9406,6.9406,6.9406,6.9406,6.9406,6.9406,6.9406,6.9406,6.9406,6.9406,6.9406,6.9406,6.9406,6.9953,7.078,7.1861,7.1912,7.2139,7.2692,7.2717,7.2717,7.2717,7.2717,7.2717,7.2717,7.2717,7.2717,7.2717,7.2717,7.2717,7.2616,7.156,7.1106,7.0983,6.9855,6.9406,6.9406,6.9406,6.9406,6.9406,6.9406,6.9803,7.0202,6.9604,6.9803,7.0177,6.9604,6.9406,6.9406,6.9406,6.9406,6.9406,6.9406,6.9406,6.9406,6.9406,6.9406,6.9406,6.9406,6.9406,6.9406,6.9406,6.9406,6.9406,6.9406,6.9406,6.9406,6.9406,6.9406,6.9406,6.9406,6.9406,6.9406,6.9406,6.9406,6.9406,6.9406,6.9406,6.9406,6.9406,6.8926,6.8374,6.7819,6.7819,6.7543,6.7012,6.7012,6.6736,6.609,6.609,6.609,6.609,6.609,6.609,6.609,6.609,6.609,6.609,6.609,6.609,6.609,6.609,6.609,6.609,6.609,6.609,6.609,6.609,6.609,6.609,7.0526,7.0252,7.0227,7.0755,7.0403,7.0026,7.0026,7.0026,6.9878,6.9456,6.9406,6.9406,6.9406,6.9406,6.9406,6.9406,6.9406,6.9406,6.9406,6.9953,7.0604,7.1332,7.1711,7.2139,7.2692,7.2717,7.2717,7.2717,7.2717,7.2717,7.2717,7.2717,7.2717,7.2717,7.2717,7.2491,7.2089,7.1384,7.088,7.0478,6.9705,6.9406,6.9406,6.9406,6.9406,6.9456,6.9878,7.0152,7.0275,7.0102,7.0152,7.0177,6.9604,6.9406,6.9406,6.9406,6.9406,6.9406,6.9406,6.9406,6.9406,6.9406,6.9406,6.9406,6.9406,6.9406,6.9406,6.9406,6.9406,6.9406,6.9406,6.9406,6.9406,6.9406,6.9406,6.9406,6.9406,6.9406,6.9406,6.9406,6.9406,6.9406,6.9406,6.9406,6.9406,6.9406,6.9255,6.8926,6.8374,6.8349,6.812,6.7568,6.7543,6.7292,6.6736,6.6312,6.609,6.609,6.609,6.609,6.609,6.609,6.609,6.609,6.609,6.609,6.609,6.609,6.609,6.609,6.609,6.609,6.609,6.609,6.609,6.609,7.093,7.0755,7.078,7.1309,7.0981,7.0529,7.035,7.03,7.0076,6.9481,6.9406,6.9406,6.9406,6.9406,6.9406,6.9406,6.9406,6.9406,6.9406,6.9953,7.0529,7.1081,7.161,7.2139,7.2692,7.2717,7.2717,7.2717,7.2717,7.2717,7.2717,7.2717,7.2717,7.2717,7.2717,7.239,7.1861,7.1332,7.078,7.025,6.9629,6.9406,6.9406,6.9406,6.9406,6.9456,6.9828,7.0227,7.0579,7.0376,7.03,7.0177,6.9604,6.9406,6.9406,6.9406,6.9406,6.9406,6.9406,6.9406,6.9406,6.9406,6.9406,6.9406,6.9406,6.9406,6.9406,6.9406,6.9406,6.9406,6.9406,6.9406,6.9406,6.9406,6.9406,6.9406,6.9406,6.9406,6.9406,6.9406,6.9406,6.9406,6.9406,6.9406,6.9406,6.9406,6.9406,6.9255,6.8929,6.8926,6.8675,6.8123,6.812,6.7869,6.7339,6.6739,6.6338,6.609,6.609,6.609,6.609,6.609,6.609,6.609,6.609,6.609,6.609,6.609,6.609,6.609,6.609,6.609,6.609,6.609,6.609,6.609,7.1912,7.151,7.1334,7.1887,7.151,7.1006,7.0526,7.0378,7.0152,6.9579,6.9431,6.9406,6.9406,6.9406,6.9406,6.9406,6.9406,6.9406,6.9406,7.0003,7.0579,7.1081,7.1661,7.219,7.2692,7.2717,7.2717,7.2717,7.2717,7.2717,7.2717,7.2717,7.2717,7.2717,7.2717,7.2365,7.1811,7.1332,7.0755,7.0177,6.9629,6.9406,6.9406,6.9406,6.9406,6.9406,6.9456,7.0179,7.1031,7.0579,7.0401,7.0202,6.9705,6.9481,6.9406,6.9506,6.9481,6.9406,6.9456,6.9431,6.9406,6.9406,6.9406,6.9406,6.9406,6.9406,6.9406,6.9406,6.9431,6.9481,6.9481,6.9506,6.9531,6.9481,6.9481,6.9456,6.9406,6.9406,6.9406,6.9406,6.9406,6.9406,6.9406,6.9406,6.9406,6.9406,6.9406,6.9406,6.9406,6.9406,6.918,6.8701,6.8675,6.8399,6.7869,6.7389,6.6836,6.6187,6.6137,6.609,6.609,6.609,6.609,6.609,6.609,6.609,6.609,6.609,6.609,6.609,6.609,6.609,6.609,6.609,6.609,6.609,7.1912,7.1811,7.1912,7.2441,7.2064,7.1686,7.156,7.1207,7.0729,7.0177,6.9679,6.9406,6.9406,6.9406,6.9406,6.9406,6.9406,6.9406,6.9406,7.0355,7.0981,7.1106,7.2037,7.2591,7.2717,7.2717,7.2717,7.2717,7.2717,7.2717,7.2717,7.2717,7.2717,7.2717,7.2717,7.2164,7.1282,7.1156,7.0531,6.9579,6.9456,6.9406,6.9406,6.9406,6.9406,6.9456,6.9928,7.0529,7.1156,7.1435,7.1006,7.035,7.0654,7.0106,6.9582,7.048,7.0106,6.9481,6.9978,6.9755,6.9406,6.9406,6.9406,6.9406,6.9406,6.9406,6.9406,6.9406,6.9777,7.0102,7.0102,7.0453,7.0581,7.0177,7.0102,6.9928,6.9456,6.9406,6.9406,6.9406,6.9406,6.9406,6.9406,6.9406,6.9406,6.9406,6.9406,6.9406,6.9406,6.9406,6.9356,6.923,6.923,6.8977,6.8424,6.8299,6.7769,6.6811,6.6338,6.609,6.609,6.609,6.609,6.609,6.609,6.609,6.609,6.609,6.609,6.609,6.609,6.609,6.609,6.609,6.609,6.6187,7.1962,7.2113,7.2365,7.2666,7.2466,7.219,7.1937,7.1435,7.0905,7.0376,6.9777,6.9406,6.9406,6.9406,6.9406,6.9406,6.9406,6.9506,6.9828,7.0629,7.1232,7.146,7.2265,7.2717,7.2717,7.2717,7.2717,7.2717,7.2717,7.2717,7.2717,7.2717,7.2717,7.2717,7.2717,7.2089,7.1106,7.1106,7.0606,6.9803,6.9506,6.9579,6.9803,6.9506,6.9406,6.9431,6.9755,7.0405,7.1156,7.141,7.1332,7.1081,7.1106,7.0506,6.9953,7.0554,7.0302,6.9903,7.0202,7.0076,6.9828,6.9828,6.9604,6.9406,6.9406,6.9406,6.9406,6.9406,6.9878,7.0202,6.9928,7.0531,7.0807,7.0003,7.0102,7.0102,6.9481,6.9406,6.9406,6.9406,6.9406,6.9406,6.9406,6.9406,6.9406,6.9406,6.9406,6.9406,6.9406,6.9406,6.9406,6.9406,6.9406,6.9255,6.8979,6.8726,6.8324,6.7744,6.6915,6.6388,6.609,6.609,6.609,6.609,6.609,6.609,6.609,6.609,6.609,6.609,6.609,6.609,6.609,6.609,6.6287,6.6614,7.2114,7.239,7.2717,7.2717,7.2717,7.2541,7.2089,7.1585,7.1056,7.0526,6.9928,6.9506,6.9406,6.9406,6.9406,6.9406,6.9406,6.9654,7.0275,7.0805,7.1334,7.1887,7.2415,7.2717,7.2717,7.2717,7.2717,7.2717,7.2717,7.2717,7.2717,7.2717,7.2717,7.2717,7.2717,7.2163,7.1257,7.1257,7.093,7.0378,6.978,6.9853,7.0227,6.9629,6.9406,6.9406,6.9406,7.0081,7.0981,7.1182,7.146,7.1711,7.146,7.093,7.0428,7.0529,7.0428,7.0325,7.0426,7.0376,7.03,7.03,6.9928,6.9529,6.9406,6.9406,6.9431,6.9529,7.0029,7.0302,6.9905,7.0658,7.1008,6.988,7.0104,7.0202,6.9481,6.9406,6.9406,6.9406,6.9406,6.9406,6.9406,6.9406,6.9406,6.9406,6.9406,6.9406,6.9406,6.9406,6.9406,6.9406,6.9406,6.9406,6.9406,6.8977,6.8701,6.86,6.7593,6.6836,6.6262,6.6162,6.609,6.609,6.609,6.609,6.609,6.609,6.609,6.609,6.609,6.609,6.609,6.609,6.6488,6.7087,7.2616,7.2666,7.2717,7.2717,7.2717,7.2692,7.2616,7.2139,7.1585,7.1056,7.0529,6.9978,6.9456,6.9406,6.9406,6.9406,6.9406,6.9654,7.0275,7.0805,7.1334,7.1887,7.2415,7.2717,7.2717,7.2717,7.2717,7.2717,7.2717,7.2717,7.2717,7.2717,7.2717,7.2717,7.2717,7.2365,7.1786,7.1786,7.1485,7.0956,7.0403,7.0227,7.0227,6.9629,6.9406,6.9406,6.9406,6.983,7.0529,7.146,7.1535,7.1359,7.2215,7.1811,7.1081,7.1535,7.1031,7.0378,7.088,7.0654,7.03,7.03,7.0227,7.0051,6.9506,6.9406,6.9554,7.0076,7.0604,7.1131,7.151,7.2064,7.2114,7.1033,7.0956,7.0606,6.9556,6.9406,6.9406,6.9406,6.9406,6.9406,6.9406,6.9406,6.9406,6.9406,6.9406,6.9406,6.9406,6.9406,6.9406,6.9406,6.9406,6.9406,6.9406,6.9331,6.9077,6.86,6.7995,6.7414,6.6861,6.6338,6.609,6.609,6.609,6.609,6.609,6.609,6.609,6.609,6.609,6.609,6.609,6.609,6.6488,6.7087,7.2717,7.2717,7.2717,7.2717,7.2717,7.2717,7.2717,7.224,7.1711,7.1182,7.0629,7.0076,6.9456,6.9406,6.9406,6.9406,6.9705,7.0129,7.0704,7.1234,7.1786,7.2315,7.2566,7.2717,7.2717,7.2717,7.2717,7.2717,7.2717,7.2717,7.2717,7.2717,7.2717,7.2717,7.2717,7.239,7.1912,7.1912,7.1761,7.1485,7.0956,7.093,7.1106,7.0229,6.9903,6.9853,6.9506,6.9803,7.0376,7.0855,7.1056,7.1182,7.1661,7.1282,7.0755,7.1307,7.1131,7.0855,7.1384,7.1156,7.0755,7.0755,7.0503,7.0227,6.9953,7.0129,7.033,7.0325,7.0956,7.151,7.146,7.2139,7.234,7.1259,7.1106,7.083,7.0003,6.9604,6.9406,6.9406,6.9406,6.9406,6.9406,6.9406,6.9406,6.9406,6.9406,6.9406,6.9406,6.9406,6.9406,6.9406,6.9406,6.9406,6.9406,6.9406,6.928,6.9029,6.85,6.7819,6.6987,6.6388,6.609,6.609,6.609,6.609,6.609,6.609,6.609,6.609,6.609,6.609,6.6187,6.6815,6.7216,6.7518]},{"header":{"parameterUnit":"m.s-1","parameterCategory":1,"la1":30.6,"la2":28.766,"lo1":-90.7593,"lo2":-88.6598,"dx":0.0162,"dy":0.0183,"nx":116,"ny":114,"refTime":"2022-11-15T18:00:00:Z","depth":0,"parameterNumber":3,"parameterNumberName":"V-component_of_WINDS"},"data":[0.0,0.0,0.0,0.0,0.0,0.0,0.0,0.0,0.0,0.0,0.0,0.0,0.0,0.0,0.0,0.0,0.0,0.0,0.0,0.0,0.0,0.0,0.0,0.0,0.0,0.0,0.0,0.0,0.0,0.0,0.0,0.0,0.0,0.0,0.0,0.0,0.0,0.0,0.0,0.0,0.0,0.0,0.0,0.0,0.0,0.0,0.0,0.0,0.0,0.0,0.0,0.0,0.0,0.0,0.0,0.0,0.0,0.0,0.0,0.0,0.0,0.0,0.0,0.0,0.0,0.0,0.0,0.0,0.0,0.0,0.0,0.0,0.0,0.0,0.0,0.0,0.0,0.0,0.0,0.0,0.0,0.0,0.0,0.0,0.0,0.0,0.0,0.0,0.0,0.0,0.0,0.0,0.0,0.0,0.0,0.0,0.0,0.0,0.0,0.0,0.0,0.0,0.0,0.0,0.0,0.0,0.0,0.0,0.0,0.0,0.0,0.0,0.0,0.0,0.0,0.0,0.0,0.0,0.0,0.0,0.0,0.0,0.0,0.0,0.0,0.0,0.0,0.0,0.0,0.0,0.0,0.0,0.0,0.0,0.0,0.0,0.0,0.0,0.0,0.0,0.0,0.0,0.0,0.0,0.0,0.0,0.0,0.0,0.0,0.0,0.0,0.0,0.0,0.0,0.0,0.0,0.0,0.0,0.0,0.0,0.0,0.0,0.0,0.0,0.0,0.0,0.0,0.0,0.0,0.0,0.0,0.0,0.0,0.0,0.0,0.0,0.0,0.0,0.0,0.0,0.0,0.0,0.0,0.0,0.0,0.0,0.0,0.0,0.0,0.0,0.0,0.0,0.0,0.0,0.0,0.0,0.0,0.0,0.0,0.0,0.0,0.0,0.0,0.0,0.0,0.0,0.0,0.0,0.0,0.0,0.0,0.0,0.0,0.0,0.0,0.0,0.0,0.0,0.0,0.0,0.0,0.0,0.0,0.0,0.0,0.0,0.0,0.0,0.0,0.0,0.0,0.0,0.0,0.0,0.0,0.0,0.0,0.0,0.0,0.0,0.0,0.0,0.0,0.0,0.0,0.0,0.0,0.0,0.0,0.0,0.0,0.0,0.0,0.0,0.0,0.0,0.0,0.0,0.0,0.0,0.0,0.0,0.0,0.0,0.0,0.0,0.0,0.0,0.0,0.0,0.0,0.0,0.0,0.0,0.0,0.0,0.0,0.0,0.0,0.0,0.0,0.0,0.0,0.0,0.0,0.0,0.0,0.0,0.0,0.0,0.0,0.0,0.0,0.0,0.0,0.0,0.0,0.0,0.0,0.0,0.0,0.0,0.0,0.0,0.0,0.0,0.0,0.0,0.0,0.0,0.0,0.0,0.0,0.0,0.0,0.0,0.0,0.0,0.0,0.0,0.0,0.0,0.0,0.0,0.0,0.0,0.0,0.0,0.0,0.0,0.0,0.0,0.0,0.0,0.0,0.0,0.0,0.0,0.0,0.0,0.0,0.0,0.0,0.0,0.0,0.0,0.0,0.0,0.0,0.0,0.0,0.0,0.0,0.0,0.0,0.0,0.0,0.0,0.0,0.0,0.0,0.0,0.0,0.0,0.0,0.0,0.0,0.0,0.0,0.0,0.0,0.0,0.0,0.0,0.0,0.0,0.0,0.0,0.0,0.0,0.0,0.0,0.0,0.0,0.0,0.0,0.0,0.0,0.0,0.0,0.0,0.0,0.0,0.0,0.0,0.0,0.0,0.0,0.0,0.0,0.0,0.0,0.0,0.0,0.0,0.0,0.0,0.0,0.0,0.0,0.0,0.0,0.0,0.0,0.0,0.0,0.0,0.0,0.0,0.0,0.0,0.0,0.0,0.0,0.0,0.0,0.0,0.0,0.0,0.0,0.0,0.0,0.0,0.0,0.0,0.0,0.0,0.0,0.0,0.0,0.0,0.0,0.0,0.0,0.0,0.0,0.0,0.0,0.0,0.0,0.0,0.0,0.0,0.0,0.0,0.0,0.0,0.0,0.0,0.0,0.0,0.0,0.0,0.0,0.0,0.0,0.0,0.0,0.0,0.0,0.0,0.0,0.0,0.0,0.0,0.0,0.0,0.0,0.0,0.0,0.0,0.0,0.0,0.0,0.0,0.0,0.0,0.0,0.0,0.0,0.0,0.0,0.0,0.0,0.0,0.0,0.0,0.0,0.0,0.0,0.0,0.0,0.0,0.0,0.0,0.0,0.0,0.0,0.0,0.0,0.0,0.0,0.0,0.0,0.0,0.0,0.0,0.0,0.0,0.0,0.0,0.0,0.0,0.0,0.0,0.0,0.0,0.0,0.0,0.0,0.0,0.0,0.0,0.0,0.0,0.0,0.0,0.0,0.0,0.0,0.0,0.0,0.0,0.0,0.0,0.0,0.0,0.0,0.0,0.0,0.0,0.0,0.0,0.0,0.0,0.0,0.0,0.0,0.0,0.0,0.0,0.0,0.0,0.0,0.0,0.0,0.0,0.0,0.0,0.0,0.0,0.0,0.0,0.0,0.0,0.0,0.0,0.0,0.0,0.0,0.0,0.0,0.0,0.0,0.0,0.0,0.0,0.0,0.0,0.0,0.0,0.0,0.0,0.0,0.0,0.0,0.0,0.0,0.0,0.0,0.0,0.0,0.0,0.0,0.0,0.0,0.0,0.0,0.0,0.0,0.0,0.0,0.0,0.0,0.0,0.0,0.0,0.0,0.0,0.0,0.0,0.0,0.0,0.0,0.0,0.0,0.0,0.0,0.0,0.0,0.0,0.0,0.0,0.0,0.0,0.0,0.0,0.0,0.0,0.0,0.0,0.0,0.0,0.0,0.0,0.0,0.0,0.0,0.0,0.0,0.0,0.0,0.0,0.0,0.0,0.0,0.0,0.0,0.0,0.0,0.0,0.0,0.0,0.0,0.0,0.0,0.0,0.0,0.0,0.0,0.0,0.0,0.0,0.0,0.0,0.0,0.0,0.0,0.0,0.0,0.0,0.0,0.0,0.0,0.0,0.0,0.0,0.0,0.0,0.0,0.0,0.0,0.0,0.0,0.0,0.0,0.0,0.0,0.0,0.0,0.0,0.0,0.0,0.0,0.0,0.0,0.0,0.0,0.0,0.0,0.0,0.0,0.0,0.0,0.0,0.0,0.0,0.0,0.0,0.0,0.0,0.0,0.0,0.0,0.0,0.0,0.0,0.0,0.0,0.0,0.0,0.0,0.0,0.0,0.0,0.0,0.0,0.0,0.0,0.0,0.0,0.0,0.0,0.0,0.0,0.0,0.0,0.0,0.0,0.0,0.0,0.0,0.0,0.0,0.0,0.0,0.0,0.0,0.0,0.0,0.0,0.0,0.0,0.0,0.0,0.0,0.0,0.0,0.0,0.0,0.0,0.0,0.0,0.0,0.0,0.0,0.0,0.0,0.0,0.0,0.0,0.0,0.0,0.0,0.0,0.0,0.0,0.0,0.0,0.0,0.0,0.0,0.0,0.0,0.0,0.0,0.0,0.0,0.0,0.0,0.0,0.0,0.0,0.0,0.0,0.0,0.0,0.0,0.0,0.0,0.0,0.0,0.0,0.0,0.0,0.0,0.0,0.0,0.0,0.0,0.0,0.0,0.0,0.0,0.0,0.0,0.0,0.0,0.0,0.0,0.0,0.0,0.0,0.0,0.0,0.0,0.0,0.0,0.0,0.0,0.0,0.0,0.0,0.0,0.0,0.0,0.0,0.0,0.0,0.0,0.0,0.0,0.0,0.0,0.0,0.0,0.0,0.0,0.0,0.0,0.0,0.0,0.0,0.0,0.0,0.0,0.0,0.0,0.0,0.0,0.0,0.0,0.0,0.0,0.0,0.0,0.0,0.0,0.0,0.0,0.0,0.0,0.0,0.0,0.0,0.0,0.0,0.0,0.0,0.0,0.0,0.0,0.0,0.0,0.0,0.0,0.0,0.0,0.0,0.0,0.0,0.0,0.0,0.0,0.0,0.0,0.0,0.0,0.0,0.0,0.0,0.0,0.0,0.0,0.0,0.0,0.0,0.0,0.0,0.0,0.0,0.0,0.0,0.0,0.0,0.0,0.0,0.0,0.0,0.0,0.0,0.0,0.0,0.0,0.0,0.0,0.0,0.0,0.0,0.0,0.0,0.0,0.0,0.0,0.0,0.0,0.0,0.0,0.0,0.0,0.0,0.0,0.0,0.0,0.0,0.0,0.0,0.0,0.0,0.0,0.0,0.0,0.0,0.0,0.0,0.0,0.0,0.0,0.0,0.0,0.0,0.0,0.0,0.0,0.0,0.0,0.0,0.0,0.0,0.0,0.0,0.0,0.0,0.0,0.0,0.0,0.0,0.0,0.0,0.0,0.0,0.0,0.0,0.0,0.0,0.0,0.0,0.0,0.0,0.0,0.0,0.0,0.0,0.0,0.0,0.0,0.0,0.0,0.0,0.0,0.0,0.0,0.0,0.0,0.0,0.0,0.0,0.0,0.0,0.0,0.0,0.0,0.0,0.0,0.0,0.0,0.0,0.0,0.0,0.0,0.0,0.0,0.0,0.0,0.0,0.0,0.0,0.0,0.0,0.0,0.0,0.0,0.0,0.0,0.0,0.0,0.0,0.0,0.0,0.0,0.0,0.0,0.0,0.0,0.0,0.0,0.0,0.0,0.0,0.0,0.0,0.0,0.0,0.0,0.0,0.0,0.0,0.0,0.0,0.0,0.0,0.0,0.0,0.0,0.0,0.0,0.0,0.0,0.0,0.0,0.0,0.0,0.0,0.0,0.0,0.0,0.0,0.0,0.0,0.0,0.0,0.0,0.0,0.0,0.0,0.0,0.0,0.0,0.0,0.0,0.0,0.0,0.0,0.0,0.0,0.0,0.0,0.0,0.0,0.0,0.0,0.0,0.0,0.0,0.0,0.0,0.0,0.0,0.0,0.0,0.0,0.0,0.0,0.0,0.0,0.0,0.0,0.0,0.0,0.0,0.0,0.0,0.0,0.0,0.0,0.0,0.0,0.0,0.0,0.0,0.0,0.0,0.0,0.0,0.0,0.0,0.0,0.0,0.0,0.0,0.0,0.0,0.0,0.0,0.0,0.0,0.0,0.0,0.0,0.0,0.0,0.0,0.0,0.0,0.0,0.0,0.0,0.0,0.0,0.0,0.0,0.0,0.0,0.0,0.0,0.0,0.0,0.0,0.0,0.0,0.0,0.0,0.0,0.0,0.0,0.0,0.0,0.0,0.0,0.0,0.0,0.0,0.0,0.0,0.0,0.0,0.0,0.0,0.0,0.0,0.0,0.0,0.0,0.0,0.0,0.0,0.0,0.0,0.0,0.0,0.0,0.0,0.0,0.0,0.0,0.0,0.0,0.0,0.0,0.0,0.0,0.0,0.0,0.0,0.0,0.0,0.0,0.0,0.0,0.0,0.0,0.0,0.0,0.0,0.0,0.0,0.0,0.0,0.0,0.0,0.0,0.0,0.0,0.0,0.0,0.0,0.0,0.0,0.0,0.0,0.0,0.0,0.0,0.0,0.0,0.0,0.0,0.0,0.0,0.0,0.0,0.0,0.0,0.0,0.0,0.0,0.0,0.0,0.0,0.0,0.0,0.0,0.0,0.0,0.0,0.0,0.0,0.0,0.0,0.0,0.0,0.0,0.0,0.0,0.0,0.0,0.0,0.0,0.0,0.0,0.0,0.0,0.0,0.0,0.0,0.0,0.0,0.0,0.0,0.0,0.0,0.0,0.0,0.0,0.0,0.0,0.0,0.0,0.0,0.0,0.0,0.0,0.0,0.0,0.0,0.0,0.0,0.0,0.0,0.0,0.0,0.0,0.0,0.0,0.0,0.0,0.0,0.0,0.0,0.0,0.0,0.0,0.0,0.0,0.0,0.0,0.0,0.0,0.0,0.0,0.0,0.0,0.0,0.0,0.0,0.0,0.0,0.0,0.0,0.0,0.0,0.0,0.0,0.0,0.0,0.0,0.0,0.0,0.0,0.0,0.0,0.0,0.0,0.0,0.0,0.0,0.0,0.0,0.0,0.0,0.0,0.0,0.0,0.0,0.0,0.0,0.0,0.0,0.0,0.0,2.8757,2.5633,0.0,0.0,0.0,0.0,0.0,0.0,0.0,0.0,0.0,0.0,0.0,0.0,0.0,0.0,0.0,0.0,0.0,0.0,0.0,0.0,0.0,0.0,0.0,1.702,1.7156,1.6808,1.7031,0.0,0.0,0.0,0.0,0.0,0.0,0.0,1.6727,1.73,1.7993,1.879,2.0055,2.1998,2.4537,2.4552,2.3085,2.0442,0.0,0.0,0.0,0.0,0.0,0.0,0.0,0.0,0.0,0.0,0.0,0.0,0.0,0.0,0.0,0.0,0.0,0.0,0.0,0.0,0.0,0.0,0.0,0.0,0.0,0.0,0.0,0.0,0.0,0.0,0.0,0.0,0.0,0.0,0.0,0.0,0.0,0.0,0.0,0.0,0.0,0.0,0.0,0.0,0.0,0.0,0.0,0.0,0.0,0.0,0.0,0.0,0.0,0.0,0.0,0.0,0.0,0.0,0.0,0.0,0.0,0.0,0.0,0.0,0.0,0.0,0.0,0.0,0.0,0.0,3.1382,2.9777,0.0,0.0,0.0,0.0,0.0,0.0,0.0,0.0,0.0,0.0,0.0,0.0,0.0,0.0,0.0,0.0,0.0,0.0,0.0,0.0,0.0,1.7232,1.7627,1.7813,1.7885,1.7891,1.7904,1.7745,1.7342,1.7227,0.0,0.0,0.0,0.0,1.7933,1.8571,1.9688,2.128,2.321,2.5999,2.9533,3.0797,2.8166,2.2396,2.2791,0.0,0.0,0.0,0.0,0.0,0.0,0.0,0.0,0.0,0.0,0.0,0.0,0.0,0.0,0.0,0.0,0.0,0.0,0.0,0.0,0.0,0.0,0.0,0.0,0.0,0.0,0.0,0.0,0.0,0.0,0.0,0.0,0.0,0.0,0.0,0.0,0.0,0.0,0.0,0.0,0.0,0.0,0.0,0.0,0.0,0.0,0.0,0.0,0.0,0.0,0.0,0.0,0.0,0.0,0.0,0.0,0.0,0.0,0.0,0.0,0.0,0.0,0.0,3.286,3.3219,3.3663,3.4084,3.4563,3.5012,3.4105,3.4426,3.5314,3.2075,0.0,0.0,0.0,0.0,0.0,0.0,0.0,0.0,0.0,0.0,0.0,0.0,0.0,0.0,0.0,0.0,0.0,0.0,0.0,1.8116,1.9013,1.8846,1.8978,1.9761,1.9887,1.9873,1.9751,1.9356,0.0,0.0,0.0,1.9141,2.0472,2.0219,2.1746,2.5162,2.8193,3.0155,3.1094,3.1315,3.0539,2.9054,2.9737,2.8525,2.598,0.0,0.0,0.0,0.0,0.0,0.0,0.0,0.0,0.0,0.0,0.0,0.0,0.0,0.0,0.0,0.0,0.0,0.0,0.0,0.0,0.0,0.0,0.0,0.0,0.0,0.0,0.0,0.0,0.0,0.0,0.0,0.0,0.0,0.0,0.0,0.0,0.0,0.0,0.0,0.0,0.0,2.6671,2.9248,0.0,0.0,0.0,0.0,0.0,0.0,0.0,0.0,0.0,0.0,0.0,0.0,0.0,3.2991,3.3056,3.4917,3.591,3.6062,3.7745,3.8587,3.8653,3.9137,3.961,3.9947,3.8155,0.0,3.6477,3.5946,0.0,0.0,0.0,0.0,0.0,0.0,0.0,0.0,0.0,0.0,0.0,0.0,0.0,0.0,0.0,0.0,0.0,0.0,0.0,0.0,0.0,2.1504,2.2007,2.241,2.3305,2.332,2.2131,2.213,0.0,0.0,2.0947,2.1166,2.1879,2.221,2.4723,2.9494,3.2476,3.4793,3.6512,3.6515,3.6505,3.6478,3.6504,3.363,2.8769,2.8929,0.0,0.0,0.0,0.0,0.0,0.0,0.0,0.0,0.0,0.0,0.0,0.0,0.0,0.0,0.0,0.0,0.0,0.0,0.0,0.0,0.0,0.0,0.0,0.0,0.0,0.0,0.0,0.0,0.0,0.0,0.0,0.0,0.0,0.0,0.0,0.0,0.0,0.0,0.0,2.7339,2.9352,3.047,3.1288,3.0988,0.0,0.0,0.0,0.0,0.0,0.0,0.0,0.0,0.0,3.3885,3.5907,3.6614,3.583,3.8536,4.0213,4.0808,4.08,4.1518,4.2841,4.2208,4.2044,4.2175,4.1022,4.0454,4.0186,3.8001,3.6974,3.6624,0.0,0.0,0.0,0.0,3.1987,3.2394,0.0,0.0,0.0,0.0,0.0,0.0,0.0,0.0,0.0,0.0,0.0,0.0,2.2987,2.4162,2.5054,2.558,2.6599,2.6428,2.4604,2.4724,2.4209,2.271,2.2942,2.3256,2.3578,2.5542,2.8854,3.3541,3.6029,3.8429,4.07,4.0549,4.0775,4.1264,4.0725,3.732,3.1974,3.1894,3.066,2.87,0.0,0.0,0.0,0.0,0.0,0.0,0.0,0.0,0.0,0.0,0.0,0.0,0.0,0.0,0.0,0.0,0.0,0.0,0.0,0.0,0.0,0.0,0.0,0.0,0.0,0.0,0.0,0.0,0.0,0.0,0.0,0.0,0.0,0.0,0.0,0.0,0.0,3.0047,3.1636,3.2292,3.3944,3.4235,0.0,0.0,0.0,0.0,0.0,0.0,3.5936,3.7271,3.7836,3.7455,3.9714,4.0446,3.9449,4.1918,4.373,4.4803,4.3543,4.4131,4.6209,4.4889,4.4323,4.4413,4.3771,4.3771,4.3959,4.0226,3.8616,3.8472,3.776,3.6513,3.509,3.4725,3.4659,3.4787,0.0,0.0,0.0,0.0,0.0,0.0,0.0,0.0,0.0,0.0,0.0,2.3873,2.5277,2.6115,2.7364,2.9357,2.9134,2.838,2.7197,2.6661,2.5868,2.4703,2.4738,2.5252,2.6288,3.0979,3.4566,3.6936,3.8693,4.0136,4.1239,4.0725,4.0775,4.1264,4.0725,3.9132,3.6776,3.5699,3.4307,3.2563,2.9871,0.0,0.0,0.0,0.0,0.0,0.0,0.0,0.0,0.0,0.0,0.0,0.0,0.0,0.0,0.0,0.0,0.0,0.0,0.0,0.0,0.0,0.0,0.0,0.0,0.0,0.0,0.0,0.0,0.0,0.0,0.0,0.0,0.0,0.0,0.0,0.0,0.0,0.0,3.602,3.8009,0.0,0.0,0.0,0.0,3.8069,3.7212,3.8166,4.1596,4.1813,4.2912,4.5333,4.5028,4.4887,4.5006,4.5149,4.5857,4.7038,4.6579,4.7157,4.8591,4.7637,4.7421,4.7804,4.6832,4.6674,4.684,4.352,4.1958,4.152,4.0107,3.9002,3.8029,3.6676,3.7037,3.8145,0.0,0.0,0.0,1.8422,1.8684,1.8946,1.905,1.9895,2.081,2.1615,2.356,2.5444,2.7033,2.9031,3.0695,3.1828,3.3064,3.3132,3.1627,3.1058,3.0069,2.8605,2.7516,2.7804,2.9613,3.3833,3.6947,3.8806,4.0502,4.2046,4.341,4.2872,4.2922,4.341,4.2872,4.2183,4.1304,3.9145,3.7236,3.5627,3.426,3.2114,0.0,0.0,0.0,0.0,0.0,0.0,0.0,0.0,0.0,0.0,0.0,0.0,0.0,0.0,0.0,0.0,0.0,0.0,0.0,0.0,0.0,0.0,0.0,0.0,0.0,0.0,0.0,0.0,0.0,0.0,0.0,0.0,0.0,0.0,0.0,0.0,0.0,3.8545,4.0589,0.0,4.1228,4.0834,4.0883,4.1552,4.2988,4.3878,4.3929,4.5114,4.5953,4.6365,4.736,4.765,4.7211,4.8404,4.9238,4.9713,4.8519,4.8917,5.0614,4.9324,4.8839,4.8962,4.8256,4.8044,4.8092,4.6612,4.5588,4.4855,4.421,4.3835,4.364,4.3361,4.3434,4.3719,0.0,0.0,0.0,1.8877,1.9162,1.9453,1.9572,2.0521,2.1758,2.3226,2.5511,2.772,2.9578,3.1903,3.3635,3.441,3.5979,3.6068,3.4022,3.3746,3.2742,3.0698,3.0412,3.1627,3.4399,3.7161,3.9496,4.1354,4.2674,4.403,4.5443,4.5081,4.5106,4.5417,4.488,4.4543,4.4217,4.2007,4.0237,3.8768,3.7273,3.4913,3.2118,0.0,0.0,0.0,0.0,0.0,0.0,0.0,0.0,0.0,0.0,0.0,0.0,0.0,0.0,0.0,0.0,0.0,0.0,0.0,0.0,0.0,0.0,0.0,0.0,0.0,0.0,0.0,0.0,0.0,0.0,0.0,0.0,0.0,0.0,3.6664,3.9391,4.0198,4.2287,4.366,4.375,4.3587,4.3956,4.511,4.6678,4.7368,4.6843,4.8037,4.8678,4.8546,4.9702,5.023,4.9962,5.1378,5.2307,5.2732,5.1713,5.2103,5.3633,5.2543,5.1844,5.1483,5.1314,5.1049,5.067,5.0554,5.0245,4.9635,4.7659,4.6799,4.6767,4.7227,4.717,4.6998,0.0,0.0,1.9965,1.9824,1.9811,1.9987,2.0623,2.1601,2.3068,2.5259,2.8056,3.0643,3.2813,3.4564,3.6021,3.7123,3.7764,3.6948,3.4198,3.4488,3.3585,3.0849,3.3348,3.661,4.0437,4.1088,4.2482,4.464,4.5246,4.61,4.7124,4.7124,4.7124,4.7099,4.6587,4.605,4.5487,4.4342,4.3277,4.1998,3.8693,3.6647,3.5344,0.0,0.0,0.0,0.0,0.0,0.0,0.0,0.0,0.0,0.0,0.0,0.0,0.0,0.0,0.0,0.0,0.0,0.0,0.0,0.0,0.0,0.0,0.0,0.0,0.0,0.0,0.0,0.0,0.0,0.0,0.0,0.0,0.0,3.591,3.8172,4.0254,4.1224,4.3292,4.524,4.6772,4.6193,4.6644,4.882,4.7954,4.8292,5.0531,5.0637,5.1165,5.2307,5.2274,5.2654,5.3477,5.4018,5.4871,5.6015,5.6149,5.6678,5.7558,5.7145,5.6401,5.5433,5.5968,5.5566,5.4647,5.5157,5.5666,5.5599,5.0329,4.7824,4.7283,4.8009,4.8026,4.794,1.9817,1.983,1.9843,1.9817,1.9811,1.9987,2.0623,2.1601,2.2817,2.4255,2.7921,3.0748,3.1748,3.5127,3.745,3.7739,3.9383,3.9395,3.7036,3.6634,3.5629,3.3649,3.6257,3.8793,4.1038,4.2808,4.4389,4.5834,4.6386,4.7014,4.7666,4.7666,4.7666,4.7666,4.7516,4.7164,4.6612,4.5909,4.5221,4.4357,4.1833,3.9924,3.8379,0.0,0.0,0.0,0.0,0.0,0.0,0.0,0.0,0.0,0.0,0.0,0.0,0.0,0.0,0.0,0.0,0.0,0.0,0.0,0.0,0.0,0.0,0.0,0.0,0.0,0.0,0.0,0.0,0.0,0.0,0.0,4.0109,4.2143,4.1755,4.28,4.4386,4.6512,4.7303,4.818,4.9441,4.9146,4.9465,5.0902,5.0485,5.0622,5.1631,5.1328,5.1782,5.3272,5.3305,5.3985,5.5433,5.5566,5.6019,5.6717,5.6356,5.6349,5.6591,5.6481,5.6068,5.5408,5.5559,5.5232,5.4622,5.4773,5.4924,5.4945,5.4067,5.3861,5.4144,5.4591,5.443,5.3961,1.9811,1.965,1.9611,1.9779,1.9843,2.0139,2.0909,2.2153,2.357,2.5159,2.8816,3.1577,3.2365,3.5993,3.8379,3.8379,3.996,4.0036,3.7814,3.7374,3.7588,3.8479,4.03,4.2044,4.3697,4.5457,4.6677,4.7346,4.7867,4.8294,4.8611,4.8611,4.8485,4.8275,4.8275,4.7958,4.74,4.7089,4.6662,4.605,4.4532,4.2624,4.0614,3.9496,3.7802,3.6033,3.5819,3.5214,3.4382,3.3729,0.0,0.0,0.0,0.0,0.0,0.0,0.0,0.0,0.0,0.0,0.0,0.0,0.0,0.0,0.0,0.0,0.0,0.0,0.0,0.0,0.0,0.0,0.0,0.0,4.3142,4.5459,4.6863,4.6833,4.7202,4.8679,4.905,4.9558,5.0431,5.0574,5.0965,5.1866,5.2161,5.2427,5.2754,5.2721,5.2997,5.3683,5.416,5.4888,5.5867,5.657,5.7072,5.738,5.7524,5.7455,5.7255,5.7499,5.7173,5.647,5.6922,5.6689,5.6011,5.6237,5.6312,5.6273,0.0,0.0,0.0,0.0,5.6287,5.6045,1.965,1.9461,1.9376,1.9688,1.9918,2.0417,2.1451,2.2949,2.4816,2.7076,3.0206,3.2656,3.3872,3.6972,3.9044,3.917,4.0049,3.9734,3.7701,3.7525,3.9383,4.3614,4.4428,4.5583,4.7249,4.8335,4.8894,4.8894,4.9506,4.9791,4.9791,4.9791,4.9581,4.9154,4.912,4.8752,4.8184,4.8134,4.7767,4.7224,4.6637,4.4859,4.245,4.1304,3.9935,3.8592,3.8128,3.7587,3.7122,3.6996,0.0,0.0,0.0,0.0,0.0,0.0,0.0,0.0,0.0,0.0,0.0,0.0,0.0,0.0,0.0,0.0,0.0,0.0,0.0,0.0,0.0,0.0,0.0,0.0,4.5494,4.7396,5.0736,5.0134,4.9296,4.9095,4.9556,5.0092,5.0628,5.1222,5.1816,5.2352,5.3256,5.3833,5.3884,5.4328,0.0,0.0,0.0,5.5458,5.5566,5.7173,5.8052,5.8177,5.9207,5.9458,5.8987,5.9483,5.9131,5.8227,5.9182,5.8981,5.8027,5.856,5.8786,5.8573,5.6312,5.5223,5.4984,5.5168,5.5443,5.5751,1.8822,1.9298,1.9617,1.9363,2.0016,2.0916,2.1981,2.3201,2.4958,2.7595,3.0422,3.2807,3.4377,3.7538,3.9898,4.075,4.1026,4.0775,3.991,3.9446,4.0576,4.3664,4.5181,4.6753,4.8426,4.9104,4.9455,4.9455,5.046,5.0962,5.0962,5.0962,5.1163,5.1448,5.1013,5.0469,4.9875,4.9464,4.8978,4.8375,4.7365,4.611,4.4733,4.3589,4.2961,4.266,4.2559,4.2171,4.1569,4.0663,3.9709,3.8894,3.8894,3.7474,0.0,0.0,0.0,0.0,0.0,0.0,0.0,0.0,0.0,0.0,0.0,0.0,0.0,0.0,0.0,0.0,0.0,0.0,0.0,4.6522,4.8953,5.077,5.0603,5.1825,5.2251,5.0962,5.1272,5.1825,5.236,5.2912,5.3482,5.4052,5.4321,5.4604,5.5056,5.4755,5.473,5.5039,5.5282,5.5817,5.6677,5.7932,5.8987,5.984,6.0537,0.0,6.0733,6.0833,6.0487,5.984,6.0041,5.9539,5.8585,5.9131,5.9357,5.9207,5.7876,5.7304,5.7166,5.6292,5.6296,5.6603,1.8333,1.8762,1.9206,1.9206,2.0053,2.1006,2.1791,2.3319,2.4892,2.628,2.9343,3.1828,3.2932,3.5768,3.8053,3.9157,3.9759,4.0576,4.1681,4.1756,4.3112,4.6165,4.7104,4.8074,4.9179,4.9464,4.9866,5.046,5.1013,5.1565,5.2101,5.1825,5.185,5.2076,5.154,5.1138,5.082,5.0544,5.0134,4.954,4.8971,4.8109,4.6994,4.5598,4.4869,4.4644,4.4644,4.4292,4.3714,4.3134,4.2797,4.2598,4.2598,4.1443,3.9836,0.0,0.0,0.0,0.0,0.0,0.0,0.0,0.0,0.0,0.0,0.0,0.0,0.0,0.0,4.4256,4.4256,0.0,4.8093,4.8654,5.0628,5.2302,5.2829,5.3858,5.3934,5.2302,5.2829,5.3474,5.3708,5.4235,5.468,5.4981,5.5257,5.5516,5.5792,5.5559,5.5408,5.5408,5.5917,5.6451,5.6985,5.8384,5.9489,6.0317,6.0914,6.121,6.121,6.121,6.1059,6.0738,6.0738,6.0437,5.996,5.991,5.9734,5.9433,5.8905,5.8704,5.8629,5.8052,5.8027,5.8158,1.8136,1.8333,1.8722,1.9133,2.0151,2.1092,2.1569,2.3444,2.4959,2.5385,2.8355,3.0783,3.1647,3.38,3.5656,3.6759,3.8203,4.0087,4.2523,4.3489,4.5347,4.8492,4.8827,4.9154,4.959,4.969,5.0209,5.1138,5.1364,5.195,5.2895,5.246,5.231,5.2402,5.185,5.1599,5.1599,5.1515,5.1172,5.0703,5.0377,4.9715,4.8777,4.7205,4.6351,4.5964,4.5964,4.5633,4.5242,4.5242,4.5482,4.5824,4.5924,4.5196,4.3815,4.1379,4.0802,0.0,0.0,0.0,0.0,0.0,0.0,0.0,0.0,4.2448,4.3693,4.3905,4.5522,4.6903,4.6803,4.8109,4.964,5.0996,5.2159,5.3532,5.529,5.576,5.529,5.3741,5.4436,5.5056,5.5056,5.5559,5.5885,5.5885,5.6294,5.6527,5.6527,5.6627,5.6495,5.6043,5.6979,5.7556,5.7637,5.9106,6.0111,6.0643,6.124,6.1492,6.1492,6.1492,6.1492,6.1512,6.1285,6.126,6.1311,6.0593,6.0091,5.9834,5.9834,5.9885,5.9935,5.9608,5.9483,5.9483,1.8403,1.8572,1.8722,1.9133,2.0435,2.1595,2.2132,2.368,2.5519,2.746,2.9001,3.0668,3.2688,3.3607,3.4513,3.5595,3.8103,4.0149,4.1403,4.3385,4.5558,4.7908,4.8962,4.9556,4.959,5.0067,5.0377,5.0503,5.1523,5.231,5.2895,5.2837,5.3063,5.3507,5.2962,5.2737,5.2686,5.2209,5.1975,5.1774,5.0293,4.9615,4.938,4.8184,4.7666,4.7616,4.7616,4.7606,4.7516,4.7516,4.7265,4.6998,4.7465,4.6888,4.5759,4.4453,4.3413,4.2096,3.9208,3.7952,3.7826,3.9333,4.1217,4.285,0.0,4.62,4.8485,4.7556,4.9875,5.1933,5.1448,5.2721,5.3919,5.412,5.5039,5.5842,5.6093,5.6972,5.7173,5.5974,5.6376,5.6728,5.6728,5.7273,5.7625,5.7625,5.7675,5.77,5.77,5.8158,5.8403,5.8322,5.8905,5.9458,5.994,6.0638,6.1285,6.1818,6.235,6.2626,6.2626,6.2626,6.2626,6.2576,6.1617,6.1466,6.1843,6.0744,6.0588,6.1009,6.1009,6.1291,6.1542,6.0035,5.9483,5.9483,1.8538,1.8612,1.8921,1.9887,2.087,2.1676,2.2214,2.373,2.5143,2.6071,2.7444,2.8935,3.0482,3.1738,3.2893,3.4022,3.6045,3.8266,4.0675,4.2922,4.5257,4.7792,4.8702,4.928,4.959,4.9816,5.0464,5.1505,5.1884,5.2732,5.3944,5.3986,5.3906,5.37,5.3603,5.3299,5.2887,5.2661,5.2385,5.2051,5.1348,5.067,5.0001,4.9524,4.9163,4.8686,4.7079,4.6502,0.0,4.6502,4.6763,4.7249,4.8134,4.7657,4.6562,4.5447,4.4342,4.3352,4.2875,4.2397,4.2423,4.4066,4.5688,4.7069,4.7973,4.9665,5.1096,5.1247,5.2929,5.4285,5.4059,5.4604,5.5282,5.5892,5.61,5.6426,5.7097,5.76,5.7725,5.7248,5.7079,5.6734,5.6143,5.6595,5.6771,5.647,5.7349,5.7901,5.7901,5.8704,5.9156,5.9176,5.9684,6.0236,6.0814,6.1391,6.1768,6.1994,6.2245,6.2325,6.235,6.2651,6.3153,6.3747,6.2993,6.2968,6.3395,6.2596,6.2596,6.3119,6.3119,6.3245,6.3245,6.1567,6.1165,6.1421,1.8403,1.8503,1.8999,2.0313,2.0973,2.1545,2.2196,2.3472,2.4455,2.4767,2.5988,2.7293,2.8546,3.0171,3.1572,3.2562,3.4402,3.6799,3.9873,4.2423,4.4918,4.7355,4.8482,4.9153,4.938,4.9515,5.0408,5.2058,5.1939,5.2641,5.4031,5.4091,5.3716,5.3022,5.319,5.2962,5.246,5.246,5.2234,5.1875,5.1699,5.113,5.0377,5.0243,4.9649,4.8661,4.6652,4.5949,4.5874,4.5397,4.6085,4.7149,4.7531,4.739,4.6898,4.5799,4.4694,4.4041,4.5185,4.5286,4.5587,4.7807,4.8987,4.9967,5.1398,5.2151,5.2779,5.3532,5.4712,5.5616,5.5616,5.5867,5.6344,5.7129,5.6928,5.6972,5.7775,5.7901,5.7775,5.7474,5.7054,5.6351,5.5282,5.6219,5.6728,5.6344,5.7851,5.873,5.8579,5.9458,5.996,5.996,6.0487,6.0989,6.1436,6.2119,6.2471,6.2471,6.2621,6.2697,6.2697,6.3099,6.3726,6.445,6.3948,6.3923,6.4224,6.3676,6.3676,6.4048,6.4048,6.4124,6.4124,6.2923,6.2822,6.3274,1.7829,1.8299,1.8911,1.9948,2.0514,2.1151,2.2144,2.2848,2.3617,2.4652,2.5301,2.6289,2.7937,2.9619,3.0849,3.1396,3.3925,3.6485,3.8793,4.2057,4.4631,4.6265,4.8497,4.9408,4.8834,4.933,5.0206,5.1427,5.142,5.1744,5.2366,5.2366,5.2029,5.1364,5.1381,5.1356,5.1339,5.1339,5.1339,5.1264,5.0695,5.0427,5.0352,4.9816,4.8595,4.7174,4.7074,4.7048,4.6798,4.5167,4.5719,4.6823,4.5217,4.5819,4.6898,4.5799,4.4694,4.4041,4.5185,4.4694,4.4769,4.8586,4.9565,5.0167,5.236,5.3264,5.3658,5.3683,5.5013,5.6194,5.6194,5.7072,5.7826,5.7876,5.7851,5.7851,5.7901,5.7901,5.7499,5.6376,5.6244,5.5792,5.4723,5.7047,5.861,5.861,6.0136,6.0839,6.0267,6.0814,6.116,6.116,6.1667,6.1969,6.1994,6.3099,6.3651,6.3651,6.4174,6.44,6.44,6.4446,6.4471,6.445,6.3948,6.3701,6.3676,6.3078,6.2852,6.2852,6.2852,6.3224,6.3701,6.3651,6.3998,6.4446,1.8288,1.8483,1.9019,2.0334,2.019,2.0442,2.211,2.2853,2.3454,2.4192,2.5059,0.0,0.0,0.0,0.0,0.0,3.2195,3.3982,3.6848,3.998,4.2582,4.4572,4.7598,4.9125,4.8879,4.9392,5.03,5.1614,5.1027,5.1293,5.2372,5.2312,5.1943,5.1306,5.1762,5.1712,5.1289,5.1289,5.1063,5.0695,5.0477,5.0193,4.969,4.8033,4.7064,4.6286,0.0,4.3499,4.3754,4.3215,4.3628,4.4418,4.4554,4.4754,4.4694,4.3642,4.408,4.4995,4.5412,4.6567,4.8134,5.0209,5.1523,5.2703,5.421,5.4687,5.4913,5.529,5.5516,5.5767,5.6125,5.6219,5.6595,5.7725,5.6972,5.662,5.775,5.6639,5.5961,5.6652,5.61,5.616,5.744,5.7279,5.7029,5.7029,5.893,5.9985,5.9784,6.0683,6.1361,6.1718,6.1918,6.237,6.3124,6.35,6.3701,6.3701,6.3877,6.4149,6.45,6.4877,6.5208,6.5534,6.4982,6.4957,6.5258,6.468,6.468,6.4986,6.4986,6.5111,6.5283,6.5283,6.5409,6.5459,1.8322,1.8672,1.9186,2.0122,1.9951,0.0,0.0,0.0,0.0,0.0,0.0,0.0,0.0,0.0,0.0,0.0,0.0,3.2569,3.5349,3.7796,4.0082,4.2165,4.5224,4.6791,4.6677,4.8056,4.931,5.0425,5.0276,5.0664,5.1497,5.1437,5.1043,5.0426,5.1077,5.1088,5.0686,5.0686,5.0569,5.0327,4.9323,4.8846,4.8444,4.605,4.4744,0.0,4.1779,4.0877,4.0753,4.1155,4.1934,4.2738,4.2836,4.3011,4.3402,4.431,4.515,4.6075,4.7481,4.9028,5.0611,5.2344,5.3532,5.4536,5.5465,5.5993,5.6394,5.6746,5.6997,5.7022,5.6577,5.6545,5.6796,5.7455,5.6652,5.6511,5.8074,5.6829,5.6229,5.7415,5.6623,5.6833,5.9002,5.802,5.7238,5.7238,5.8807,5.9784,5.9784,6.0487,6.1354,6.2436,6.2356,6.2789,6.3822,6.4118,6.4354,6.4555,6.4555,6.4731,6.5078,6.5434,6.5559,6.5534,6.5559,6.5559,6.5534,6.5559,6.5785,6.609,6.609,6.609,6.609,6.609,6.609,6.599,1.8057,1.88,1.9403,0.0,0.0,0.0,0.0,0.0,0.0,0.0,0.0,0.0,0.0,0.0,0.0,0.0,0.0,0.0,3.4196,3.5727,3.7386,3.9252,4.1671,4.2853,4.2658,4.5375,4.7162,4.7881,4.8953,4.955,4.9643,4.9548,4.9154,4.8617,4.9129,4.9339,4.9339,4.9339,4.9615,4.9825,4.7214,4.6436,4.6547,4.3829,4.1795,4.0412,4.0312,3.9283,3.814,3.927,4.0803,4.1998,4.0539,4.1205,4.3305,4.7487,4.7722,4.739,5.1021,5.1766,5.2143,5.4755,5.5458,5.5616,5.6125,5.7097,5.7851,5.7775,5.8956,5.9313,5.7186,5.7631,5.8033,5.7111,5.6897,5.7343,5.8762,5.8355,5.8061,5.8591,5.7765,5.7811,5.9419,5.9384,5.9259,5.9315,5.9985,6.0429,6.0429,6.044,6.1348,6.3279,6.3058,6.3301,6.4161,6.4969,6.5584,6.609,6.609,6.609,6.609,6.609,6.5534,6.4647,6.566,6.5509,6.4651,6.5685,6.609,6.609,6.609,6.609,6.609,6.609,6.609,6.609,0.0,0.0,0.0,0.0,0.0,0.0,0.0,0.0,0.0,0.0,0.0,0.0,0.0,0.0,0.0,0.0,0.0,0.0,3.2004,3.546,3.7352,3.705,4.0477,4.2319,4.2117,4.2606,4.3558,4.4982,4.4424,4.4837,4.61,4.5577,4.5448,4.5683,4.5809,4.5884,4.5884,4.5884,4.5708,4.5422,4.4719,4.4055,4.319,4.0853,3.9673,3.9132,3.7889,3.7436,3.7575,3.8718,4.0753,4.309,4.4704,4.5784,4.6577,4.7315,4.8997,5.0653,5.0779,5.2553,5.4529,5.5232,5.6018,5.6627,5.6759,5.7029,5.7004,5.6194,5.5691,5.5089,5.4125,5.3532,5.3884,5.605,5.5477,5.5606,5.798,5.7986,5.8106,5.901,5.9313,6.018,6.2,6.1565,6.1465,6.2107,6.2173,6.2172,6.2172,6.241,6.2947,6.3883,6.425,6.4611,6.4987,6.559,6.5939,6.609,6.609,6.609,6.609,6.609,6.5961,6.571,6.5986,6.5939,6.571,6.5986,6.609,6.609,6.609,6.609,6.609,6.609,6.609,6.609,0.0,0.0,0.0,0.0,0.0,0.0,0.0,0.0,0.0,0.0,0.0,0.0,0.0,0.0,0.0,0.0,0.0,0.0,0.0,3.3369,3.4686,3.474,3.7167,3.8672,3.9001,4.0021,4.0921,4.1721,4.1763,4.2195,4.2944,4.2548,4.2521,4.2822,4.3059,4.3159,4.3159,4.3159,4.3123,0.0,0.0,4.1041,4.049,3.8002,3.7186,3.7287,3.6332,3.6659,3.7952,4.0526,4.2121,4.3704,4.7682,4.8469,4.8319,5.0477,5.1557,5.2226,5.2787,5.416,5.5491,5.5993,5.6552,5.6934,5.6785,5.6697,5.6367,5.5305,5.4565,5.3863,5.3105,5.2692,5.3393,5.6346,5.6121,5.6496,5.9133,5.9287,5.9436,6.0217,6.05,6.1406,6.3436,6.3147,6.3168,6.4002,6.3079,6.2788,6.3547,6.3772,6.4505,6.5936,6.5805,6.5864,6.6251,6.6938,6.709,6.6711,6.6711,6.6498,6.609,6.609,6.5835,6.5409,6.5911,6.5835,6.5434,6.5911,6.609,6.609,6.609,6.609,6.609,6.609,6.609,6.609,0.0,0.0,0.0,0.0,0.0,0.0,0.0,0.0,0.0,2.5786,2.582,2.5954,0.0,0.0,0.0,0.0,0.0,0.0,0.0,0.0,3.1356,3.2634,3.325,3.4047,3.5041,3.7364,3.8473,3.8321,3.9657,4.0182,3.9914,3.9866,3.9822,3.986,4.0311,4.0486,4.0436,4.0511,4.0789,4.0992,3.8617,3.7889,3.7964,0.0,3.4929,3.5408,3.557,3.6697,3.8768,4.3048,4.4016,4.4382,4.9882,5.0385,4.9816,5.4393,5.4318,5.3213,5.5415,5.5792,5.586,5.7007,5.7203,5.7107,5.7125,5.6594,5.589,5.5114,5.4624,5.4102,5.3467,5.3696,5.4774,5.7303,5.7678,5.8368,6.0421,6.0945,6.1187,6.1467,6.1406,6.2142,6.4237,6.4273,6.4564,6.5494,6.3918,6.3516,6.4956,6.5155,6.6253,6.8546,6.7508,6.719,6.7857,6.8482,6.8419,6.7667,6.7561,6.7073,6.6283,6.6155,6.5584,6.4752,6.571,6.5559,6.4777,6.571,6.604,6.599,6.599,6.5961,6.5911,6.5986,6.599,6.599,0.0,0.0,0.0,0.0,0.0,0.0,0.0,0.0,0.0,0.0,2.6884,2.6541,0.0,0.0,0.0,0.0,0.0,0.0,0.0,0.0,0.0,3.1581,3.2094,3.2873,3.3874,3.3609,3.4083,3.5362,3.5234,3.5594,3.6387,3.6369,3.6372,3.636,3.6461,3.6272,3.5871,3.6322,3.6297,3.5994,3.5946,3.5456,3.47,3.4223,0.0,0.0,3.5917,3.7311,3.9296,4.276,4.4744,4.6627,5.1699,5.3658,5.4009,5.359,5.4727,5.5974,5.5107,5.5792,5.7044,5.8405,5.823,5.832,6.0524,5.8218,5.5762,5.6323,5.4436,5.3117,5.4507,5.441,5.5069,5.7886,5.8111,5.7868,5.7699,5.987,6.1354,6.0982,6.2136,6.3542,6.4916,6.5014,6.5672,6.7322,6.7553,6.7534,6.7326,6.8012,6.8837,6.9798,6.8897,6.8815,6.9645,6.9086,6.8711,6.8565,6.7857,6.7413,6.7243,6.6455,6.6011,6.5835,6.6036,6.599,6.5835,6.6036,6.5835,6.5434,6.5434,6.5179,6.4827,6.5279,6.5434,6.5484,0.0,0.0,0.0,0.0,0.0,0.0,0.0,2.5351,2.6322,2.7299,2.7607,2.7754,2.7729,2.7946,2.8088,0.0,0.0,0.0,0.0,0.0,0.0,0.0,3.1046,3.168,3.2429,3.225,3.2402,3.2929,0.0,3.3102,3.3384,3.3384,3.3384,3.3384,3.3384,3.3233,3.3007,3.3258,3.3208,3.3032,3.3574,3.3473,3.3058,3.3345,0.0,0.0,3.5979,3.7286,3.8856,4.1592,4.36,4.6024,5.1875,5.4486,5.5207,5.4084,5.5297,5.6652,5.5031,5.632,5.825,5.8938,5.9332,5.9544,5.9375,5.7216,5.4853,5.3518,5.1615,5.0623,5.218,5.2468,5.3758,5.766,5.8405,5.883,5.9676,6.165,6.2682,6.1786,6.2963,6.3966,6.4256,6.4826,6.5694,6.6869,6.8101,6.8942,6.9276,6.999,7.032,7.0118,7.0159,7.0159,7.0097,7.0159,6.9954,6.948,6.9044,6.8607,6.8146,6.7704,6.7514,6.7514,6.7514,6.7139,6.6563,6.6403,6.5858,6.506,6.4945,6.4902,6.4953,6.5204,6.5484,6.576,0.0,0.0,0.0,0.0,0.0,0.0,2.4247,2.531,2.6221,2.7061,2.8282,2.8932,2.8514,2.8339,2.8263,0.0,0.0,0.0,0.0,0.0,0.0,0.0,0.0,0.0,0.0,0.0,0.0,3.1396,3.1772,0.0,0.0,0.0,0.0,0.0,3.1235,3.116,3.107,3.1185,3.1286,0.0,0.0,3.2279,3.2466,0.0,0.0,0.0,0.0,3.716,3.8492,4.0474,4.232,4.4819,5.0619,5.3406,5.4539,5.464,5.5717,5.6726,5.6001,5.7524,5.9385,5.9699,6.0327,6.0353,5.8202,5.6236,5.4076,5.1331,4.951,4.8883,5.0483,5.1174,5.3017,5.7722,5.8682,5.9589,6.1823,6.3044,6.3424,6.2592,6.3559,6.4283,6.4183,6.5043,6.5992,6.6977,6.8489,6.9784,7.0741,7.125,7.117,7.0425,7.113,7.117,7.0404,7.115,7.115,7.0384,7.02,6.9748,6.9065,6.8899,6.8795,6.8795,6.8477,6.7748,6.6714,6.6437,6.5654,6.4633,6.4651,6.4852,6.5153,6.5279,6.5559,6.5961,0.0,0.0,0.0,0.0,0.0,0.0,2.4815,2.6127,2.7291,2.8214,2.9159,2.9713,2.9663,2.9157,2.8822,0.0,0.0,0.0,0.0,0.0,0.0,0.0,0.0,0.0,0.0,0.0,0.0,3.1396,3.1437,0.0,0.0,0.0,0.0,0.0,0.0,3.0397,2.999,3.0482,0.0,0.0,0.0,0.0,0.0,0.0,0.0,0.0,0.0,3.7449,3.8994,4.0186,4.2019,4.4342,4.7456,4.9916,5.2102,5.4235,5.5669,5.7023,5.9118,5.9901,6.0389,6.1627,6.1098,6.0296,6.0423,5.7275,5.4165,5.3418,5.1005,4.9894,5.2727,5.3326,5.4751,5.9046,5.8845,5.8835,6.0691,6.1461,6.2013,6.2457,6.3559,6.4916,6.6516,6.6779,6.7783,7.0008,7.087,7.1304,7.1412,7.1467,7.1453,7.1373,7.1453,7.1453,7.1373,7.1453,7.1453,7.1352,7.0506,7.0056,6.9954,6.9169,6.8795,6.8727,6.7368,6.6469,6.5868,6.5563,6.4781,6.3905,6.4848,6.4953,6.4626,6.5128,6.5333,6.5434,0.0,0.0,0.0,0.0,0.0,0.0,2.4235,2.591,2.7226,2.7609,2.8924,2.9814,2.9814,2.9578,2.9167,2.848,0.0,0.0,0.0,0.0,0.0,0.0,0.0,0.0,0.0,0.0,3.0231,3.0442,3.0442,0.0,0.0,0.0,0.0,0.0,0.0,3.0005,2.9804,3.003,0.0,0.0,0.0,0.0,0.0,0.0,0.0,0.0,0.0,0.0,3.7977,3.8743,4.0049,4.163,4.3374,4.5231,4.7494,5.1173,5.4048,5.6017,5.6053,5.8421,6.0833,6.0678,6.1381,6.1434,5.8696,5.6747,5.4633,5.1538,4.9656,4.9032,5.062,5.1502,5.2995,5.6131,5.7163,5.8682,6.1922,6.2872,6.374,6.5051,6.5621,6.6055,6.6408,6.6788,6.7846,6.99,6.9927,7.0354,7.144,7.1494,7.1494,7.1494,7.1494,7.1494,7.1494,7.1494,7.1494,7.1494,7.1103,7.094,7.092,7.0574,7.0223,6.9835,6.9063,6.7596,6.5817,6.598,6.5018,6.3488,6.4437,6.4877,6.5003,6.5229,6.5509,6.581,0.0,0.0,0.0,0.0,0.0,2.3916,2.3804,2.5796,2.7262,2.7113,2.8673,2.9814,2.9814,2.9814,2.9327,2.8188,2.8088,0.0,0.0,0.0,0.0,0.0,0.0,0.0,0.0,0.0,3.0105,3.0266,3.0266,3.0266,0.0,0.0,3.003,3.003,0.0,0.0,0.0,0.0,0.0,0.0,0.0,0.0,0.0,0.0,0.0,0.0,0.0,0.0,0.0,0.0,0.0,3.9647,4.0738,4.1977,4.3956,4.8496,5.2323,5.5002,5.4771,5.7875,6.1006,6.0354,6.1024,6.0782,5.6685,5.5355,5.3754,4.9494,4.826,4.8151,4.8734,4.9833,5.1529,5.4313,5.6414,5.8883,6.2166,6.3424,6.4563,6.6047,6.6372,6.6652,6.7113,6.771,6.8597,6.9873,6.9411,6.9702,7.1168,7.1222,7.1331,7.1494,7.1494,7.1494,7.1494,7.1494,7.1494,7.1494,7.1494,7.1304,7.0978,7.1331,7.1087,7.0321,6.979,6.8213,6.5967,6.6066,6.5006,6.3432,6.4378,6.4978,6.5329,6.5484,6.5685,6.5886,0.0,0.0,0.0,0.0,0.0,0.0,2.3868,2.6079,2.7626,2.7149,2.8673,2.9814,2.9814,2.9814,2.9327,2.8188,2.8088,0.0,0.0,0.0,0.0,0.0,0.0,0.0,0.0,0.0,3.0849,3.1371,3.1371,3.1371,3.1371,3.0849,3.0588,3.0573,0.0,0.0,0.0,0.0,0.0,0.0,0.0,0.0,0.0,0.0,0.0,0.0,0.0,0.0,0.0,0.0,0.0,0.0,0.0,4.0867,4.2249,4.6936,5.0782,5.42,5.7227,5.9388,6.0935,6.1443,5.9833,5.7532,5.5073,5.313,5.0999,4.8029,4.7418,4.7554,4.8097,4.9195,5.1189,5.4797,5.7402,5.9399,6.0654,6.2329,6.3641,6.4238,6.4853,6.6372,6.9365,7.0225,7.0578,7.0578,7.0036,6.9954,7.0578,7.0605,7.0877,7.1467,7.1494,7.1494,7.1494,7.1494,7.1494,7.1494,7.1494,7.085,6.9744,7.0978,7.0822,6.9651,6.8792,6.7601,6.6207,6.5305,6.4408,6.3797,6.4856,6.5304,6.5358,6.5911,6.576,6.5383,0.0,0.0,0.0,0.0,0.0,0.0,2.3993,2.5888,2.7321,2.7357,2.8781,2.9814,2.9814,2.9418,2.8881,2.8163,2.8088,0.0,0.0,0.0,0.0,0.0,0.0,0.0,0.0,0.0,3.0849,3.1396,3.1396,3.1396,3.1396,3.122,3.0949,3.0588,3.0422,3.0347,0.0,0.0,0.0,0.0,0.0,0.0,0.0,0.0,0.0,0.0,0.0,0.0,0.0,0.0,0.0,0.0,0.0,0.0,0.0,4.3583,4.6905,5.0333,5.2082,5.4204,5.5817,5.56,5.5573,5.4991,5.2603,5.1611,5.0471,4.792,4.7065,4.7065,4.8029,4.9195,5.1189,5.4797,5.7445,6.0131,6.3351,6.4283,6.5314,6.7178,6.7919,6.8489,6.9051,6.9268,6.954,6.9954,6.9032,6.9086,7.0524,7.0605,7.0877,7.1467,7.1494,7.1494,7.1494,7.1494,7.1494,7.1494,7.1494,7.085,6.9744,7.0951,7.0625,6.9074,6.8986,6.8033,6.6562,6.6414,6.5759,6.4968,6.6037,6.636,6.6216,6.6373,6.6322,6.6195,0.0,0.0,0.0,0.0,0.0,0.0,2.3726,2.548,2.6886,2.7099,2.8305,2.9227,2.9443,2.8932,2.8389,2.7846,2.7805,0.0,0.0,0.0,0.0,0.0,0.0,0.0,0.0,3.0899,3.1286,3.2035,3.2035,3.2035,3.2035,3.1813,3.1526,3.119,3.0999,3.0899,0.0,0.0,0.0,0.0,0.0,0.0,3.3165,0.0,0.0,0.0,0.0,0.0,0.0,0.0,0.0,0.0,0.0,0.0,0.0,0.0,4.4122,4.7042,4.9085,5.1406,5.3212,5.3076,5.2913,5.2398,5.0905,5.0051,4.9115,4.7405,4.7486,4.7893,4.8151,4.9927,5.1964,5.3766,5.7564,6.0837,6.232,6.3867,6.5341,6.6617,6.8109,6.9059,6.9113,6.8942,6.9051,6.9636,6.8787,6.8923,7.0524,7.0605,7.0877,7.1467,7.1494,7.1494,7.1494,7.1494,7.1494,7.1494,7.1494,7.085,6.9744,7.0951,7.0652,6.9148,6.9305,6.8605,0.0,6.6998,6.6677,6.641,6.6872,6.7223,6.7467,6.742,6.7291,6.7157,0.0,0.0,0.0,0.0,0.0,0.0,0.0,2.4943,2.6318,2.6516,2.7455,2.8288,2.8797,2.8355,2.7846,2.7336,0.0,0.0,0.0,0.0,0.0,0.0,0.0,0.0,3.1346,3.1446,3.2024,3.3165,3.3165,3.319,3.3215,3.2641,3.233,3.2229,3.1738,3.1497,0.0,0.0,0.0,0.0,3.2491,3.2602,0.0,0.0,0.0,0.0,0.0,0.0,0.0,0.0,0.0,0.0,0.0,0.0,0.0,0.0,0.0,0.0,0.0,5.043,5.2329,5.294,5.1421,4.9752,4.9752,4.8504,0.0,4.6889,4.8558,4.9752,4.8788,5.1461,5.3483,5.2314,5.7928,6.1498,5.871,6.1814,6.4129,6.3532,6.6182,6.8407,6.9392,6.9113,6.9078,6.9601,6.914,6.9377,7.0524,7.0632,7.0904,7.1467,7.1494,7.1494,7.1494,7.1494,7.1467,7.1385,7.1467,7.0822,6.9628,7.0904,7.0822,6.969,6.9744,6.9283,6.8479,6.7319,6.7323,6.8074,6.7509,6.796,6.8914,6.8847,6.8506,6.8155,0.0,0.0,0.0,0.0,0.0,0.0,0.0,0.0,0.0,0.0,2.7638,2.8138,2.8254,2.7821,2.7437,0.0,0.0,0.0,0.0,0.0,0.0,0.0,0.0,0.0,3.1371,3.1813,3.2566,3.3707,3.3707,3.3922,3.4313,3.4176,3.366,3.2878,3.2763,3.2441,0.0,0.0,0.0,0.0,3.2964,3.2953,0.0,0.0,0.0,0.0,3.4842,3.5529,0.0,0.0,0.0,0.0,0.0,0.0,0.0,0.0,4.2118,4.3374,4.4677,0.0,4.7418,4.8015,4.7744,4.731,0.0,4.7024,4.7323,4.9427,5.0308,5.1014,5.2126,5.4541,5.6115,5.5355,5.8937,6.1552,6.0864,6.3197,6.4771,6.4156,6.7159,6.8822,6.7737,6.876,6.9357,6.9051,6.9303,6.9818,7.0551,7.106,7.1358,7.1494,7.1494,7.1494,7.1494,7.1494,7.106,7.0144,7.106,7.0381,6.8407,7.0544,7.0822,6.9717,7.0198,7.0269,7.0028,6.9279,6.9087,6.9278,6.9124,6.91,6.9126,6.9106,6.9047,6.8941,0.0,0.0,0.0,0.0,0.0,0.0,0.0,0.0,0.0,0.0,0.0,2.7453,2.7704,2.7261,0.0,0.0,0.0,0.0,0.0,0.0,0.0,0.0,0.0,0.0,3.1371,3.22,3.2928,3.3531,3.4022,3.4162,3.3972,3.4212,3.3897,3.309,3.309,3.2903,0.0,0.0,0.0,0.0,3.2803,0.0,0.0,0.0,0.0,0.0,3.4603,3.5241,0.0,3.6564,3.6914,3.725,0.0,0.0,0.0,0.0,4.1624,4.2695,4.3549,4.4677,4.5953,4.7351,4.7093,4.6862,4.8205,4.7703,4.7757,5.0701,5.1515,5.2126,5.3375,5.5111,5.6359,5.6305,5.8612,6.0972,6.2628,6.3957,6.4771,6.4717,6.6209,6.714,6.7005,6.8136,6.8977,6.9194,6.952,7.009,7.0978,7.1331,7.1494,7.1494,7.1494,7.1494,7.1494,7.1494,7.0877,6.969,7.0904,7.0544,6.8787,7.0652,7.1141,7.0497,6.9981,7.011,7.0497,6.9357,6.952,7.0497,7.0225,7.0333,7.063,7.0361,7.0254,7.0254,0.0,0.0,0.0,0.0,0.0,0.0,0.0,0.0,0.0,0.0,0.0,0.0,0.0,0.0,0.0,0.0,0.0,0.0,0.0,0.0,0.0,0.0,0.0,3.0517,3.1486,3.2562,3.309,3.3113,3.4159,3.4234,3.3363,3.3906,3.3796,3.3205,3.2989,3.295,0.0,0.0,0.0,0.0,3.2541,0.0,0.0,0.0,0.0,0.0,0.0,0.0,0.0,3.6743,3.7097,3.7201,3.7741,0.0,0.0,0.0,0.0,0.0,4.3211,4.446,4.6048,4.849,4.7866,4.7377,5.0268,4.9155,4.8477,5.1922,5.2953,5.3522,5.4406,5.5844,5.6794,5.6495,5.8096,6.0484,6.3587,6.4256,6.4636,6.5124,6.507,6.5531,6.6888,6.7702,6.8597,6.9609,6.9772,7.0334,7.144,7.1494,7.1494,7.1494,7.1494,7.1494,7.1494,7.1494,7.0877,6.969,7.0904,7.085,6.9744,7.0951,7.1494,7.1412,6.9865,6.9784,7.0605,6.9086,6.9648,7.144,7.0951,7.1412,7.2356,7.182,7.1684,7.1765,0.0,0.0,0.0,0.0,0.0,0.0,0.0,0.0,0.0,0.0,0.0,0.0,0.0,0.0,0.0,0.0,0.0,0.0,0.0,0.0,0.0,0.0,0.0,0.0,3.2054,3.2753,3.3091,3.3095,3.4159,3.4644,3.4557,3.5037,3.4728,3.3713,3.2405,3.2307,3.309,3.3014,0.0,3.309,3.3014,0.0,0.0,0.0,0.0,0.0,0.0,0.0,0.0,3.6743,3.7097,3.7259,3.8205,0.0,0.0,0.0,0.0,0.0,4.2086,4.3525,4.552,4.8395,4.8165,4.7893,5.035,4.9426,4.9656,5.522,5.6034,5.6387,5.8547,6.1542,6.2221,5.7787,5.9371,6.1552,6.2619,6.4102,6.5097,6.5178,6.6934,6.783,6.7078,6.8489,6.95,6.969,7.0171,7.0768,7.1467,7.1494,7.1494,7.1494,7.1494,7.1494,7.1494,7.1494,7.0877,6.969,7.0904,7.085,6.9744,7.0951,7.1494,7.1467,7.1222,7.1195,7.1331,7.106,7.1168,7.1494,7.1412,7.1792,7.2383,7.2301,7.258,7.2939,0.0,0.0,0.0,0.0,0.0,0.0,0.0,0.0,0.0,0.0,0.0,0.0,0.0,0.0,0.0,0.0,0.0,0.0,0.0,0.0,0.0,0.0,0.0,0.0,0.0,3.2291,3.2449,3.2663,3.4066,3.4443,3.3874,3.4386,3.3765,3.2234,3.2341,3.2373,3.2329,3.2874,3.309,3.309,0.0,0.0,0.0,0.0,0.0,0.0,0.0,0.0,0.0,0.0,3.7477,3.7649,3.8654,0.0,0.0,0.0,0.0,0.0,4.2641,4.3823,4.5804,5.0376,4.9454,4.8884,5.4475,5.2329,5.1162,5.815,5.6794,5.56,5.9632,6.0664,6.0501,5.9334,6.1895,6.3912,6.3532,6.4473,6.545,6.6101,6.6861,6.7376,6.7485,6.8516,6.9493,7.0144,7.0443,7.085,7.1467,7.1494,7.1494,7.1494,7.1494,7.1494,7.1494,7.1494,7.0877,6.969,7.0904,7.085,6.9744,7.0951,7.1494,7.1467,7.0795,7.0904,7.1467,7.1168,7.1412,7.201,7.2362,7.2661,7.2851,7.2519,7.277,7.321,0.0,0.0,0.0,0.0,0.0,0.0,0.0,0.0,0.0,0.0,0.0,0.0,0.0,0.0,0.0,0.0,0.0,0.0,0.0,0.0,0.0,0.0,0.0,0.0,0.0,3.1583,3.1716,3.2165,3.3803,3.4198,3.3391,3.316,3.239,3.1274,3.2076,3.2253,3.2012,3.2777,3.309,3.309,0.0,0.0,0.0,0.0,0.0,0.0,0.0,0.0,0.0,0.0,0.0,0.0,0.0,0.0,0.0,4.0583,4.0989,4.1451,4.313,4.4243,4.6211,5.1611,5.0268,4.9753,5.8031,5.4867,5.2398,6.0023,5.7526,5.5491,6.0501,5.966,5.8981,6.1261,6.3903,6.5458,6.4807,6.5233,6.5965,6.6888,6.6706,6.6923,6.8,6.8671,6.9439,7.0524,7.0714,7.1005,7.1467,7.1494,7.1494,7.1494,7.1494,7.1494,7.1494,7.1494,7.106,7.0144,7.106,7.1032,7.0144,7.1087,7.1494,7.144,7.0524,7.0714,7.1657,7.1222,7.1657,7.2661,7.3102,7.3373,7.3455,7.3122,7.3231,7.3427,0.0,0.0,0.0,0.0,0.0,0.0,0.0,0.0,0.0,0.0,0.0,0.0,0.0,0.0,0.0,0.0,0.0,0.0,0.0,0.0,0.0,0.0,0.0,0.0,0.0,3.079,3.1157,3.1746,3.3304,3.4148,3.4265,3.1666,3.1222,3.2496,3.1046,3.1357,3.2993,3.3068,3.309,3.309,3.309,0.0,0.0,0.0,0.0,0.0,0.0,0.0,0.0,0.0,0.0,0.0,0.0,0.0,3.9427,4.0063,4.0675,4.1369,4.2641,4.4215,4.6441,5.0146,4.9616,5.0199,5.8096,5.5208,5.2886,6.0104,5.9524,5.8845,6.2529,6.2149,6.1895,6.374,6.4256,6.478,6.5838,6.6489,6.6896,6.6977,6.7458,6.8,6.8671,6.9276,6.99,7.0551,7.1114,7.144,7.1494,7.1494,7.1494,7.1494,7.1494,7.1494,7.1494,7.1494,7.1467,7.1385,7.1467,7.144,7.1385,7.1467,7.1494,7.1494,7.1412,7.1738,7.2329,7.2301,7.2661,7.3237,7.3265,7.3644,7.4208,7.4648,7.4513,7.4127,0.0,0.0,0.0,0.0,0.0,0.0,0.0,0.0,0.0,0.0,0.0,0.0,0.0,0.0,0.0,0.0,0.0,0.0,0.0,0.0,0.0,0.0,0.0,2.898,2.9618,3.0321,3.0826,3.1135,3.2229,3.2814,3.2913,3.2833,3.219,3.1115,3.2075,3.237,3.222,3.2842,3.309,3.309,3.309,3.309,0.0,0.0,0.0,0.0,0.0,0.0,0.0,0.0,3.7697,3.8185,3.9028,3.9292,3.9481,4.0474,4.1179,4.1993,4.3579,4.5084,4.7554,5.3363,5.2045,5.1271,5.8764,5.7244,5.6197,6.299,6.1044,5.8645,6.0348,6.1796,6.2935,6.3614,6.4364,6.5016,6.5477,6.6055,6.6571,6.695,6.7539,6.8272,6.9249,6.9574,7.0117,7.1087,7.1385,7.1494,7.1494,7.1494,7.1494,7.1494,7.1494,7.1494,7.1494,7.1494,7.1494,7.1494,7.1494,7.1494,7.1494,7.1494,7.1494,7.1494,7.1494,7.1847,7.2437,7.2797,7.3312,7.3889,7.4241,7.4513,7.4676,7.454,7.4594,7.4648,0.0,0.0,0.0,0.0,0.0,0.0,0.0,0.0,0.0,0.0,0.0,0.0,0.0,0.0,0.0,0.0,0.0,0.0,0.0,0.0,0.0,0.0,0.0,2.9286,2.9309,3.0328,3.0923,3.1077,3.1696,3.2167,3.2511,3.2695,3.2215,3.1232,3.2598,3.2889,3.2366,3.3059,3.3355,3.3341,3.3165,3.309,0.0,0.0,0.0,0.0,0.0,0.0,0.0,0.0,3.7646,3.8089,3.9002,3.9427,3.978,4.08,4.1668,4.2683,4.4501,4.5871,4.8219,5.4285,5.3293,5.2615,5.928,5.833,5.77,6.3722,6.2655,6.0582,6.043,6.2176,6.3668,6.3668,6.4048,6.4609,6.5395,6.5838,6.6326,6.6923,6.7539,6.838,6.9582,6.969,7.0198,7.1412,7.1494,7.1494,7.1494,7.1494,7.1494,7.1494,7.1494,7.1494,7.1494,7.1494,7.1494,7.1494,7.1494,7.1494,7.1494,7.1494,7.1494,7.1494,7.1494,7.1955,7.2715,7.3129,7.3753,7.4486,7.4866,7.5007,7.4953,7.4594,7.4676,7.4953,0.0,0.0,0.0,0.0,0.0,0.0,0.0,0.0,0.0,0.0,0.0,0.0,0.0,0.0,0.0,0.0,0.0,0.0,2.5254,2.6551,2.7293,2.7293,2.8266,2.9098,2.9771,3.0831,3.1479,3.1718,3.1898,3.2547,3.3501,3.0685,3.0835,0.0,0.0,0.0,3.3897,3.3922,3.3922,3.3847,3.3305,3.3115,3.309,0.0,0.0,0.0,0.0,0.0,0.0,0.0,3.7569,3.8494,3.9102,3.9699,4.0334,4.0962,4.1978,4.3293,4.5138,4.6509,4.8246,5.1855,5.2736,5.4146,5.9551,5.8031,5.6805,6.1535,6.4409,6.554,6.3722,6.3885,6.431,6.431,6.3315,6.3379,6.5757,6.6109,6.6326,6.6923,6.7539,6.838,6.9582,6.969,7.0198,7.1412,7.1494,7.1494,7.1494,7.1494,7.1494,7.1494,7.1494,7.1494,7.1494,7.1494,7.1494,7.1494,7.1494,7.1494,7.1494,7.1494,7.1494,7.1494,7.1494,7.22,7.3292,7.3319,7.3997,7.5007,7.5007,7.5007,7.5007,7.5007,7.5007,7.5007,0.0,0.0,0.0,0.0,0.0,0.0,0.0,0.0,0.0,0.0,0.0,0.0,0.0,0.0,0.0,0.0,0.0,0.0,2.4721,2.6351,2.7293,2.7293,2.8266,2.9052,2.9577,3.0353,3.1233,3.2196,3.2063,3.1786,3.1355,3.2015,0.0,3.2778,0.0,0.0,0.0,0.0,3.4977,3.3897,3.3732,3.3431,3.3122,0.0,0.0,0.0,0.0,0.0,0.0,0.0,0.0,0.0,3.8982,3.9699,4.0741,4.3483,4.3618,4.3754,4.7649,4.8341,4.9046,5.3495,5.4607,5.56,5.9334,5.9941,6.0521,6.3207,6.4346,6.4174,6.1967,6.3767,6.5024,6.3297,6.4165,6.5277,6.6001,6.6462,6.695,6.7566,6.7783,6.838,6.9582,6.969,7.0198,7.1412,7.1494,7.1494,7.1494,7.1494,7.1494,7.1494,7.1494,7.1494,7.1494,7.1494,7.1494,7.1494,7.1494,7.1494,7.1494,7.1494,7.1494,7.1494,7.1494,7.22,7.3373,7.4187,7.4682,7.5007,7.5007,7.5007,7.5007,7.5007,7.5007,7.5007,0.0,0.0,0.0,0.0,0.0,0.0,0.0,0.0,2.3001,2.3001,2.3001,2.3001,0.0,0.0,0.0,2.3001,2.3928,0.0,2.4496,2.6071,2.7119,2.7293,2.8047,2.8755,2.9324,2.9922,3.0481,3.1043,3.1246,3.1415,3.1544,3.2184,0.0,3.2744,0.0,3.4878,0.0,3.5656,3.5342,3.4187,3.3997,3.3581,3.3133,0.0,0.0,0.0,0.0,0.0,0.0,0.0,0.0,0.0,3.8347,4.0149,4.2222,4.3443,4.438,4.5791,4.9372,4.9982,5.0904,5.6224,5.6821,5.6902,5.9887,6.0945,6.1922,6.4201,6.4663,6.431,6.3116,6.4473,6.5544,6.4938,6.5336,6.6115,6.7229,6.7147,6.7322,6.8155,6.8264,6.8733,6.9954,7.0063,7.047,7.144,7.1494,7.1494,7.1494,7.1494,7.1494,7.1494,7.1494,7.1494,7.1494,7.1494,7.1494,7.1494,7.1494,7.1494,7.1494,7.1494,7.1494,7.1521,7.201,7.2634,7.3373,7.4519,7.5007,7.5007,7.5007,7.5007,7.5007,7.5007,7.5007,7.5007,0.0,0.0,0.0,0.0,0.0,0.0,0.0,2.3001,2.3001,2.3001,2.3001,2.3001,0.0,0.0,0.0,2.3067,2.394,2.4518,2.4562,2.5852,2.6802,2.7271,2.7806,2.8411,2.9108,2.9501,2.9541,2.9183,3.0011,3.1234,3.2764,0.0,3.1627,3.3002,0.0,3.439,0.0,3.5469,3.5319,3.4653,3.4162,3.3632,3.3144,3.3588,0.0,0.0,0.0,0.0,0.0,0.0,0.0,0.0,3.7496,4.0625,4.3919,4.2047,4.4612,4.8517,5.0715,5.1596,5.3251,5.8954,5.8818,5.8113,6.1217,6.1478,6.1831,6.4609,6.5151,6.5287,6.5838,6.5642,6.6002,6.7827,6.6633,6.6405,6.8998,6.8169,6.774,6.8958,6.9039,6.9424,7.049,7.0718,7.1002,7.1487,7.1635,7.1655,7.1514,7.1494,7.1494,7.1494,7.1494,7.1494,7.1494,7.1494,7.1494,7.1494,7.1494,7.1494,7.1494,7.1494,7.1494,7.1575,7.2776,7.3292,7.3373,7.4519,7.5007,7.5007,7.5007,7.5007,7.5007,7.5007,7.5007,7.5007,0.0,0.0,0.0,0.0,0.0,0.0,2.3001,2.3001,2.3001,2.3001,2.3001,2.3001,2.3001,2.3001,0.0,2.3528,2.4137,2.4659,2.5041,2.6027,2.6802,2.7271,2.8146,2.8865,2.9395,2.9096,2.9468,3.0569,3.0558,3.0225,2.9616,0.0,0.0,3.2099,0.0,3.5282,0.0,0.0,0.0,3.4703,3.4577,3.3947,3.3176,3.3958,3.4021,0.0,0.0,0.0,0.0,0.0,0.0,0.0,3.7496,3.9199,4.161,4.3932,4.5708,4.7988,5.3034,5.3495,5.3278,5.6468,5.7597,5.9035,6.3415,6.3605,6.3306,6.488,6.4826,6.4527,6.4645,6.5908,6.6697,6.5993,6.6861,6.8191,6.9853,6.9755,6.997,7.1235,7.0937,7.0607,7.0589,7.1749,7.2205,7.154,7.2672,7.283,7.1575,7.1494,7.1494,7.1494,7.1494,7.1494,7.1494,7.1494,7.1494,7.1494,7.1494,7.1494,7.1494,7.1494,7.1494,7.1575,7.2776,7.3292,7.3373,7.4519,7.5007,7.5007,7.5007,7.5007,7.5007,7.5007,7.5007,7.5007,0.0,0.0,0.0,0.0,0.0,0.0,0.0,0.0,2.3341,2.3341,2.3145,2.3001,2.3001,2.3001,0.0,0.0,2.4203,2.4703,2.5172,2.5863,2.6562,2.7271,2.8266,2.8795,2.8775,2.8751,2.8916,2.9228,2.9788,3.0078,0.0,0.0,0.0,3.2089,0.0,3.5155,0.0,0.0,3.6408,3.5116,3.5352,3.4813,3.4004,3.5159,3.5298,3.4968,3.5814,0.0,0.0,0.0,0.0,0.0,0.0,0.0,4.2083,4.2804,4.484,4.7758,5.1732,5.3185,5.4487,5.8324,6.0403,6.1994,6.3903,6.4509,6.4862,6.5485,6.5377,6.5372,6.6074,6.7126,6.8081,6.8725,6.9408,7.0453,7.2169,7.2035,7.2135,7.3088,7.3174,7.3207,7.3339,7.3395,7.3205,7.2684,7.2711,7.2381,7.1534,7.1494,7.1494,7.1494,7.1494,7.1494,7.1494,7.1494,7.1494,7.1494,7.1494,7.1494,7.1494,7.1494,7.1494,7.1575,7.2776,7.3292,7.3373,7.4519,7.5007,7.5044,7.5718,7.5942,7.5942,7.5942,7.5942,7.5858,0.0,0.0,0.0,0.0,0.0,0.0,0.0,0.0,0.0,2.3834,2.3494,2.3263,2.3263,2.3263,2.346,0.0,0.0,0.0,2.5293,2.5753,2.6398,2.7271,2.8168,2.8496,2.815,2.8641,2.8501,2.7668,2.899,3.0489,0.0,0.0,0.0,3.2817,0.0,0.0,0.0,0.0,3.6043,3.5554,3.6069,3.5653,3.4833,3.6209,3.6416,3.5983,3.6331,3.6524,3.6524,3.6025,0.0,0.0,0.0,0.0,4.2816,4.0904,4.3579,4.7595,4.9616,5.2669,5.6414,6.1155,6.3397,6.431,6.3831,6.478,6.5892,6.6191,6.6272,6.6629,6.791,6.8599,6.9752,7.2188,7.2429,7.3004,7.4953,7.4456,7.4203,7.5054,7.5433,7.579,7.6249,7.5345,7.4483,7.395,7.2929,7.2117,7.1697,7.1576,7.163,7.182,7.1738,7.1738,7.182,7.1967,7.1912,7.1657,7.1548,7.1494,7.1494,7.1494,7.1494,7.1575,7.2776,7.3292,7.3373,7.4519,7.5155,7.5466,7.6567,7.7118,7.7323,7.7323,7.7323,7.7138,0.0,0.0,0.0,0.0,0.0,0.0,0.0,0.0,0.0,0.0,2.4343,2.43,2.43,2.43,2.4496,2.4965,2.5063,2.5315,2.5775,0.0,0.0,2.7271,2.7828,2.8285,2.8688,2.9163,2.9336,2.9209,2.9818,3.1367,0.0,0.0,0.0,3.4655,0.0,0.0,0.0,0.0,3.6043,3.5554,3.6069,3.5625,3.471,3.5743,3.5752,3.5288,3.569,3.6161,3.6578,3.6524,3.7219,0.0,0.0,0.0,4.0714,4.0908,4.366,4.7201,5.001,5.4514,5.8937,6.1162,6.1542,6.1994,6.4419,6.4744,6.497,6.6562,6.6869,6.7003,6.7443,6.9536,7.1295,7.1697,7.3729,7.573,7.7196,7.629,7.615,7.7903,7.7122,7.6389,7.6303,7.7365,7.6903,7.4125,7.4982,7.4661,7.239,7.1892,7.2094,7.3048,7.2675,7.2655,7.3048,7.393,7.3653,7.2274,7.1738,7.1494,7.1494,7.1494,7.1494,7.1575,7.2776,7.3292,7.3373,7.4519,7.5697,7.6753,7.6912,7.7671,7.8645,7.8645,7.8645,7.8463,0.0,0.0,0.0,0.0,0.0,0.0,0.0,0.0,0.0,0.0,0.0,2.4496,2.4496,2.4496,2.4703,2.5172,2.5194,2.5403,2.5863,2.6344,2.6802,2.7271,2.7751,2.8174,2.856,2.9279,2.9543,2.9279,3.0565,3.2836,0.0,3.7057,3.6937,0.0,0.0,0.0,0.0,3.7462,3.7374,3.6076,3.6827,3.6693,3.6167,3.7743,3.7826,3.7122,3.7547,3.768,3.7517,3.6822,3.6958,3.73,3.6693,0.0,0.0,0.0,4.2424,4.6074,5.1041,5.3917,5.6712,6.1841,6.194,6.1668,6.4961,6.5938,6.6655,6.8494,6.9811,7.0546,7.0303,7.228,7.4219,7.5057,7.6549,7.7838,7.8464,7.8342,7.8538,7.9402,7.9281,7.9079,7.8998,7.7999,7.6773,7.5345,7.4299,7.3199,7.2055,7.2139,7.2739,7.3924,7.3347,7.343,7.4367,7.4811,7.4955,7.4828,7.4547,7.3846,7.285,7.285,7.2361,7.1575,7.2776,7.3292,7.3373,7.4519,7.5802,7.7056,7.7794,7.8846,7.9961,7.9961,7.9961,7.9783,0.0,0.0,0.0,0.0,0.0,0.0,0.0,0.0,0.0,0.0,0.0,2.4868,2.4868,0.0,0.0,0.0,2.5381,2.5534,2.5884,2.6223,2.6627,2.7108,2.7577,2.8068,2.8571,2.9567,3.0,2.9841,3.1481,0.0,3.6967,3.8826,3.8881,0.0,3.9747,3.9471,0.0,0.0,3.8969,3.7525,3.8652,3.8452,3.767,3.9501,3.9701,3.9026,3.9212,3.9102,3.8684,3.7636,3.7392,3.7392,3.6622,3.7951,0.0,0.0,0.0,4.545,5.096,5.2696,5.4487,6.0891,6.1288,6.0881,6.3831,6.5615,6.7203,6.9203,7.1841,7.3767,7.3621,7.495,7.6525,7.8027,7.917,7.9847,7.9847,8.0278,8.0679,8.0832,8.1158,8.136,8.136,7.9173,7.7523,7.6951,7.4845,7.3316,7.2764,7.339,7.4205,7.5093,7.4739,7.5074,7.614,7.5992,7.6404,7.7393,7.6943,7.5965,7.4603,7.4433,7.3614,7.2411,7.3356,7.3615,7.3486,7.5259,7.6525,7.7446,7.8846,8.0158,8.132,8.132,8.132,8.1126,0.0,0.0,0.0,0.0,0.0,0.0,0.0,0.0,0.0,0.0,0.0,2.5819,2.5819,2.5819,2.5841,2.5863,2.5863,2.5863,2.5906,2.5918,2.6147,2.6627,2.7086,0.0,2.9037,3.0232,3.1158,3.1845,0.0,0.0,3.5664,3.8404,3.9898,4.0312,4.0976,4.1768,4.2514,4.1207,4.0478,4.035,4.2055,4.1029,3.8633,3.9778,4.016,4.0056,3.9509,3.9644,4.0008,3.9373,3.9547,3.9818,3.8629,3.9513,4.0897,0.0,0.0,0.0,4.8639,5.1406,5.4189,5.6891,5.7895,5.859,5.9931,6.2183,6.4691,6.7221,7.1418,7.5035,7.6342,7.6682,7.7235,7.878,8.0648,8.1927,8.1927,8.1958,8.2235,8.2882,8.242,8.205,8.205,8.191,8.0887,7.8747,7.8647,7.7773,7.5611,7.6482,7.7001,7.6862,7.7551,7.818,7.87,7.8141,7.8338,7.9308,7.7547,7.6636,7.6521,7.5908,7.5257,7.465,7.4964,7.4485,7.3755,7.7275,7.8475,7.8305,8.0031,8.1513,8.2712,8.2712,8.2712,8.2492,0.0,0.0,0.0,0.0,0.0,0.0,0.0,0.0,0.0,0.0,0.0,0.0,0.0,0.0,0.0,2.6376,2.6071,0.0,0.0,2.5906,2.6293,2.7203,2.7151,2.7933,2.9687,3.0331,3.1103,3.1988,0.0,3.4109,3.6093,3.711,3.8793,4.1152,4.4163,4.396,4.1495,4.3911,4.2768,3.9696,4.4108,4.3659,4.0612,4.3256,4.4255,4.3998,4.2234,4.2505,4.3347,4.1179,4.0067,3.9536,3.9102,3.9699,4.0784,4.2137,4.3441,4.503,4.7785,4.9304,5.1189,5.5545,5.6499,5.7314,6.0888,6.4197,6.7086,6.9207,7.347,7.6969,7.7474,7.8314,7.9235,8.021,8.1342,8.2235,8.2697,8.2728,8.282,8.3066,8.2882,8.2574,8.2143,8.0925,7.9671,7.8404,7.6933,7.6262,7.6693,7.6648,7.7526,7.9561,7.8977,7.9118,8.0119,7.9907,8.0287,8.1276,8.021,7.9051,7.7831,7.7151,7.6633,7.6267,7.7208,7.67,7.5358,7.7864,7.9286,7.9932,8.0571,8.161,8.2806,8.2806,8.2806,8.275,0.0,0.0,0.0,0.0,0.0,0.0,0.0,0.0,0.0,0.0,0.0,0.0,0.0,0.0,0.0,2.6868,2.6551,2.6365,2.6365,2.6312,2.6753,2.7812,2.7689,2.8498,3.0464,3.0819,3.1459,3.2373,3.2864,3.3844,3.5312,3.6406,3.809,4.0387,4.4601,4.5197,4.326,4.6988,4.633,4.3097,4.6838,4.6813,4.4743,4.6648,4.7635,4.7825,4.6631,0.0,4.6537,4.4923,4.3335,4.1908,4.13,4.0838,4.0877,4.2668,4.3495,4.427,4.6429,4.7459,4.887,5.2871,5.4196,5.5496,5.9385,6.3794,6.7657,6.9766,7.4003,7.7553,7.823,7.9123,8.0032,8.0959,8.202,8.2943,8.3357,8.3651,8.3757,8.3757,8.3757,8.351,8.2851,8.1219,7.9965,7.9305,7.7683,7.7135,7.7967,7.8269,7.9423,8.1586,8.0726,8.0619,8.1455,8.1475,8.1805,8.2473,8.173,8.0708,7.9445,7.8535,7.8019,7.7867,7.9085,7.8523,7.6979,7.9273,8.0355,8.0629,8.1243,8.2023,8.2806,8.2806,8.2806,8.2806,0.0,0.0,0.0,0.0,0.0,0.0,0.0,0.0,0.0,0.0,0.0,0.0,0.0,0.0,0.0,2.7337,2.7315,2.7304,2.7348,2.716,2.7448,2.843,2.8632,0.0,3.1287,3.1766,3.2351,3.309,3.309,3.3115,3.319,3.6383,3.7889,3.8127,4.194,4.5269,4.8178,5.0199,5.0857,5.0525,5.0335,5.0471,5.0661,4.971,5.0023,5.1095,5.2329,5.1244,0.0,5.058,0.0,4.7106,4.5288,4.3078,4.1288,4.1885,4.2885,4.3929,0.0,0.0,0.0,4.8761,5.0878,5.3136,5.5024,6.0443,6.5845,6.8448,7.2715,7.6568,7.8647,7.903,7.9492,8.0802,8.271,8.4034,8.4065,8.4649,8.508,8.508,8.5062,8.4816,8.4157,8.3123,8.2217,8.1532,8.1377,8.0771,7.9528,8.1587,8.2806,8.2806,8.2806,8.2806,8.2806,8.2806,8.2776,8.2747,8.183,8.1364,8.1304,7.9965,7.9404,7.951,8.0393,7.9865,7.8568,8.1571,8.1744,8.0346,8.21,8.2806,8.2806,8.2806,8.2806,8.2806,0.0,0.0,0.0,0.0,0.0,2.7413,2.7751,2.7817,2.8129,0.0,0.0,0.0,0.0,0.0,0.0,2.8333,2.7567,2.7602,2.8819,2.8159,2.8365,2.9775,2.9628,3.0267,3.191,3.1785,3.2176,3.309,3.309,3.3316,3.3707,3.46,3.5649,3.6945,4.0507,4.2983,4.4705,4.8572,4.8003,4.5127,5.3245,5.2968,4.8287,5.3607,5.4189,5.2371,5.3565,5.3565,5.2995,0.0,5.0674,4.7609,4.5384,4.3633,4.2521,4.3103,4.3549,4.3848,4.3998,0.0,0.0,0.0,0.0,0.0,5.5949,5.965,6.3572,6.8026,7.1921,7.5015,7.6568,7.8476,7.9653,7.9278,8.1138,8.282,8.3313,8.3941,8.4372,8.4372,8.4568,8.4526,8.4139,8.3094,8.208,8.1184,8.0122,7.9974,8.1075,8.2606,8.3247,8.2806,8.2806,8.2806,8.2806,8.2806,8.2567,8.2069,8.1324,8.072,8.0192,7.9341,7.9489,8.043,8.0701,8.1081,8.159,8.2454,8.2492,8.21,8.2587,8.2806,8.2806,8.2806,8.2806,8.2806,0.0,0.0,2.7754,2.8254,2.8343,2.8432,2.8698,2.9205,2.9692,0.0,0.0,0.0,0.0,0.0,0.0,0.0,2.95,2.9374,3.0348,2.9557,2.9637,3.101,3.075,3.1176,3.2545,3.2341,3.2503,3.309,3.309,3.3363,3.3828,3.4331,3.5156,3.6344,3.9058,4.0769,4.1807,4.5982,4.7392,4.7378,5.3522,5.4569,5.2889,5.6663,5.7108,5.5898,5.7336,5.7526,5.7135,5.7282,5.4417,5.0593,4.9223,4.6604,4.4297,4.5614,4.5138,4.4215,4.4472,4.5057,4.6056,4.8019,0.0,0.0,5.553,6.0158,6.4666,6.8192,7.2275,7.5415,7.5891,7.6845,7.7534,7.7472,7.8636,8.0083,8.1568,8.2532,8.3051,8.3051,8.3562,8.3844,8.3708,8.254,8.1595,8.1059,7.99,7.9836,8.1321,8.235,8.2739,8.2368,8.2657,8.2806,8.2806,8.2537,8.2189,8.18,8.0823,8.0177,7.9788,7.9118,7.9537,8.0794,8.0794,8.156,8.2806,8.2806,8.2806,8.2825,8.2995,8.2958,8.2844,8.3135,8.3184,8.3071,0.0,0.0,2.8665,2.9738,2.9966,3.0011,3.0011,3.1043,3.1634,0.0,0.0,0.0,0.0,0.0,0.0,0.0,3.2194,3.1887,3.2024,3.1256,3.1234,3.2162,3.1986,3.2236,3.3068,3.309,3.3111,3.3165,3.3165,3.344,3.3994,3.5065,3.5871,3.6457,3.7944,3.8956,3.978,4.3016,4.7731,5.2968,5.2573,5.5573,6.0192,5.9188,5.9188,5.9958,6.1986,6.1905,6.1017,6.1986,5.9019,5.4828,5.4421,5.0431,4.6265,4.8232,4.6822,4.4746,4.5437,4.5545,4.5995,4.8118,4.9468,0.0,5.4128,6.0404,6.6101,6.7856,7.2183,7.5553,7.5183,7.4184,7.3799,7.4919,7.515,7.6184,7.9124,8.0632,8.1362,8.1117,8.213,8.2829,8.2864,8.1682,8.0914,8.0877,8.0327,8.0202,8.0674,8.1448,8.1807,8.168,8.2268,8.2567,8.2567,8.1979,8.165,8.156,8.0356,7.9758,7.9668,7.9058,7.9537,8.0794,8.0794,8.156,8.2806,8.2806,8.2806,8.2844,8.324,8.3184,8.2958,8.364,8.3715,8.3502,3.1236,3.0738,3.0404,3.0631,3.105,3.1342,3.1342,3.1948,3.2746,3.3633,0.0,0.0,0.0,0.0,0.0,0.0,0.0,3.3125,3.4055,3.3257,3.2992,3.3515,3.3479,3.3335,3.3115,3.309,3.3261,3.3577,3.3577,3.4294,3.5652,3.5861,3.6741,3.8121,3.845,3.9138,4.017,4.1834,4.514,4.9656,5.4297,5.6549,5.7608,6.1569,6.1152,5.8927,6.2628,6.2872,6.1407,6.1207,5.947,5.6907,5.3972,5.0593,4.7595,4.7134,4.5585,4.4228,4.5301,4.5234,4.5204,4.6606,4.7164,0.0,5.2198,5.4684,5.7641,6.2908,6.5735,6.772,6.9213,6.972,6.9817,6.958,6.9747,7.1506,7.6141,7.8865,7.9776,7.8099,7.9738,8.113,8.1448,8.085,8.0362,8.0125,8.0713,8.0765,8.0016,8.1467,8.1895,8.1022,8.1123,8.1183,8.1183,8.1063,8.0734,8.0177,7.9937,7.9519,7.8998,7.8867,7.9537,8.0794,8.0794,8.156,8.2806,8.2806,8.2806,8.2844,8.324,8.3353,8.3334,8.3752,8.3863,8.3808,3.1525,3.1159,3.1107,3.1738,3.2068,3.2439,3.3024,3.3892,3.4685,0.0,0.0,0.0,0.0,0.0,0.0,0.0,0.0,0.0,3.5922,3.4964,3.4485,3.468,3.4187,3.3881,3.3853,3.3549,3.3609,3.4052,3.4052,3.4747,3.607,3.6361,3.7198,3.8521,3.9123,3.9851,4.073,4.1924,4.5004,4.9439,5.3375,5.6034,5.8042,6.1597,6.2031,6.1027,6.3098,6.3641,6.3306,6.2754,6.1732,6.0375,5.8242,5.4716,5.1162,5.0295,4.811,4.5994,4.6034,4.5817,4.5701,4.6235,4.722,0.0,0.0,5.4628,5.8126,6.1598,6.4228,6.5982,6.632,6.6559,6.66,6.6489,6.6736,6.7848,7.0417,7.456,7.7427,7.7703,7.8944,8.0011,8.0555,8.0299,8.0036,7.9845,8.0627,8.0577,7.9375,8.1087,8.1555,8.0345,8.0943,8.1123,8.0794,8.0464,8.0117,7.9788,7.9477,7.9118,7.8807,7.8807,7.9537,8.0794,8.0794,8.156,8.2806,8.2806,8.2806,8.2844,8.324,8.339,8.3465,8.4012,8.4185,8.4221,3.1448,3.1408,3.1813,3.2829,3.3175,3.3676,3.4703,3.5914,3.6767,0.0,0.0,0.0,0.0,0.0,0.0,0.0,0.0,0.0,0.0,3.7011,3.6458,3.6148,3.5088,3.4691,3.5083,3.448,3.4343,3.4701,3.4821,3.5363,3.6293,3.6898,3.7671,3.8629,3.9699,4.0877,4.2075,4.3606,4.6808,5.1054,5.3468,5.6278,5.9263,6.1597,6.2773,6.3288,6.3614,6.431,6.4934,6.4337,6.3722,6.308,6.242,5.8639,5.4421,5.4053,5.1298,4.8151,4.7242,4.7156,4.7221,4.6849,4.8334,5.0145,0.0,0.0,0.0,6.0096,6.2627,6.4412,6.3349,6.3128,6.3095,6.3056,6.3766,6.4423,6.4668,6.9182,7.3381,7.581,7.6781,7.7518,7.8177,7.9002,7.9503,7.9532,8.0515,8.0437,7.8897,8.0407,8.0886,7.9818,8.0734,8.1003,8.0614,7.9937,7.9608,7.9608,7.9058,7.8807,7.8807,7.8807,7.9447,8.0614,8.0734,8.15,8.2627,8.2747,8.2806,8.2844,8.324,8.3446,8.3596,8.424,8.4552,8.4662,3.2874,3.3216,3.3612,3.374,3.4565,3.5415,3.6088,3.71,3.8329,0.0,0.0,0.0,0.0,0.0,0.0,0.0,0.0,0.0,3.9584,0.0,3.9978,3.8498,3.7334,3.6768,3.6802,3.6231,3.5872,3.5827,3.6348,3.6855,3.734,3.7957,3.8586,3.9237,3.99,4.2017,4.5261,4.8029,5.1041,5.4367,5.8802,5.9941,5.948,6.3912,6.4346,6.2809,6.4419,6.4744,6.431,6.3722,6.308,6.2402,6.1342,5.8004,5.4584,5.5057,5.2247,4.8978,4.8843,4.9555,5.0066,4.8946,4.9585,5.0793,5.193,0.0,5.3446,5.442,0.0,5.6915,5.6756,0.0,0.0,5.6635,5.8464,6.0525,6.1718,6.3789,6.5748,6.7253,6.932,7.0832,7.1536,7.5496,7.8165,7.8513,8.0845,8.1211,7.8915,7.9341,7.9719,7.9806,7.9357,7.9387,7.9907,7.9238,7.8908,7.8908,7.8837,7.8807,7.8807,7.8807,7.9208,7.9937,8.0554,8.1212,8.1949,8.2567,8.2806,8.2844,8.324,8.3596,8.3901,8.4332,8.4717,8.5057,3.3632,3.3757,3.4098,3.4728,3.5492,3.6445,3.7663,3.9019,4.0399,0.0,0.0,0.0,0.0,0.0,0.0,0.0,0.0,4.6537,0.0,0.0,0.0,4.2853,3.9462,3.8022,3.8985,3.7427,3.6865,3.7397,3.7294,3.7515,3.8022,3.8266,3.8901,3.9845,4.0458,4.2738,4.6278,4.8897,5.2533,5.6853,5.9904,6.1108,6.1335,6.4021,6.4645,6.4102,6.4527,6.5205,6.554,6.3541,6.4789,6.6508,6.2519,6.0511,5.9589,5.9111,5.5286,5.1433,5.2477,5.3259,5.3471,5.224,5.3216,5.4522,5.4603,5.382,5.3188,5.3611,0.0,0.0,0.0,0.0,0.0,0.0,5.6139,5.7356,5.8303,5.9392,6.215,6.7618,6.851,6.9778,7.2506,7.3947,7.5495,7.7329,7.8512,7.8579,7.719,7.946,8.0498,7.9818,8.0285,8.0285,7.9788,7.9519,7.9178,7.8807,7.8807,7.8807,7.8807,7.8807,7.9178,7.9848,8.0524,8.1183,8.186,8.2537,8.2806,8.2825,8.2995,8.3296,8.3622,8.3789,8.4252,8.4735,3.4413,3.4338,3.4639,3.5581,3.6244,3.7235,3.907,4.1115,4.2797,0.0,0.0,0.0,4.851,4.8315,0.0,0.0,5.0659,5.0612,0.0,0.0,4.6764,4.7634,4.2451,0.0,4.2484,3.9589,3.8323,3.8901,3.8456,3.8293,3.8401,3.8738,3.9373,4.0225,4.1191,4.3606,4.7174,5.0363,5.4475,5.9052,6.1505,6.2899,6.3514,6.3912,6.4636,6.5395,6.4943,6.5648,6.6354,6.384,6.5621,6.8163,6.4102,6.3173,6.3481,6.3296,5.9856,5.6383,5.7437,5.8326,5.8464,5.6423,5.7378,5.8404,5.6786,5.531,5.4133,5.3783,5.3537,0.0,0.0,0.0,0.0,0.0,0.0,5.4762,5.5066,5.595,5.9017,6.569,6.7277,6.888,7.1567,7.2804,7.3817,7.4723,7.6041,7.6377,7.5407,7.8759,8.0434,7.9818,8.0734,8.0883,8.0087,7.9878,7.9459,7.8807,7.8807,7.8807,7.8807,7.8807,7.9058,7.9548,8.0434,8.1063,8.159,8.2447,8.2806,8.2806,8.2806,8.2976,8.324,8.3353,8.3789,8.4332,3.5458,3.5458,3.5656,3.6256,3.6808,3.7902,4.0111,4.3237,4.5547,0.0,0.0,0.0,0.0,0.0,0.0,0.0,0.0,5.3739,5.2728,0.0,5.2375,5.2474,4.6848,4.5057,0.0,4.3367,4.0707,4.0144,4.0117,3.9536,3.8429,3.959,4.0171,4.028,4.2044,4.4814,4.8503,5.3821,5.7895,6.1061,6.5151,6.6462,6.5811,6.4075,6.4536,6.6082,6.6055,6.6082,6.5947,6.4672,6.4364,6.4672,6.5648,6.4987,6.4353,6.663,6.6163,6.4708,6.3872,6.5163,6.5725,6.153,6.155,6.1603,5.7672,5.6176,5.5284,5.3979,5.3168,5.2933,5.3568,0.0,0.0,0.0,0.0,0.0,0.0,5.3621,5.5485,5.7631,6.3348,6.6646,6.5417,7.1673,7.4106,7.0036,7.4127,7.5958,7.4061,7.6485,7.8501,7.9758,7.9848,8.0165,8.0764,8.0117,7.9459,7.8807,7.8807,7.8807,7.8807,7.8807,7.8807,7.8926,8.0225,8.0823,8.0943,8.2268,8.2806,8.2806,8.2806,8.2806,8.2882,8.3259,8.3603,8.3938,3.7511,3.7426,3.7519,3.7019,3.7688,3.9184,4.1761,4.3425,4.5291,0.0,4.8466,0.0,0.0,5.4904,5.5065,0.0,0.0,5.8317,5.688,5.6452,0.0,0.0,0.0,4.9433,0.0,4.5682,4.3199,4.1381,4.0578,3.9981,3.959,4.0008,4.0404,4.0854,4.2695,4.5708,4.971,5.4758,5.9307,6.3333,6.5965,6.6869,6.6571,6.5567,6.5811,6.6733,6.7159,6.7295,6.7051,6.545,6.6237,6.7866,6.7718,6.7593,6.8173,7.1634,6.9452,6.6361,6.8489,6.9753,7.0349,6.9759,6.8213,6.6488,6.5117,6.082,5.6847,5.5942,5.5161,5.4637,0.0,0.0,0.0,0.0,0.0,0.0,0.0,5.2978,5.4056,5.5413,5.9191,6.2285,6.3875,6.5664,6.7079,6.7798,6.9382,7.041,7.0649,7.442,7.6916,7.7783,7.9548,8.0356,8.0147,7.9907,7.9459,7.8807,7.8807,7.8807,7.8807,7.8807,7.8807,7.8867,8.0225,8.0794,8.0883,8.2249,8.2806,8.2806,8.2806,8.2806,8.2825,8.2958,8.2939,8.2926,3.8829,3.8745,3.8895,3.8201,3.9195,4.1094,4.4135,4.5025,4.6838,0.0,5.1346,0.0,5.7503,0.0,5.82,0.0,6.0199,6.088,6.1057,5.9207,0.0,6.1108,5.6142,0.0,0.0,4.9142,4.6727,4.5804,4.2913,4.1691,4.2098,4.1257,4.1055,4.1505,4.3537,4.6143,4.9399,5.4883,5.9209,6.2628,6.507,6.6562,6.7241,6.6408,6.7005,6.8299,6.8489,6.8543,6.8353,6.7186,6.8082,6.9615,6.9101,6.992,7.1626,7.4206,7.3004,7.1212,7.3237,7.419,7.4483,7.3781,7.2314,7.0751,6.952,6.5733,6.2254,6.1589,6.058,5.9354,5.7727,0.0,0.0,0.0,0.0,0.0,0.0,5.237,5.2881,5.3929,5.75,6.017,6.0853,6.2362,6.3687,6.447,6.5832,6.7119,6.8226,7.2684,7.5497,7.6108,7.8699,7.9896,7.9447,7.9668,7.9459,7.8807,7.8807,7.8807,7.8807,7.8807,7.8807,7.8867,7.9956,8.0584,8.0883,8.1979,8.2597,8.2806,8.2806,8.2901,8.2965,8.2594,8.2421,8.2446,3.9582,3.9488,3.9941,3.9992,4.1401,4.3647,4.7103,4.8088,5.0276,0.0,5.5589,5.6089,5.849,5.8484,5.8923,6.0508,6.0313,6.1532,6.4853,6.0881,0.0,0.0,5.8682,5.6565,5.9822,0.0,0.0,5.279,4.6875,4.4554,4.5627,4.3145,4.2032,4.2141,4.4568,4.6292,4.7826,5.446,5.8096,5.9697,6.298,6.5775,6.7884,6.68,6.8251,7.0772,7.01,6.9941,7.0047,7.0047,7.0047,7.0067,7.0172,7.2244,7.4635,7.4766,7.6861,7.8924,7.7946,7.8391,7.8171,7.4014,7.4006,7.4153,7.0921,7.0521,7.0598,7.0013,6.8533,6.6388,6.3284,0.0,0.0,0.0,0.0,0.0,0.0,0.0,5.1918,0.0,5.7863,0.0,0.0,0.0,6.3827,6.0307,6.3617,6.6131,6.6909,7.1188,7.3988,7.4826,7.725,7.8627,7.8747,7.9357,7.9369,7.8807,7.8807,7.8807,7.8807,7.8807,7.8807,7.8837,7.9489,8.0177,8.0853,8.153,8.2189,8.2806,8.2806,8.2973,8.3165,8.2197,8.2098,8.2525,4.254,4.2437,4.3088,4.4006,4.5637,4.74,4.9148,5.1376,5.3839,0.0,5.7481,5.866,6.0617,6.1932,6.2326,6.1416,6.2467,0.0,0.0,0.0,0.0,6.5142,6.3432,6.1668,5.9931,5.7798,0.0,5.4041,4.8952,4.6617,4.6781,4.3525,4.2249,4.2765,4.5193,4.7161,4.906,5.5735,6.1027,6.4907,6.4455,6.6291,6.9331,7.0276,7.221,7.4262,7.2768,7.3308,7.4763,7.4763,7.4763,7.5057,7.6683,7.7424,7.7993,7.963,7.9986,7.9885,8.0103,8.0,7.9807,7.9675,7.7319,7.4892,7.4522,7.1844,6.9446,6.9515,6.8768,6.7917,6.727,6.3538,0.0,0.0,0.0,0.0,0.0,0.0,0.0,5.1668,0.0,0.0,0.0,0.0,0.0,5.9442,6.1672,6.4036,6.6131,6.8331,7.0935,7.4078,7.4809,7.6096,7.8041,7.7724,7.7963,7.8807,7.8807,7.8807,7.8807,7.8807,7.8807,7.8837,7.9489,8.0177,8.0853,8.153,8.2189,8.2806,8.2806,8.2264,8.1555,8.2397,8.2776,8.2923,4.394,4.4507,4.5768,4.6974,4.9997,5.2276,5.2403,5.4272,5.6884,6.0273,6.0814,0.0,6.3713,6.4617,6.4672,6.3668,6.3532,0.0,6.4807,0.0,0.0,6.6264,6.5124,6.3469,6.1461,6.0593,0.0,5.7597,5.1761,4.9183,4.9562,4.4664,4.2858,4.3769,4.5938,4.8015,5.0321,5.6956,6.2438,6.6516,6.5485,6.7695,0.0,7.2033,7.4763,7.8234,7.7239,7.7043,7.729,7.729,7.729,7.748,7.8754,7.9377,7.9881,8.1103,8.1432,8.1417,8.1496,8.125,8.0983,8.098,7.9083,7.7317,7.7645,7.5765,7.3973,7.4017,7.3837,7.3082,7.1208,6.7276,6.3232,0.0,0.0,0.0,0.0,0.0,0.0,0.0,5.4251,0.0,0.0,0.0,0.0,0.0,6.0266,6.2241,6.4605,6.7104,6.9319,7.1264,7.3552,7.5078,7.5629,7.5886,7.6634,7.7921,7.7921,7.822,7.8807,7.8807,7.8807,7.8819,7.9208,7.9926,8.0823,8.1212,8.1919,8.2844,8.3135,8.2815,8.2305,8.349,8.3338,8.2742,4.5022,4.6166,4.8043,4.9656,5.3836,5.6821,5.6398,5.7345,5.9801,6.4472,6.4256,6.44,6.6408,6.6381,6.6191,6.6109,6.4247,6.4455,6.7675,6.3948,6.3541,6.783,6.545,6.3993,6.3993,6.2881,6.2356,0.0,5.5166,5.2181,5.3143,4.6482,4.3959,4.5126,4.6862,4.9264,5.2467,5.8451,6.304,6.6364,6.6785,6.9695,7.371,7.3435,7.6758,8.1605,8.199,8.0876,7.9183,7.9183,7.9183,7.9183,7.9183,8.0157,8.1282,8.1282,8.2182,8.3097,8.2512,8.2297,8.1871,8.0356,8.0083,8.0182,8.0007,8.0112,8.0143,7.9862,8.0053,7.8989,7.4838,7.0801,6.5802,5.8647,0.0,0.0,0.0,0.0,0.0,0.0,0.0,0.0,0.0,0.0,0.0,0.0,5.9219,6.0908,6.3093,6.6416,6.8226,6.8257,7.2714,7.4552,7.3416,7.4407,7.5707,7.7335,7.6958,7.7484,7.8807,7.8807,7.8807,7.8807,7.8807,7.9567,8.0794,8.0794,8.153,8.2713,8.3298,8.3419,8.3451,8.4221,8.344,8.231,4.8663,4.8516,4.9954,5.3658,5.5069,5.6967,6.0694,6.2278,6.337,6.4346,6.4717,6.4853,6.478,6.6001,6.6625,6.6137,6.6164,0.0,0.0,0.0,0.0,6.8562,6.7648,6.7105,6.7105,6.6427,6.6291,0.0,5.91,5.5708,5.6267,4.9183,4.6237,4.697,4.8246,5.2343,5.8493,6.0864,6.4086,6.7814,7.0422,7.1856,7.2933,7.7486,7.9898,8.1195,8.363,8.424,8.3929,8.3929,8.3929,8.3929,8.3929,8.4112,8.4312,8.4312,8.4144,8.388,8.3788,8.3344,8.2864,8.2547,8.169,8.0839,8.0479,7.9584,7.8819,7.8705,7.9175,7.9045,7.7362,7.2554,6.7493,6.3346,0.0,0.0,0.0,0.0,0.0,0.0,0.0,0.0,0.0,0.0,0.0,0.0,0.0,6.0625,6.3677,6.4021,6.5802,6.9437,7.053,7.2654,7.6078,7.5318,7.6652,8.0075,7.7873,7.7484,7.8807,7.8807,7.8807,7.8807,7.8807,7.9567,8.0794,8.0794,8.1242,8.1938,8.1529,8.0997,8.0571,8.1063,8.1553,8.231,5.2477,5.1609,5.1813,5.446,5.6755,5.9073,6.1633,6.3858,6.535,6.5667,6.6779,6.7431,6.7113,6.7892,6.828,6.7981,6.7675,6.7729,6.8345,6.7512,6.7403,6.8291,6.7756,6.6996,6.6047,6.6671,6.6834,6.6481,6.0284,5.7543,5.7977,5.077,4.7866,4.8884,5.1936,5.5762,6.0185,6.4218,6.7385,6.9948,7.3237,7.5573,7.7322,7.9787,8.1665,8.318,8.4593,8.5111,8.5111,8.5111,8.5111,8.5111,8.5111,8.5111,8.5111,8.5111,8.4865,8.4565,8.4384,8.4084,8.3638,8.2905,8.2117,8.1355,8.0796,7.9784,7.8901,7.8673,7.8848,7.8314,7.5724,7.3791,7.1158,6.6775,0.0,0.0,0.0,0.0,0.0,0.0,0.0,0.0,0.0,0.0,0.0,0.0,0.0,5.9564,6.1866,6.3318,6.5413,6.83,7.0081,7.2355,7.527,7.4689,7.5826,7.8711,7.7424,7.7484,7.8807,7.8807,7.8807,7.8807,7.8807,7.9567,8.0853,8.156,8.183,8.1789,8.1664,8.1227,8.076,8.171,8.2407,8.2971,5.6359,5.541,5.4921,5.6511,5.909,6.1451,6.2899,6.4807,6.6408,6.7268,6.8516,6.9439,6.9663,6.969,6.9656,6.952,6.8869,6.8516,6.859,6.819,6.8055,6.8272,6.7946,6.7051,6.5485,6.6725,6.6915,0.0,0.0,5.9334,5.8666,5.2844,5.062,5.1734,5.6658,5.9824,6.1915,6.7937,7.1066,7.2288,7.6068,7.8989,8.1096,8.1338,8.276,8.4711,8.5019,8.5111,8.5111,8.5111,8.5111,8.5111,8.5111,8.5111,8.5093,8.5002,8.4984,8.4862,8.4479,8.4369,8.41,8.3005,8.2406,8.1928,8.128,8.0453,7.9659,7.91,7.8789,7.7771,7.5061,7.5061,7.4001,6.9558,6.7238,0.0,0.0,0.0,0.0,0.0,0.0,0.0,0.0,0.0,0.0,0.0,0.0,0.0,6.0819,6.2975,6.5099,6.7164,6.9708,7.2042,7.4108,7.3971,7.5168,7.7634,7.7065,7.7484,7.8807,7.8807,7.8807,7.8807,7.8807,7.9567,8.0883,8.2249,8.2309,8.1628,8.1925,8.17,8.1323,8.2322,8.3001,8.3341,6.0274,6.0165,6.0908,6.3704,6.2709,6.3008,6.745,6.6969,6.6706,6.8427,6.8299,6.8489,6.9601,6.969,6.9493,6.8942,6.9764,6.9656,6.8101,6.992,7.0605,6.9601,7.0008,6.9927,6.9202,6.8814,6.8562,0.0,0.0,6.2347,5.8156,5.6918,5.643,5.6765,6.1841,6.5082,6.7077,7.1728,7.3836,7.4562,7.9541,8.0538,7.9329,8.255,8.3588,8.3449,8.4649,8.5111,8.5111,8.5111,8.5111,8.5111,8.5111,8.5111,8.5039,8.4662,8.457,8.446,8.4086,8.3975,8.3907,8.3791,8.3275,8.2698,8.2342,8.1725,8.0941,7.9909,7.8741,7.834,7.9806,7.6784,7.3539,7.1803,6.8405,0.0,0.0,0.0,6.5937,0.0,0.0,0.0,0.0,5.9249,0.0,0.0,5.8055,0.0,6.3438,6.2257,6.3438,6.7778,6.8197,7.0442,7.4766,7.4197,7.6096,8.0405,7.7963,7.7484,7.8807,7.8807,7.8807,7.8807,7.8807,7.9567,8.0883,8.2249,8.2039,8.0883,8.092,8.0758,8.0424,7.9952,8.0993,8.2528,6.3378,6.2265,6.1868,6.3794,6.421,6.5079,6.7376,6.8028,6.8632,6.9737,6.9656,6.971,7.0198,7.0551,7.068,7.0435,7.087,7.068,6.9574,7.0415,7.0578,6.9744,6.9927,6.9791,6.9167,6.9276,6.933,6.933,0.0,6.28,6.1261,6.0214,6.1196,6.3883,6.6232,6.8746,7.1459,7.4878,7.7289,7.8989,8.1363,8.2275,8.2262,8.3063,8.3465,8.3648,8.4167,8.4399,8.4399,8.4399,8.4711,8.5057,8.4808,8.4735,8.4662,8.4258,8.4129,8.4067,8.3696,8.3615,8.3528,8.3285,8.3048,8.28,8.268,8.2132,8.1507,8.11,7.9907,7.901,7.8998,7.8789,7.755,7.4227,7.3689,7.2206,0.0,0.0,0.0,0.0,0.0,0.0,0.0,0.0,0.0,0.0,0.0,0.0,6.1537,6.2795,6.5368,6.9618,6.9738,7.2355,7.7801,7.5634,7.6233,7.9597,7.8519,7.828,7.8807,7.8807,7.8807,7.8819,7.9656,8.0315,8.0883,8.18,8.165,8.0782,8.0632,8.0261,7.9838,8.024,8.1014,8.1855,6.6481,6.5287,6.4473,6.5133,6.6326,6.7249,6.7485,6.9479,7.1069,7.1289,7.2238,7.2352,7.0997,7.125,7.1358,7.1005,7.1895,7.2002,7.0897,7.2111,7.2525,7.174,7.1839,7.1645,7.1046,7.1443,7.1479,7.1099,6.8244,6.6162,6.4791,6.4004,6.5552,6.9061,7.0928,7.2928,7.5056,7.8063,8.0134,8.1449,8.2625,8.3336,8.3716,8.3313,8.3354,8.3627,8.3828,8.3901,8.3901,8.3901,8.4289,8.4711,8.4405,8.4313,8.424,8.3863,8.3752,8.3678,8.3315,8.3221,8.3165,8.2882,8.2806,8.2806,8.2806,8.2428,8.2039,8.183,8.0734,7.9519,7.8561,7.9776,7.9675,7.5814,7.6592,7.6143,7.1787,7.1009,0.0,0.0,7.0111,6.8974,7.1145,6.7059,0.0,0.0,0.0,0.0,6.1208,6.3288,6.6161,6.9931,6.9842,7.2309,7.7724,7.5677,7.6023,7.8807,7.8807,7.8807,7.8807,7.8807,7.8807,7.8867,8.0225,8.0794,8.0853,8.153,8.1411,8.0752,8.0368,8.0026,7.9766,8.0306,8.0959,8.1488,6.9744,7.0117,7.0307,6.9737,6.9636,6.9466,6.8861,7.1709,7.3745,7.3145,7.6071,7.6469,7.1985,7.1494,7.1032,6.9846,7.2861,7.3849,7.1447,7.563,7.7671,7.6457,7.6925,7.6917,7.6305,7.6324,7.5713,7.4445,7.6249,7.4024,6.8155,6.8673,6.9569,7.0992,7.6177,7.8178,7.789,8.1522,8.2064,8.0745,8.3427,8.3466,8.208,8.3385,8.3476,8.299,8.3658,8.3901,8.3901,8.3901,8.3919,8.3919,8.3919,8.3919,8.3845,8.3502,8.3409,8.3315,8.292,8.2806,8.2806,8.2806,8.2806,8.2806,8.2806,8.2776,8.2597,8.1949,8.0734,7.9788,7.9788,7.9267,7.8208,7.6215,7.5365,7.4227,7.2192,7.1308,0.0,7.0949,6.8046,6.7089,6.9768,6.6969,0.0,0.0,0.0,6.4635,6.3977,6.3422,6.4634,6.7928,6.7403,6.8944,7.2937,7.3612,7.5557,7.8807,7.8807,7.8807,7.8807,7.8807,7.8807,7.8867,8.0225,8.0794,8.0853,8.153,8.1411,8.0734,8.0075,8.0061,8.0303,7.967,8.0302,8.1396,6.8761,7.0671,7.2431,7.2811,7.4032,7.502,7.5229,7.5992,7.6558,7.6617,7.7367,7.7443,7.6265,7.6158,7.5988,7.5608,7.5746,7.5908,7.606,7.6603,7.7177,7.7699,7.7013,7.6307,7.5668,7.5668,7.5029,7.3734,7.4489,7.4396,7.3567,7.3295,7.4813,7.785,7.8816,7.987,8.0998,8.1426,8.2083,8.2821,8.2959,8.2975,8.2936,8.3097,8.3015,8.2864,8.3075,8.3135,8.3135,8.3135,8.3135,8.3135,8.3135,8.3323,8.3484,8.3108,8.2995,8.2958,8.2844,8.2806,8.2806,8.2806,8.2806,8.2806,8.2806,8.2806,8.2627,8.1949,8.1093,8.0345,7.9878,7.9608,7.8699,7.6305,7.7592,7.7921,7.5018,7.4792,7.4762,7.436,7.1757,7.0726,7.2475,6.9662,0.0,6.7074,6.6191,6.5398,6.471,6.667,6.9109,7.1923,7.2684,7.43,7.6904,7.5826,7.6455,7.8807,7.8807,7.8807,7.8807,7.8807,7.8807,7.8867,7.9728,8.0117,8.0117,8.0345,8.0296,8.0082,7.9917,7.995,8.0026,7.9814,8.0369,8.113,7.123,7.2657,7.4067,7.5406,7.6679,7.7489,7.7402,7.828,7.8868,7.8485,7.9375,8.0177,8.0575,8.0631,7.999,7.8425,7.8308,7.8676,7.9508,7.9582,7.9976,8.0827,7.9809,7.9018,7.8632,7.8346,7.7722,7.667,7.6813,7.7379,7.8335,7.791,7.8967,8.1239,8.0824,8.1225,8.2271,8.2098,8.2504,8.3266,8.2892,8.2886,8.3146,8.2901,8.2806,8.2806,8.2806,8.2806,8.2806,8.2806,8.2806,8.2806,8.2806,8.2976,8.3127,8.2882,8.2806,8.2806,8.2806,8.2806,8.2806,8.2806,8.2806,8.2806,8.2806,8.2806,8.2687,8.2249,8.165,8.0973,8.0296,7.9967,7.9189,7.7293,7.8699,7.9327,7.7263,7.6886,7.6587,7.5976,7.3762,7.2894,7.451,7.2565,7.1055,7.0606,6.9109,6.8136,6.7971,6.9034,7.059,7.2714,7.433,7.5856,7.731,7.6604,7.7113,7.8807,7.8807,7.8807,7.8807,7.8807,7.8807,7.8837,7.9652,7.9946,7.9788,7.9952,7.9946,7.9783,7.9741,7.9617,7.9493,7.9683,8.0124,8.0562,7.6109,7.5735,7.5556,7.7577,7.8031,7.7751,7.6629,7.919,8.0749,7.9252,8.1877,8.403,8.4424,8.446,8.2887,7.9031,8.0607,8.1844,8.1934,8.3838,8.5019,8.5111,8.4403,8.4003,8.3941,8.3344,8.2789,8.2235,8.2235,8.2235,8.2235,8.2235,8.1994,8.1588,8.2224,8.2314,8.2013,8.3299,8.3259,8.2393,8.3063,8.3127,8.2806,8.2806,8.2806,8.2806,8.2806,8.2806,8.2806,8.2806,8.2806,8.2806,8.2806,8.2806,8.2806,8.2806,8.2806,8.2806,8.2806,8.2806,8.2806,8.2806,8.2806,8.2806,8.2806,8.2806,8.2806,8.2806,8.2268,8.162,8.0973,8.0266,7.9608,7.8968,7.8819,7.8777,7.8669,7.7544,7.6497,7.5856,7.421,7.3804,7.5587,7.5365,7.5006,7.4766,7.312,7.2385,7.2997,7.0769,7.0021,7.1218,7.3193,7.4527,7.5095,7.6317,7.7574,7.8807,7.8807,7.8807,7.8807,7.8807,7.8807,7.8855,7.9858,8.0074,7.9764,8.0146,8.0092,7.9705,7.9526,7.9184,7.8879,7.9255,7.9612,7.9847,7.5762,7.7641,7.9322,8.0025,8.1417,8.2354,8.2042,8.2489,8.2811,8.2685,8.3152,8.364,8.3981,8.4018,8.3656,8.2661,8.2705,8.3206,8.4246,8.3836,8.4034,8.505,8.3972,8.3097,8.2574,8.242,8.2759,8.3651,8.3651,8.3651,8.3651,8.3651,8.3143,8.2273,8.2656,8.2583,8.2228,8.2823,8.2894,8.2699,8.2879,8.2882,8.2806,8.2806,8.2806,8.2806,8.2806,8.2806,8.2806,8.2806,8.2806,8.2806,8.2806,8.2806,8.2806,8.2806,8.2806,8.2806,8.2806,8.2806,8.2806,8.2806,8.2806,8.2806,8.2806,8.2806,8.2806,8.2806,8.2268,8.174,8.159,8.0614,7.9758,7.9578,7.9118,7.843,7.7424,7.6587,7.5677,7.451,7.4869,7.4988,7.442,7.6036,7.6066,7.3582,7.3898,7.4257,7.4407,7.433,7.442,7.4719,7.6604,7.7472,7.7113,7.7921,7.8489,7.8807,7.8807,7.8807,7.8807,7.8807,7.8807,7.8807,7.9077,7.9118,7.9064,7.946,7.9389,7.91,7.9601,7.9576,7.9255,7.9345,7.9612,7.9847,7.8863,7.98,8.0659,8.1834,8.2963,8.3659,8.3659,8.3521,8.3409,8.3397,8.3259,8.3278,8.3622,8.3659,8.3733,8.3901,8.3819,8.4059,8.4777,8.4313,8.4342,8.508,8.4241,8.3793,8.3941,8.3442,8.3568,8.4286,8.3979,8.3889,8.4014,8.4014,8.3612,8.2924,8.3055,8.2922,8.2549,8.2702,8.2806,8.2806,8.2806,8.2806,8.2806,8.2806,8.2806,8.2806,8.2806,8.2806,8.2806,8.2806,8.2806,8.2806,8.2806,8.2806,8.2806,8.2806,8.2806,8.2806,8.2806,8.2806,8.2806,8.2806,8.2806,8.2806,8.2806,8.2806,8.2806,8.2806,8.2507,8.2159,8.186,8.1231,8.0524,7.9907,7.8998,7.7981,7.6946,7.6036,7.5377,7.5258,7.5869,7.6258,7.6155,7.7412,7.7532,7.5736,7.5437,7.5617,7.6185,7.6006,7.6185,7.6736,7.81,7.846,7.7813,7.846,7.8807,7.8807,7.8807,7.8807,7.8807,7.8807,7.8807,7.8807,7.8987,7.9076,7.9094,7.9291,7.9255,7.9112,7.9523,7.9452,7.9148,7.9327,7.9523,7.963,8.2739,8.1802,8.1097,8.2965,8.3296,8.3296,8.3296,8.3296,8.3184,8.2844,8.2806,8.2939,8.3278,8.3296,8.3428,8.3715,8.4092,8.4411,8.4558,8.487,8.5114,8.5237,8.495,8.5207,8.6048,8.506,8.4558,8.4558,8.3898,8.3685,8.3901,8.3901,8.3715,8.339,8.339,8.3184,8.2806,8.2806,8.2806,8.2806,8.2806,8.2806,8.2806,8.2806,8.2806,8.2806,8.2806,8.2806,8.2806,8.2806,8.2806,8.2806,8.2806,8.2806,8.2806,8.2806,8.2806,8.2806,8.2806,8.2806,8.2806,8.2806,8.2806,8.2806,8.2806,8.2806,8.2806,8.2806,8.2806,8.2627,8.2039,8.186,8.1381,8.0027,7.8651,7.7514,7.6766,7.5826,7.5587,7.6676,7.6976,7.7514,7.8549,7.8747,7.8759,7.8639,7.7203,7.6814,7.7891,7.6933,7.6844,7.7921,7.8489,7.8519,7.7981,7.8519,7.8807,7.8807,7.8807,7.8807,7.8807,7.8807,7.8807,7.8825,7.9148,7.9291,7.9309,7.9363,7.9345,7.9309,7.9363,7.9148,7.8843,7.9184,7.9291,7.9255,8.2806,8.2606,8.2492,8.2844,8.2901,8.2901,8.2901,8.2901,8.2882,8.2806,8.2806,8.2825,8.2901,8.2901,8.292,8.2976,8.3353,8.392,8.4783,8.4888,8.5199,8.5747,8.6022,8.6101,8.5929,8.5204,8.4832,8.4832,8.4164,8.3853,8.3901,8.3901,8.3715,8.339,8.339,8.3184,8.2806,8.2806,8.2806,8.2806,8.2806,8.2806,8.2806,8.2806,8.2806,8.2806,8.2806,8.2806,8.2806,8.2806,8.2806,8.2806,8.2806,8.2806,8.2806,8.2806,8.2806,8.2806,8.2806,8.2806,8.2806,8.2806,8.2806,8.2806,8.2806,8.2806,8.2806,8.2806,8.2806,8.2776,8.2657,8.2189,8.1381,8.0027,7.8651,7.7382,7.6215,7.6317,7.6587,7.6779,7.7801,7.834,7.7981,7.846,7.8549,7.8011,7.819,7.8448,7.8639,7.846,7.8448,7.8639,7.8747,7.8747,7.8639,7.8747,7.8807,7.8807,7.8807,7.8807,7.8807,7.8807,7.8807,7.8807,7.8861,7.8897,7.8915,7.9255,7.9202,7.8933,7.9255,7.9148,7.8807,7.8861,7.8897,7.8879,8.2806,8.2806,8.2806,8.2806,8.2806,8.2806,8.2806,8.2806,8.2806,8.2806,8.2806,8.2806,8.2806,8.2806,8.2806,8.2806,8.2976,8.3417,8.42,8.4676,8.5042,8.5346,8.5683,8.5952,8.6113,8.602,8.5706,8.5164,8.445,8.3823,8.3304,8.3304,8.321,8.3071,8.3071,8.2976,8.2806,8.2806,8.2806,8.2806,8.2806,8.2806,8.2806,8.2806,8.2806,8.2806,8.2806,8.2806,8.2806,8.2806,8.2806,8.2806,8.2806,8.2806,8.2806,8.2806,8.2806,8.2806,8.2806,8.2806,8.2806,8.2806,8.2806,8.2806,8.2806,8.2806,8.2806,8.2806,8.2806,8.2806,8.2806,8.2567,8.2009,8.1033,7.9728,7.8412,7.7113,7.7155,7.7335,7.7335,7.819,7.8819,7.886,7.8819,7.8669,7.837,7.8627,7.8807,7.8807,7.8807,7.8807,7.8807,7.8807,7.8807,7.8807,7.8807,7.8807,7.8807,7.8807,7.8807,7.8807,7.8807,7.8807,7.8807,7.8807,7.8915,7.9112,7.9094,7.9094,7.9112,7.9094,7.8951,7.8807,7.8807,7.8807,7.8807,8.2806,8.2806,8.2806,8.2806,8.2806,8.2806,8.2806,8.2806,8.2806,8.2806,8.2806,8.2806,8.2806,8.2806,8.2806,8.2806,8.2806,8.2997,8.3468,8.4208,8.476,8.5062,8.5421,8.5888,8.6517,8.6579,8.6228,8.5475,8.4745,8.4002,8.3236,8.3236,8.3236,8.3236,8.3236,8.3236,8.3236,8.3087,8.2997,8.2997,8.2866,8.2806,8.2806,8.2806,8.2806,8.2806,8.2806,8.2806,8.2806,8.2806,8.2806,8.2806,8.2806,8.2806,8.2806,8.2806,8.2806,8.2806,8.2806,8.2806,8.2806,8.2806,8.2806,8.2806,8.2806,8.2806,8.2806,8.2806,8.2806,8.2806,8.2806,8.2806,8.2537,8.171,8.0584,7.9429,7.8412,7.813,7.816,7.846,7.8938,7.9477,7.9967,7.9567,7.9267,7.9267,7.9118,7.9028,7.9028,7.8878,7.8807,7.8807,7.8807,7.8807,7.8807,7.8807,7.8807,7.8807,7.8807,7.8807,7.8807,7.8807,7.8807,7.8807,7.8807,7.8969,7.9238,7.8933,7.8969,7.922,7.8915,7.8807,7.8807,7.8807,7.8807,7.8807,8.2806,8.2806,8.2806,8.2806,8.2806,8.2806,8.2806,8.2806,8.2806,8.2806,8.2806,8.2806,8.2806,8.2806,8.2806,8.2806,8.2806,8.2806,8.2866,8.3454,8.4342,8.5589,8.6259,8.6806,8.724,8.6275,8.5749,8.567,8.4992,8.4643,8.4564,8.4564,8.4564,8.4564,8.4564,8.4564,8.4534,8.3886,8.3647,8.3587,8.3027,8.2806,8.2806,8.2806,8.2806,8.2806,8.2806,8.2806,8.2806,8.2806,8.2806,8.2806,8.2806,8.2806,8.2806,8.2806,8.2806,8.2806,8.2806,8.2806,8.2806,8.2806,8.2806,8.2806,8.2806,8.2806,8.2806,8.2806,8.2806,8.2806,8.2806,8.2806,8.2387,8.1063,8.0266,7.9758,7.9668,7.9118,7.9178,8.0434,8.0614,8.0674,8.0734,8.0674,8.0644,8.0644,8.0075,7.9728,7.9728,7.9148,7.8807,7.8807,7.8807,7.8807,7.8807,7.8807,7.8807,7.8807,7.8807,7.8807,7.8807,7.8807,7.8807,7.8807,7.8807,7.8825,7.8843,7.8807,7.8825,7.8843,7.8807,7.8807,7.8807,7.8807,7.8807,7.8807,8.2806,8.2806,8.2806,8.2806,8.2806,8.2806,8.2806,8.2806,8.2806,8.2806,8.2806,8.2806,8.2806,8.2806,8.2806,8.2806,8.2806,8.2806,8.2806,8.3367,8.4305,8.5641,8.6349,8.6788,8.6926,8.6518,8.611,8.5701,8.5432,8.5103,8.4694,8.4694,8.4694,8.4694,8.4694,8.4694,8.4664,8.3987,8.3688,8.3628,8.3027,8.2806,8.2806,8.2806,8.2806,8.2806,8.2806,8.2806,8.2806,8.2806,8.2806,8.2806,8.2806,8.2806,8.2806,8.2806,8.2806,8.2806,8.2806,8.2806,8.2806,8.2806,8.2806,8.2806,8.2806,8.2806,8.2806,8.2806,8.2806,8.2806,8.2806,8.2806,8.2627,8.2129,8.183,8.153,8.1093,8.0812,8.0842,8.1351,8.1033,8.0943,8.1381,8.1033,8.0794,8.0794,8.0554,8.0416,8.0416,7.9776,7.9238,7.8807,7.8807,7.8807,7.8807,7.8807,7.8807,7.8807,7.8807,7.8807,7.8807,7.8807,7.8807,7.8807,7.8807,7.8807,7.8807,7.8807,7.8807,7.8807,7.8807,7.8807,7.8807,7.8807,7.8807,7.8807,8.3356,8.3057,8.2866,8.3057,8.2907,8.2806,8.2806,8.2806,8.2806,8.2806,8.2806,8.2806,8.2806,8.2806,8.2806,8.2806,8.2806,8.2806,8.2806,8.3367,8.4305,8.5641,8.614,8.6469,8.6708,8.6708,8.6469,8.602,8.602,8.5761,8.5342,8.5342,8.5342,8.5342,8.5342,8.5342,8.5282,8.4395,8.4006,8.3946,8.3117,8.2806,8.2806,8.2806,8.2806,8.2806,8.2806,8.2926,8.3057,8.2866,8.2907,8.3057,8.2866,8.2806,8.2806,8.2806,8.2806,8.2806,8.2806,8.2806,8.2806,8.2806,8.2806,8.2806,8.2806,8.2806,8.2806,8.2806,8.2806,8.2806,8.2806,8.2806,8.2806,8.2806,8.2806,8.2627,8.2159,8.2099,8.2099,8.2099,8.171,8.162,8.2069,8.171,8.1441,8.1441,8.1212,8.1003,8.0823,8.0356,7.9806,7.9148,7.9118,7.8998,7.8807,7.8807,7.8807,7.8807,7.8807,7.8807,7.8807,7.8807,7.8807,7.8807,7.8807,7.8807,7.8807,7.8807,7.8807,7.8807,7.8807,7.8807,7.8807,7.8807,7.8807,7.8807,8.4545,8.3685,8.2997,8.3617,8.3217,8.2806,8.2806,8.2806,8.2806,8.2806,8.2806,8.2806,8.2806,8.2806,8.2806,8.2806,8.2806,8.2806,8.2806,8.3367,8.4305,8.5641,8.5701,8.602,8.6678,8.6708,8.6708,8.6708,8.6708,8.6708,8.6708,8.6708,8.6708,8.6708,8.6708,8.6708,8.6589,8.5282,8.4694,8.4594,8.3296,8.2806,8.2806,8.2806,8.2806,8.2806,8.2806,8.3187,8.3617,8.2997,8.3187,8.3587,8.2997,8.2806,8.2806,8.2806,8.2806,8.2806,8.2806,8.2806,8.2806,8.2806,8.2806,8.2806,8.2806,8.2806,8.2806,8.2806,8.2806,8.2806,8.2806,8.2806,8.2806,8.2806,8.2806,8.2806,8.2806,8.2806,8.2806,8.2806,8.2806,8.2806,8.2806,8.2806,8.2806,8.2806,8.2189,8.153,8.0823,8.0823,8.0494,7.9818,7.9818,7.9489,7.8807,7.8807,7.8807,7.8807,7.8807,7.8807,7.8807,7.8807,7.8807,7.8807,7.8807,7.8807,7.8807,7.8807,7.8807,7.8807,7.8807,7.8807,7.8807,7.8807,7.8807,7.8807,8.3957,8.3677,8.3647,8.4275,8.3856,8.3408,8.3408,8.3408,8.3277,8.2866,8.2806,8.2806,8.2806,8.2806,8.2806,8.2806,8.2806,8.2806,8.2806,8.3367,8.4096,8.4963,8.5462,8.602,8.6678,8.6708,8.6708,8.6708,8.6708,8.6708,8.6708,8.6708,8.6708,8.6708,8.6708,8.6439,8.596,8.5073,8.4425,8.3946,8.3117,8.2806,8.2806,8.2806,8.2806,8.2866,8.3277,8.3557,8.3658,8.3497,8.3557,8.3587,8.2997,8.2806,8.2806,8.2806,8.2806,8.2806,8.2806,8.2806,8.2806,8.2806,8.2806,8.2806,8.2806,8.2806,8.2806,8.2806,8.2806,8.2806,8.2806,8.2806,8.2806,8.2806,8.2806,8.2806,8.2806,8.2806,8.2806,8.2806,8.2806,8.2806,8.2806,8.2806,8.2806,8.2806,8.2627,8.2189,8.153,8.15,8.1183,8.0524,8.0494,8.0195,7.9489,7.9028,7.8807,7.8807,7.8807,7.8807,7.8807,7.8807,7.8807,7.8807,7.8807,7.8807,7.8807,7.8807,7.8807,7.8807,7.8807,7.8807,7.8807,7.8807,7.8807,7.8807,8.4485,8.4275,8.4305,8.4983,8.4545,8.4006,8.3748,8.3688,8.3468,8.2896,8.2806,8.2806,8.2806,8.2806,8.2806,8.2806,8.2806,8.2806,8.2806,8.3367,8.4006,8.4664,8.5342,8.602,8.6678,8.6708,8.6708,8.6708,8.6708,8.6708,8.6708,8.6708,8.6708,8.6708,8.6708,8.6319,8.5641,8.4963,8.4305,8.3628,8.3027,8.2806,8.2806,8.2806,8.2806,8.2866,8.3217,8.3647,8.4066,8.3777,8.3688,8.3587,8.2997,8.2806,8.2806,8.2806,8.2806,8.2806,8.2806,8.2806,8.2806,8.2806,8.2806,8.2806,8.2806,8.2806,8.2806,8.2806,8.2806,8.2806,8.2806,8.2806,8.2806,8.2806,8.2806,8.2806,8.2806,8.2806,8.2806,8.2806,8.2806,8.2806,8.2806,8.2806,8.2806,8.2806,8.2806,8.2627,8.2238,8.2189,8.189,8.1231,8.1183,8.0883,8.0207,7.9537,7.9058,7.8807,7.8807,7.8807,7.8807,7.8807,7.8807,7.8807,7.8807,7.8807,7.8807,7.8807,7.8807,7.8807,7.8807,7.8807,7.8807,7.8807,7.8807,7.8807,8.5701,8.5222,8.5013,8.5671,8.5222,8.4574,8.3957,8.3827,8.3557,8.2967,8.2836,8.2806,8.2806,8.2806,8.2806,8.2806,8.2806,8.2806,8.2806,8.3427,8.4066,8.4664,8.5402,8.608,8.6678,8.6708,8.6708,8.6708,8.6708,8.6708,8.6708,8.6708,8.6708,8.6708,8.6708,8.6289,8.5581,8.4963,8.4275,8.3587,8.3027,8.2806,8.2806,8.2806,8.2806,8.2806,8.2866,8.3636,8.4604,8.4066,8.3807,8.3617,8.3117,8.2896,8.2806,8.2926,8.2896,8.2806,8.2866,8.2836,8.2806,8.2806,8.2806,8.2806,8.2806,8.2806,8.2806,8.2806,8.2836,8.2896,8.2896,8.2926,8.2956,8.2896,8.2896,8.2866,8.2806,8.2806,8.2806,8.2806,8.2806,8.2806,8.2806,8.2806,8.2806,8.2806,8.2806,8.2806,8.2806,8.2806,8.2537,8.1919,8.189,8.156,8.0883,8.0266,7.9608,7.8878,7.8819,7.8807,7.8807,7.8807,7.8807,7.8807,7.8807,7.8807,7.8807,7.8807,7.8807,7.8807,7.8807,7.8807,7.8807,7.8807,7.8807,7.8807,8.5701,8.5581,8.5701,8.6379,8.593,8.5432,8.5282,8.4814,8.4245,8.3587,8.3087,8.2806,8.2806,8.2806,8.2806,8.2806,8.2806,8.2806,8.2806,8.3846,8.4545,8.4694,8.5851,8.6559,8.6708,8.6708,8.6708,8.6708,8.6708,8.6708,8.6708,8.6708,8.6708,8.6708,8.6708,8.605,8.4904,8.4754,8.4055,8.2967,8.2866,8.2806,8.2806,8.2806,8.2806,8.2866,8.3337,8.4006,8.4754,8.5132,8.4574,8.3748,8.4156,8.3596,8.3016,8.3995,8.3596,8.2896,8.3397,8.3177,8.2806,8.2806,8.2806,8.2806,8.2806,8.2806,8.2806,8.2806,8.3158,8.3497,8.3497,8.3916,8.4115,8.3587,8.3497,8.3337,8.2866,8.2806,8.2806,8.2806,8.2806,8.2806,8.2806,8.2806,8.2806,8.2806,8.2806,8.2806,8.2806,8.2806,8.2747,8.2597,8.2597,8.2249,8.159,8.1441,8.0764,7.9578,7.9058,7.8807,7.8807,7.8807,7.8807,7.8807,7.8807,7.8807,7.8807,7.8807,7.8807,7.8807,7.8807,7.8807,7.8807,7.8807,7.8807,7.8878,8.5761,8.594,8.6289,8.6648,8.6409,8.608,8.5731,8.5132,8.4455,8.3777,8.3158,8.2806,8.2806,8.2806,8.2806,8.2806,8.2806,8.2926,8.3217,8.4126,8.4844,8.5162,8.617,8.6708,8.6708,8.6708,8.6708,8.6708,8.6708,8.6708,8.6708,8.6708,8.6708,8.6708,8.6708,8.596,8.4694,8.4694,8.4145,8.3187,8.2926,8.2967,8.3187,8.2926,8.2806,8.2836,8.3177,8.3906,8.4754,8.5103,8.4963,8.4664,8.4694,8.4025,8.3367,8.4036,8.3737,8.3307,8.3617,8.3468,8.3217,8.3217,8.2997,8.2806,8.2806,8.2806,8.2806,8.2806,8.3277,8.3617,8.3337,8.4055,8.4384,8.3427,8.3497,8.3497,8.2896,8.2806,8.2806,8.2806,8.2806,8.2806,8.2806,8.2806,8.2806,8.2806,8.2806,8.2806,8.2806,8.2806,8.2806,8.2806,8.2806,8.2627,8.2297,8.1949,8.1471,8.0734,7.9746,7.9118,7.8807,7.8807,7.8807,7.8807,7.8807,7.8807,7.8807,7.8807,7.8807,7.8807,7.8807,7.8807,7.8807,7.8807,7.8998,7.9387,8.599,8.6319,8.6708,8.6708,8.6708,8.6499,8.596,8.5312,8.4634,8.3957,8.3337,8.2926,8.2806,8.2806,8.2806,8.2806,8.2806,8.3057,8.3658,8.4335,8.5013,8.5671,8.6349,8.6708,8.6708,8.6708,8.6708,8.6708,8.6708,8.6708,8.6708,8.6708,8.6708,8.6708,8.6708,8.6,8.4874,8.4874,8.4485,8.3827,8.3206,8.3247,8.3647,8.3027,8.2806,8.2806,8.2806,8.3566,8.4545,8.4784,8.5162,8.5462,8.5162,8.4485,8.3886,8.4006,8.3886,8.3718,8.3837,8.3777,8.3688,8.3688,8.3337,8.2907,8.2806,8.2806,8.2836,8.2907,8.3457,8.3737,8.3356,8.4254,8.4624,8.3326,8.3547,8.3617,8.2896,8.2806,8.2806,8.2806,8.2806,8.2806,8.2806,8.2806,8.2806,8.2806,8.2806,8.2806,8.2806,8.2806,8.2806,8.2806,8.2806,8.2806,8.2806,8.2249,8.1919,8.18,8.0554,7.9608,7.8968,7.8849,7.8807,7.8807,7.8807,7.8807,7.8807,7.8807,7.8807,7.8807,7.8807,7.8807,7.8807,7.8807,7.9238,7.9907,8.6589,8.6648,8.6708,8.6708,8.6708,8.6678,8.6589,8.602,8.5312,8.4634,8.4006,8.3397,8.2866,8.2806,8.2806,8.2806,8.2806,8.3057,8.3658,8.4335,8.5013,8.5671,8.6349,8.6708,8.6708,8.6708,8.6708,8.6708,8.6708,8.6708,8.6708,8.6708,8.6708,8.6708,8.6708,8.6289,8.5551,8.5551,8.5192,8.4515,8.3856,8.3647,8.3647,8.3027,8.2806,8.2806,8.2806,8.3266,8.4006,8.5162,8.5252,8.5043,8.611,8.5581,8.4664,8.5252,8.4604,8.3827,8.4425,8.4156,8.3688,8.3688,8.3647,8.3438,8.2926,8.2806,8.2937,8.3468,8.4096,8.4724,8.5222,8.593,8.599,8.4654,8.4515,8.4145,8.2986,8.2806,8.2806,8.2806,8.2806,8.2806,8.2806,8.2806,8.2806,8.2806,8.2806,8.2806,8.2806,8.2806,8.2806,8.2806,8.2806,8.2806,8.2806,8.2717,8.2368,8.18,8.1033,8.0296,7.9638,7.9058,7.8807,7.8807,7.8807,7.8807,7.8807,7.8807,7.8807,7.8807,7.8807,7.8807,7.8807,7.8807,7.9238,7.9907,8.6708,8.6708,8.6708,8.6708,8.6708,8.6708,8.6708,8.614,8.5462,8.4784,8.4126,8.3468,8.2866,8.2806,8.2806,8.2806,8.3117,8.3576,8.4215,8.4893,8.5551,8.6229,8.6529,8.6708,8.6708,8.6708,8.6708,8.6708,8.6708,8.6708,8.6708,8.6708,8.6708,8.6708,8.6708,8.6319,8.5701,8.5701,8.5521,8.5192,8.4515,8.4485,8.4694,8.3696,8.3307,8.3247,8.2926,8.3187,8.3777,8.4395,8.4634,8.4784,8.5402,8.4904,8.4275,8.4933,8.4724,8.4395,8.5073,8.4754,8.4275,8.4275,8.3976,8.3647,8.3367,8.3576,8.3816,8.3718,8.4515,8.5222,8.5162,8.602,8.6259,8.4923,8.4694,8.4365,8.3427,8.2997,8.2806,8.2806,8.2806,8.2806,8.2806,8.2806,8.2806,8.2806,8.2806,8.2806,8.2806,8.2806,8.2806,8.2806,8.2806,8.2806,8.2806,8.2806,8.2657,8.2357,8.168,8.0823,7.9788,7.9118,7.8807,7.8807,7.8807,7.8807,7.8807,7.8807,7.8807,7.8807,7.8807,7.8807,7.8878,7.9627,8.0105,8.0464]}]]